<?xml version="1.0" encoding="UTF-8" standalone="no" ?>
<gpx xmlns="http://www.topografix.com/GPX/1/1" xmlns:xsi="http://www.w3.org/2001/XMLSchema-instance" xsi:schemaLocation="http://www.topografix.com/GPX/1/1 http://www.topografix.com/GPX/1/1/gpx.xsd" version="1.1" creator="VisuGPX - https://www.visugpx.com">
  <metadata>
    <name>FONT BRUNO</name>
    <desc><![CDATA[vtt sur les hauteurs de Labruguière]]></desc>
  </metadata>
  <trk>
    <name><![CDATA[2014-06-15T07_1]]></name>
    <trkseg>
      <trkpt lat="43.49232" lon="2.27123">
        <ele>410.6202393</ele>
        <time>2014-06-15T07:17:27Z</time>
      </trkpt>
      <trkpt lat="43.49232" lon="2.27123">
        <ele>412.0622559</ele>
        <time>2014-06-15T07:17:28Z</time>
      </trkpt>
      <trkpt lat="43.49233" lon="2.27125">
        <ele>412.5428467</ele>
        <time>2014-06-15T07:17:29Z</time>
      </trkpt>
      <trkpt lat="43.49235" lon="2.27128">
        <ele>413.0235596</ele>
        <time>2014-06-15T07:17:35Z</time>
      </trkpt>
      <trkpt lat="43.49236" lon="2.27128">
        <ele>413.9848633</ele>
        <time>2014-06-15T07:17:38Z</time>
      </trkpt>
      <trkpt lat="43.49247" lon="2.27129">
        <ele>410.6202393</ele>
        <time>2014-06-15T07:17:45Z</time>
      </trkpt>
      <trkpt lat="43.49255" lon="2.27129">
        <ele>405.8137207</ele>
        <time>2014-06-15T07:17:49Z</time>
      </trkpt>
      <trkpt lat="43.49264" lon="2.27135">
        <ele>402.9296875</ele>
        <time>2014-06-15T07:17:54Z</time>
      </trkpt>
      <trkpt lat="43.49276" lon="2.27139">
        <ele>404.3717041</ele>
        <time>2014-06-15T07:18:01Z</time>
      </trkpt>
      <trkpt lat="43.49286" lon="2.27144">
        <ele>403.4104004</ele>
        <time>2014-06-15T07:18:06Z</time>
      </trkpt>
      <trkpt lat="43.49294" lon="2.27155">
        <ele>403.8911133</ele>
        <time>2014-06-15T07:18:11Z</time>
      </trkpt>
      <trkpt lat="43.493" lon="2.27166">
        <ele>403.4104004</ele>
        <time>2014-06-15T07:18:15Z</time>
      </trkpt>
      <trkpt lat="43.49308" lon="2.27184">
        <ele>403.4104004</ele>
        <time>2014-06-15T07:18:21Z</time>
      </trkpt>
      <trkpt lat="43.49311" lon="2.27205">
        <ele>405.8137207</ele>
        <time>2014-06-15T07:18:27Z</time>
      </trkpt>
      <trkpt lat="43.49309" lon="2.27231">
        <ele>407.2556152</ele>
        <time>2014-06-15T07:18:35Z</time>
      </trkpt>
      <trkpt lat="43.49308" lon="2.27251">
        <ele>411.1009521</ele>
        <time>2014-06-15T07:18:41Z</time>
      </trkpt>
      <trkpt lat="43.49307" lon="2.27273">
        <ele>416.8688965</ele>
        <time>2014-06-15T07:18:48Z</time>
      </trkpt>
      <trkpt lat="43.49307" lon="2.27291">
        <ele>421.1948242</ele>
        <time>2014-06-15T07:18:54Z</time>
      </trkpt>
      <trkpt lat="43.49307" lon="2.27313">
        <ele>426.4820557</ele>
        <time>2014-06-15T07:19:01Z</time>
      </trkpt>
      <trkpt lat="43.49305" lon="2.27331">
        <ele>429.8465576</ele>
        <time>2014-06-15T07:19:07Z</time>
      </trkpt>
      <trkpt lat="43.49298" lon="2.27345">
        <ele>430.8079834</ele>
        <time>2014-06-15T07:19:13Z</time>
      </trkpt>
      <trkpt lat="43.49291" lon="2.27363">
        <ele>434.6533203</ele>
        <time>2014-06-15T07:19:20Z</time>
      </trkpt>
      <trkpt lat="43.4929" lon="2.27381">
        <ele>435.614502</ele>
        <time>2014-06-15T07:19:27Z</time>
      </trkpt>
      <trkpt lat="43.49296" lon="2.27394">
        <ele>437.0565186</ele>
        <time>2014-06-15T07:19:32Z</time>
      </trkpt>
      <trkpt lat="43.49301" lon="2.27415">
        <ele>434.1726074</ele>
        <time>2014-06-15T07:19:39Z</time>
      </trkpt>
      <trkpt lat="43.493" lon="2.2744">
        <ele>435.1339111</ele>
        <time>2014-06-15T07:19:47Z</time>
      </trkpt>
      <trkpt lat="43.49295" lon="2.27462">
        <ele>436.0952148</ele>
        <time>2014-06-15T07:19:54Z</time>
      </trkpt>
      <trkpt lat="43.49287" lon="2.27488">
        <ele>441.8631592</ele>
        <time>2014-06-15T07:20:03Z</time>
      </trkpt>
      <trkpt lat="43.49283" lon="2.27506">
        <ele>445.708374</ele>
        <time>2014-06-15T07:20:10Z</time>
      </trkpt>
      <trkpt lat="43.4928" lon="2.27525">
        <ele>454.3602295</ele>
        <time>2014-06-15T07:20:17Z</time>
      </trkpt>
      <trkpt lat="43.49277" lon="2.27549">
        <ele>459.647583</ele>
        <time>2014-06-15T07:20:26Z</time>
      </trkpt>
      <trkpt lat="43.49279" lon="2.27566">
        <ele>462.5313721</ele>
        <time>2014-06-15T07:20:32Z</time>
      </trkpt>
      <trkpt lat="43.49282" lon="2.27581">
        <ele>461.0894775</ele>
        <time>2014-06-15T07:20:38Z</time>
      </trkpt>
      <trkpt lat="43.49284" lon="2.27599">
        <ele>463.9733887</ele>
        <time>2014-06-15T07:20:46Z</time>
      </trkpt>
      <trkpt lat="43.49285" lon="2.27617">
        <ele>463.012085</ele>
        <time>2014-06-15T07:20:53Z</time>
      </trkpt>
      <trkpt lat="43.49287" lon="2.27638">
        <ele>463.4927979</ele>
        <time>2014-06-15T07:21:00Z</time>
      </trkpt>
      <trkpt lat="43.49287" lon="2.27653">
        <ele>463.4927979</ele>
        <time>2014-06-15T07:21:06Z</time>
      </trkpt>
      <trkpt lat="43.4929" lon="2.27668">
        <ele>463.012085</ele>
        <time>2014-06-15T07:21:12Z</time>
      </trkpt>
      <trkpt lat="43.49289" lon="2.27681">
        <ele>464.4541016</ele>
        <time>2014-06-15T07:21:17Z</time>
      </trkpt>
      <trkpt lat="43.49282" lon="2.27698">
        <ele>467.8187256</ele>
        <time>2014-06-15T07:21:24Z</time>
      </trkpt>
      <trkpt lat="43.49274" lon="2.27708">
        <ele>469.2607422</ele>
        <time>2014-06-15T07:21:30Z</time>
      </trkpt>
      <trkpt lat="43.49263" lon="2.27716">
        <ele>471.6639404</ele>
        <time>2014-06-15T07:21:37Z</time>
      </trkpt>
      <trkpt lat="43.49251" lon="2.2772">
        <ele>474.0672607</ele>
        <time>2014-06-15T07:21:44Z</time>
      </trkpt>
      <trkpt lat="43.49242" lon="2.27731">
        <ele>494.2550049</ele>
        <time>2014-06-15T07:21:51Z</time>
      </trkpt>
      <trkpt lat="43.49234" lon="2.27741">
        <ele>511.5587158</ele>
        <time>2014-06-15T07:21:57Z</time>
      </trkpt>
      <trkpt lat="43.49222" lon="2.27753">
        <ele>518.7685547</ele>
        <time>2014-06-15T07:22:05Z</time>
      </trkpt>
      <trkpt lat="43.49207" lon="2.27764">
        <ele>524.536499</ele>
        <time>2014-06-15T07:22:12Z</time>
      </trkpt>
      <trkpt lat="43.49194" lon="2.2777">
        <ele>528.8625488</ele>
        <time>2014-06-15T07:22:19Z</time>
      </trkpt>
      <trkpt lat="43.49179" lon="2.27773">
        <ele>531.2657471</ele>
        <time>2014-06-15T07:22:26Z</time>
      </trkpt>
      <trkpt lat="43.49167" lon="2.27775">
        <ele>535.1109619</ele>
        <time>2014-06-15T07:22:33Z</time>
      </trkpt>
      <trkpt lat="43.49156" lon="2.27779">
        <ele>539.4368896</ele>
        <time>2014-06-15T07:22:40Z</time>
      </trkpt>
      <trkpt lat="43.49143" lon="2.27784">
        <ele>543.2821045</ele>
        <time>2014-06-15T07:22:47Z</time>
      </trkpt>
      <trkpt lat="43.49131" lon="2.27787">
        <ele>549.5307617</ele>
        <time>2014-06-15T07:22:55Z</time>
      </trkpt>
      <trkpt lat="43.49123" lon="2.2779">
        <ele>550.4921875</ele>
        <time>2014-06-15T07:23:01Z</time>
      </trkpt>
      <trkpt lat="43.49112" lon="2.27788">
        <ele>551.934082</ele>
        <time>2014-06-15T07:23:08Z</time>
      </trkpt>
      <trkpt lat="43.49102" lon="2.27788">
        <ele>554.8178711</ele>
        <time>2014-06-15T07:23:14Z</time>
      </trkpt>
      <trkpt lat="43.4909" lon="2.27782">
        <ele>554.8178711</ele>
        <time>2014-06-15T07:23:22Z</time>
      </trkpt>
      <trkpt lat="43.49079" lon="2.27776">
        <ele>559.144043</ele>
        <time>2014-06-15T07:23:29Z</time>
      </trkpt>
      <trkpt lat="43.49067" lon="2.27773">
        <ele>560.1052246</ele>
        <time>2014-06-15T07:23:36Z</time>
      </trkpt>
      <trkpt lat="43.49056" lon="2.27772">
        <ele>559.144043</ele>
        <time>2014-06-15T07:23:43Z</time>
      </trkpt>
      <trkpt lat="43.49046" lon="2.27775">
        <ele>558.6633301</ele>
        <time>2014-06-15T07:23:50Z</time>
      </trkpt>
      <trkpt lat="43.49035" lon="2.27779">
        <ele>560.1052246</ele>
        <time>2014-06-15T07:23:56Z</time>
      </trkpt>
      <trkpt lat="43.49023" lon="2.27782">
        <ele>561.5473633</ele>
        <time>2014-06-15T07:24:03Z</time>
      </trkpt>
      <trkpt lat="43.49015" lon="2.27782">
        <ele>562.9892578</ele>
        <time>2014-06-15T07:24:08Z</time>
      </trkpt>
      <trkpt lat="43.49006" lon="2.27776">
        <ele>562.9892578</ele>
        <time>2014-06-15T07:24:15Z</time>
      </trkpt>
      <trkpt lat="43.49" lon="2.27769">
        <ele>562.9892578</ele>
        <time>2014-06-15T07:24:21Z</time>
      </trkpt>
      <trkpt lat="43.48994" lon="2.2776">
        <ele>561.5473633</ele>
        <time>2014-06-15T07:24:27Z</time>
      </trkpt>
      <trkpt lat="43.48984" lon="2.27751">
        <ele>563.9504395</ele>
        <time>2014-06-15T07:24:35Z</time>
      </trkpt>
      <trkpt lat="43.48975" lon="2.27745">
        <ele>564.4311523</ele>
        <time>2014-06-15T07:24:42Z</time>
      </trkpt>
      <trkpt lat="43.48967" lon="2.27738">
        <ele>566.3537598</ele>
        <time>2014-06-15T07:24:48Z</time>
      </trkpt>
      <trkpt lat="43.48959" lon="2.27728">
        <ele>567.3151855</ele>
        <time>2014-06-15T07:24:55Z</time>
      </trkpt>
      <trkpt lat="43.48953" lon="2.27721">
        <ele>571.6408691</ele>
        <time>2014-06-15T07:25:01Z</time>
      </trkpt>
      <trkpt lat="43.48946" lon="2.27712">
        <ele>572.6025391</ele>
        <time>2014-06-15T07:25:07Z</time>
      </trkpt>
      <trkpt lat="43.48937" lon="2.27697">
        <ele>578.8510742</ele>
        <time>2014-06-15T07:25:15Z</time>
      </trkpt>
      <trkpt lat="43.48931" lon="2.27689">
        <ele>581.2543945</ele>
        <time>2014-06-15T07:25:21Z</time>
      </trkpt>
      <trkpt lat="43.48922" lon="2.27677">
        <ele>577.4091797</ele>
        <time>2014-06-15T07:25:29Z</time>
      </trkpt>
      <trkpt lat="43.48911" lon="2.27672">
        <ele>575.4863281</ele>
        <time>2014-06-15T07:25:37Z</time>
      </trkpt>
      <trkpt lat="43.48901" lon="2.2767">
        <ele>575.4863281</ele>
        <time>2014-06-15T07:25:44Z</time>
      </trkpt>
      <trkpt lat="43.48892" lon="2.27673">
        <ele>576.4477539</ele>
        <time>2014-06-15T07:25:51Z</time>
      </trkpt>
      <trkpt lat="43.48883" lon="2.27677">
        <ele>576.9284668</ele>
        <time>2014-06-15T07:25:57Z</time>
      </trkpt>
      <trkpt lat="43.4888" lon="2.2768">
        <ele>578.3703613</ele>
        <time>2014-06-15T07:26:00Z</time>
      </trkpt>
      <trkpt lat="43.48877" lon="2.27681">
        <ele>578.3703613</ele>
        <time>2014-06-15T07:26:02Z</time>
      </trkpt>
      <trkpt lat="43.48862" lon="2.27688">
        <ele>578.3703613</ele>
        <time>2014-06-15T07:26:12Z</time>
      </trkpt>
      <trkpt lat="43.48857" lon="2.27689">
        <ele>578.8510742</ele>
        <time>2014-06-15T07:26:15Z</time>
      </trkpt>
      <trkpt lat="43.48849" lon="2.27695">
        <ele>588.4643555</ele>
        <time>2014-06-15T07:26:20Z</time>
      </trkpt>
      <trkpt lat="43.48836" lon="2.27697">
        <ele>587.5026855</ele>
        <time>2014-06-15T07:26:28Z</time>
      </trkpt>
      <trkpt lat="43.48825" lon="2.27699">
        <ele>585.5800781</ele>
        <time>2014-06-15T07:26:34Z</time>
      </trkpt>
      <trkpt lat="43.48818" lon="2.27695">
        <ele>589.4255371</ele>
        <time>2014-06-15T07:26:38Z</time>
      </trkpt>
      <trkpt lat="43.48823" lon="2.27686">
        <ele>588.9450684</ele>
        <time>2014-06-15T07:26:42Z</time>
      </trkpt>
      <trkpt lat="43.48831" lon="2.27687">
        <ele>595.6740723</ele>
        <time>2014-06-15T07:26:47Z</time>
      </trkpt>
      <trkpt lat="43.48834" lon="2.27686">
        <ele>596.1547852</ele>
        <time>2014-06-15T07:26:49Z</time>
      </trkpt>
      <trkpt lat="43.48846" lon="2.27683">
        <ele>599.5192871</ele>
        <time>2014-06-15T07:26:58Z</time>
      </trkpt>
      <trkpt lat="43.48854" lon="2.27674">
        <ele>596.635498</ele>
        <time>2014-06-15T07:27:05Z</time>
      </trkpt>
      <trkpt lat="43.48861" lon="2.27666">
        <ele>589.4255371</ele>
        <time>2014-06-15T07:27:11Z</time>
      </trkpt>
      <trkpt lat="43.48867" lon="2.27656">
        <ele>584.6188965</ele>
        <time>2014-06-15T07:27:16Z</time>
      </trkpt>
      <trkpt lat="43.48873" lon="2.27645">
        <ele>583.1767578</ele>
        <time>2014-06-15T07:27:23Z</time>
      </trkpt>
      <trkpt lat="43.48878" lon="2.27639">
        <ele>583.6574707</ele>
        <time>2014-06-15T07:27:28Z</time>
      </trkpt>
      <trkpt lat="43.48889" lon="2.2763">
        <ele>594.7126465</ele>
        <time>2014-06-15T07:27:36Z</time>
      </trkpt>
      <trkpt lat="43.48899" lon="2.27624">
        <ele>604.8066406</ele>
        <time>2014-06-15T07:27:43Z</time>
      </trkpt>
      <trkpt lat="43.48914" lon="2.27621">
        <ele>612.9777832</ele>
        <time>2014-06-15T07:27:50Z</time>
      </trkpt>
      <trkpt lat="43.48923" lon="2.27621">
        <ele>616.3422852</ele>
        <time>2014-06-15T07:27:55Z</time>
      </trkpt>
      <trkpt lat="43.48929" lon="2.27624">
        <ele>618.7456055</ele>
        <time>2014-06-15T07:27:59Z</time>
      </trkpt>
      <trkpt lat="43.48944" lon="2.27623">
        <ele>617.3037109</ele>
        <time>2014-06-15T07:28:06Z</time>
      </trkpt>
      <trkpt lat="43.48956" lon="2.27617">
        <ele>608.6518555</ele>
        <time>2014-06-15T07:28:12Z</time>
      </trkpt>
      <trkpt lat="43.48965" lon="2.27609">
        <ele>597.5966797</ele>
        <time>2014-06-15T07:28:19Z</time>
      </trkpt>
      <trkpt lat="43.48973" lon="2.27604">
        <ele>590.8674316</ele>
        <time>2014-06-15T07:28:25Z</time>
      </trkpt>
      <trkpt lat="43.48984" lon="2.27598">
        <ele>585.5800781</ele>
        <time>2014-06-15T07:28:31Z</time>
      </trkpt>
      <trkpt lat="43.48998" lon="2.27588">
        <ele>589.4255371</ele>
        <time>2014-06-15T07:28:39Z</time>
      </trkpt>
      <trkpt lat="43.49004" lon="2.27578">
        <ele>590.8674316</ele>
        <time>2014-06-15T07:28:45Z</time>
      </trkpt>
      <trkpt lat="43.49011" lon="2.27562">
        <ele>591.3481445</ele>
        <time>2014-06-15T07:28:53Z</time>
      </trkpt>
      <trkpt lat="43.49016" lon="2.27547">
        <ele>592.3095703</ele>
        <time>2014-06-15T07:29:00Z</time>
      </trkpt>
      <trkpt lat="43.4902" lon="2.27535">
        <ele>593.270752</ele>
        <time>2014-06-15T07:29:05Z</time>
      </trkpt>
      <trkpt lat="43.49025" lon="2.27518">
        <ele>595.1933594</ele>
        <time>2014-06-15T07:29:12Z</time>
      </trkpt>
      <trkpt lat="43.49028" lon="2.27505">
        <ele>596.1547852</ele>
        <time>2014-06-15T07:29:18Z</time>
      </trkpt>
      <trkpt lat="43.4903" lon="2.27488">
        <ele>598.5578613</ele>
        <time>2014-06-15T07:29:24Z</time>
      </trkpt>
      <trkpt lat="43.49033" lon="2.27472">
        <ele>599.5192871</ele>
        <time>2014-06-15T07:29:31Z</time>
      </trkpt>
      <trkpt lat="43.49033" lon="2.2747">
        <ele>599.5192871</ele>
        <time>2014-06-15T07:29:32Z</time>
      </trkpt>
      <trkpt lat="43.49033" lon="2.27458">
        <ele>600</ele>
        <time>2014-06-15T07:29:38Z</time>
      </trkpt>
      <trkpt lat="43.4903" lon="2.27444">
        <ele>601.4418945</ele>
        <time>2014-06-15T07:29:45Z</time>
      </trkpt>
      <trkpt lat="43.49025" lon="2.2743">
        <ele>604.8066406</ele>
        <time>2014-06-15T07:29:52Z</time>
      </trkpt>
      <trkpt lat="43.49019" lon="2.27418">
        <ele>608.1713867</ele>
        <time>2014-06-15T07:29:59Z</time>
      </trkpt>
      <trkpt lat="43.49007" lon="2.27403">
        <ele>612.4970703</ele>
        <time>2014-06-15T07:30:08Z</time>
      </trkpt>
      <trkpt lat="43.48995" lon="2.27389">
        <ele>615.8618164</ele>
        <time>2014-06-15T07:30:17Z</time>
      </trkpt>
      <trkpt lat="43.48986" lon="2.27376">
        <ele>613.9389648</ele>
        <time>2014-06-15T07:30:26Z</time>
      </trkpt>
      <trkpt lat="43.4898" lon="2.27367">
        <ele>614.4196777</ele>
        <time>2014-06-15T07:30:32Z</time>
      </trkpt>
      <trkpt lat="43.48969" lon="2.27351">
        <ele>620.668457</ele>
        <time>2014-06-15T07:30:41Z</time>
      </trkpt>
      <trkpt lat="43.48959" lon="2.27342">
        <ele>624.032959</ele>
        <time>2014-06-15T07:30:48Z</time>
      </trkpt>
      <trkpt lat="43.4895" lon="2.27334">
        <ele>622.5910645</ele>
        <time>2014-06-15T07:30:54Z</time>
      </trkpt>
      <trkpt lat="43.4894" lon="2.27324">
        <ele>623.0717773</ele>
        <time>2014-06-15T07:31:01Z</time>
      </trkpt>
      <trkpt lat="43.48933" lon="2.27314">
        <ele>621.6296387</ele>
        <time>2014-06-15T07:31:07Z</time>
      </trkpt>
      <trkpt lat="43.4892" lon="2.27296">
        <ele>618.2648926</ele>
        <time>2014-06-15T07:31:17Z</time>
      </trkpt>
      <trkpt lat="43.48912" lon="2.2728">
        <ele>614.9003906</ele>
        <time>2014-06-15T07:31:25Z</time>
      </trkpt>
      <trkpt lat="43.48909" lon="2.27265">
        <ele>611.5358887</ele>
        <time>2014-06-15T07:31:32Z</time>
      </trkpt>
      <trkpt lat="43.48904" lon="2.27247">
        <ele>612.4970703</ele>
        <time>2014-06-15T07:31:39Z</time>
      </trkpt>
      <trkpt lat="43.48899" lon="2.27228">
        <ele>615.8618164</ele>
        <time>2014-06-15T07:31:47Z</time>
      </trkpt>
      <trkpt lat="43.4889" lon="2.27217">
        <ele>618.2648926</ele>
        <time>2014-06-15T07:31:52Z</time>
      </trkpt>
      <trkpt lat="43.48877" lon="2.27207">
        <ele>619.7070313</ele>
        <time>2014-06-15T07:31:58Z</time>
      </trkpt>
      <trkpt lat="43.48867" lon="2.27201">
        <ele>621.1491699</ele>
        <time>2014-06-15T07:32:03Z</time>
      </trkpt>
      <trkpt lat="43.48852" lon="2.27195">
        <ele>622.1103516</ele>
        <time>2014-06-15T07:32:10Z</time>
      </trkpt>
      <trkpt lat="43.4884" lon="2.27189">
        <ele>626.4362793</ele>
        <time>2014-06-15T07:32:17Z</time>
      </trkpt>
      <trkpt lat="43.48827" lon="2.27182">
        <ele>628.8395996</ele>
        <time>2014-06-15T07:32:24Z</time>
      </trkpt>
      <trkpt lat="43.48818" lon="2.27177">
        <ele>629.3200684</ele>
        <time>2014-06-15T07:32:29Z</time>
      </trkpt>
      <trkpt lat="43.48806" lon="2.27172">
        <ele>628.8395996</ele>
        <time>2014-06-15T07:32:35Z</time>
      </trkpt>
      <trkpt lat="43.48794" lon="2.27169">
        <ele>629.8007813</ele>
        <time>2014-06-15T07:32:41Z</time>
      </trkpt>
      <trkpt lat="43.48781" lon="2.2717">
        <ele>636.0495605</ele>
        <time>2014-06-15T07:32:47Z</time>
      </trkpt>
      <trkpt lat="43.48771" lon="2.27171">
        <ele>644.2207031</ele>
        <time>2014-06-15T07:32:53Z</time>
      </trkpt>
      <trkpt lat="43.48755" lon="2.27169">
        <ele>651.9111328</ele>
        <time>2014-06-15T07:33:01Z</time>
      </trkpt>
      <trkpt lat="43.48749" lon="2.27168">
        <ele>653.3532715</ele>
        <time>2014-06-15T07:33:05Z</time>
      </trkpt>
      <trkpt lat="43.48736" lon="2.27167">
        <ele>657.1984863</ele>
        <time>2014-06-15T07:33:12Z</time>
      </trkpt>
      <trkpt lat="43.4872" lon="2.27163">
        <ele>650.949707</ele>
        <time>2014-06-15T07:33:20Z</time>
      </trkpt>
      <trkpt lat="43.48711" lon="2.27158">
        <ele>648.5463867</ele>
        <time>2014-06-15T07:33:26Z</time>
      </trkpt>
      <trkpt lat="43.48703" lon="2.27148">
        <ele>646.6240234</ele>
        <time>2014-06-15T07:33:32Z</time>
      </trkpt>
      <trkpt lat="43.48696" lon="2.27141">
        <ele>645.6625977</ele>
        <time>2014-06-15T07:33:38Z</time>
      </trkpt>
      <trkpt lat="43.48688" lon="2.27135">
        <ele>646.1433105</ele>
        <time>2014-06-15T07:33:44Z</time>
      </trkpt>
      <trkpt lat="43.48685" lon="2.27132">
        <ele>646.6240234</ele>
        <time>2014-06-15T07:33:46Z</time>
      </trkpt>
      <trkpt lat="43.48671" lon="2.27121">
        <ele>649.0270996</ele>
        <time>2014-06-15T07:33:55Z</time>
      </trkpt>
      <trkpt lat="43.48663" lon="2.27113">
        <ele>651.9111328</ele>
        <time>2014-06-15T07:34:01Z</time>
      </trkpt>
      <trkpt lat="43.4865" lon="2.27105">
        <ele>653.3532715</ele>
        <time>2014-06-15T07:34:09Z</time>
      </trkpt>
      <trkpt lat="43.48642" lon="2.271">
        <ele>653.8339844</ele>
        <time>2014-06-15T07:34:15Z</time>
      </trkpt>
      <trkpt lat="43.48636" lon="2.27098">
        <ele>652.8725586</ele>
        <time>2014-06-15T07:34:19Z</time>
      </trkpt>
      <trkpt lat="43.48626" lon="2.27094">
        <ele>650.949707</ele>
        <time>2014-06-15T07:34:25Z</time>
      </trkpt>
      <trkpt lat="43.48617" lon="2.27089">
        <ele>651.4304199</ele>
        <time>2014-06-15T07:34:30Z</time>
      </trkpt>
      <trkpt lat="43.4861" lon="2.27082">
        <ele>654.795166</ele>
        <time>2014-06-15T07:34:35Z</time>
      </trkpt>
      <trkpt lat="43.48601" lon="2.27069">
        <ele>652.3918457</ele>
        <time>2014-06-15T07:34:41Z</time>
      </trkpt>
      <trkpt lat="43.486" lon="2.2705">
        <ele>647.1044922</ele>
        <time>2014-06-15T07:34:47Z</time>
      </trkpt>
      <trkpt lat="43.48602" lon="2.27033">
        <ele>643.7399902</ele>
        <time>2014-06-15T07:34:53Z</time>
      </trkpt>
      <trkpt lat="43.48602" lon="2.27024">
        <ele>639.4140625</ele>
        <time>2014-06-15T07:34:57Z</time>
      </trkpt>
      <trkpt lat="43.48605" lon="2.27011">
        <ele>636.0495605</ele>
        <time>2014-06-15T07:35:03Z</time>
      </trkpt>
      <trkpt lat="43.48606" lon="2.26998">
        <ele>635.0881348</ele>
        <time>2014-06-15T07:35:09Z</time>
      </trkpt>
      <trkpt lat="43.48607" lon="2.26996">
        <ele>635.0881348</ele>
        <time>2014-06-15T07:35:10Z</time>
      </trkpt>
      <trkpt lat="43.48607" lon="2.26991">
        <ele>635.0881348</ele>
        <time>2014-06-15T07:35:12Z</time>
      </trkpt>
      <trkpt lat="43.48606" lon="2.26983">
        <ele>637.0107422</ele>
        <time>2014-06-15T07:35:16Z</time>
      </trkpt>
      <trkpt lat="43.48606" lon="2.26977">
        <ele>638.4528809</ele>
        <time>2014-06-15T07:35:18Z</time>
      </trkpt>
      <trkpt lat="43.48605" lon="2.26963">
        <ele>644.2207031</ele>
        <time>2014-06-15T07:35:22Z</time>
      </trkpt>
      <trkpt lat="43.48605" lon="2.26944">
        <ele>649.0270996</ele>
        <time>2014-06-15T07:35:29Z</time>
      </trkpt>
      <trkpt lat="43.48606" lon="2.26926">
        <ele>651.4304199</ele>
        <time>2014-06-15T07:35:36Z</time>
      </trkpt>
      <trkpt lat="43.48609" lon="2.26915">
        <ele>652.8725586</ele>
        <time>2014-06-15T07:35:41Z</time>
      </trkpt>
      <trkpt lat="43.4861" lon="2.26902">
        <ele>654.3146973</ele>
        <time>2014-06-15T07:35:46Z</time>
      </trkpt>
      <trkpt lat="43.48614" lon="2.26888">
        <ele>658.1599121</ele>
        <time>2014-06-15T07:35:51Z</time>
      </trkpt>
      <trkpt lat="43.48617" lon="2.26875">
        <ele>659.6018066</ele>
        <time>2014-06-15T07:35:56Z</time>
      </trkpt>
      <trkpt lat="43.48617" lon="2.26851">
        <ele>660.0822754</ele>
        <time>2014-06-15T07:36:04Z</time>
      </trkpt>
      <trkpt lat="43.48615" lon="2.26832">
        <ele>662.4855957</ele>
        <time>2014-06-15T07:36:11Z</time>
      </trkpt>
      <trkpt lat="43.4861" lon="2.26812">
        <ele>662.4855957</ele>
        <time>2014-06-15T07:36:18Z</time>
      </trkpt>
      <trkpt lat="43.48599" lon="2.268">
        <ele>660.5629883</ele>
        <time>2014-06-15T07:36:24Z</time>
      </trkpt>
      <trkpt lat="43.48583" lon="2.26792">
        <ele>662.4855957</ele>
        <time>2014-06-15T07:36:32Z</time>
      </trkpt>
      <trkpt lat="43.4857" lon="2.26791">
        <ele>666.3308105</ele>
        <time>2014-06-15T07:36:39Z</time>
      </trkpt>
      <trkpt lat="43.48554" lon="2.26792">
        <ele>666.3308105</ele>
        <time>2014-06-15T07:36:47Z</time>
      </trkpt>
      <trkpt lat="43.4854" lon="2.26797">
        <ele>667.2922363</ele>
        <time>2014-06-15T07:36:55Z</time>
      </trkpt>
      <trkpt lat="43.48529" lon="2.26807">
        <ele>669.2150879</ele>
        <time>2014-06-15T07:37:01Z</time>
      </trkpt>
      <trkpt lat="43.4852" lon="2.26818">
        <ele>674.0214844</ele>
        <time>2014-06-15T07:37:07Z</time>
      </trkpt>
      <trkpt lat="43.48509" lon="2.26829">
        <ele>676.9055176</ele>
        <time>2014-06-15T07:37:13Z</time>
      </trkpt>
      <trkpt lat="43.485" lon="2.26836">
        <ele>678.828125</ele>
        <time>2014-06-15T07:37:19Z</time>
      </trkpt>
      <trkpt lat="43.48484" lon="2.26848">
        <ele>676.9055176</ele>
        <time>2014-06-15T07:37:26Z</time>
      </trkpt>
      <trkpt lat="43.48468" lon="2.26855">
        <ele>672.5795898</ele>
        <time>2014-06-15T07:37:33Z</time>
      </trkpt>
      <trkpt lat="43.4845" lon="2.26868">
        <ele>675.4633789</ele>
        <time>2014-06-15T07:37:40Z</time>
      </trkpt>
      <trkpt lat="43.48432" lon="2.26876">
        <ele>675.4633789</ele>
        <time>2014-06-15T07:37:47Z</time>
      </trkpt>
      <trkpt lat="43.48419" lon="2.26885">
        <ele>674.9829102</ele>
        <time>2014-06-15T07:37:52Z</time>
      </trkpt>
      <trkpt lat="43.48402" lon="2.2689">
        <ele>672.5795898</ele>
        <time>2014-06-15T07:37:57Z</time>
      </trkpt>
      <trkpt lat="43.48386" lon="2.26883">
        <ele>668.734375</ele>
        <time>2014-06-15T07:38:02Z</time>
      </trkpt>
      <trkpt lat="43.48373" lon="2.26868">
        <ele>669.2150879</ele>
        <time>2014-06-15T07:38:07Z</time>
      </trkpt>
      <trkpt lat="43.48371" lon="2.26848">
        <ele>670.1762695</ele>
        <time>2014-06-15T07:38:12Z</time>
      </trkpt>
      <trkpt lat="43.48377" lon="2.26828">
        <ele>668.734375</ele>
        <time>2014-06-15T07:38:18Z</time>
      </trkpt>
      <trkpt lat="43.48378" lon="2.26807">
        <ele>667.2922363</ele>
        <time>2014-06-15T07:38:24Z</time>
      </trkpt>
      <trkpt lat="43.48372" lon="2.26783">
        <ele>666.8115234</ele>
        <time>2014-06-15T07:38:31Z</time>
      </trkpt>
      <trkpt lat="43.48363" lon="2.26754">
        <ele>664.4082031</ele>
        <time>2014-06-15T07:38:40Z</time>
      </trkpt>
      <trkpt lat="43.48353" lon="2.26723">
        <ele>664.888916</ele>
        <time>2014-06-15T07:38:49Z</time>
      </trkpt>
      <trkpt lat="43.48349" lon="2.26714">
        <ele>664.888916</ele>
        <time>2014-06-15T07:38:53Z</time>
      </trkpt>
      <trkpt lat="43.48343" lon="2.26701">
        <ele>663.9274902</ele>
        <time>2014-06-15T07:38:58Z</time>
      </trkpt>
      <trkpt lat="43.48334" lon="2.26684">
        <ele>662.9663086</ele>
        <time>2014-06-15T07:39:05Z</time>
      </trkpt>
      <trkpt lat="43.4833" lon="2.26669">
        <ele>661.0437012</ele>
        <time>2014-06-15T07:39:10Z</time>
      </trkpt>
      <trkpt lat="43.4833" lon="2.26656">
        <ele>660.0822754</ele>
        <time>2014-06-15T07:39:14Z</time>
      </trkpt>
      <trkpt lat="43.48336" lon="2.26632">
        <ele>656.7177734</ele>
        <time>2014-06-15T07:39:22Z</time>
      </trkpt>
      <trkpt lat="43.48338" lon="2.26612">
        <ele>657.6791992</ele>
        <time>2014-06-15T07:39:28Z</time>
      </trkpt>
      <trkpt lat="43.4834" lon="2.26588">
        <ele>661.5244141</ele>
        <time>2014-06-15T07:39:35Z</time>
      </trkpt>
      <trkpt lat="43.48338" lon="2.26569">
        <ele>665.3696289</ele>
        <time>2014-06-15T07:39:41Z</time>
      </trkpt>
      <trkpt lat="43.48336" lon="2.26558">
        <ele>670.6569824</ele>
        <time>2014-06-15T07:39:44Z</time>
      </trkpt>
      <trkpt lat="43.48327" lon="2.26532">
        <ele>678.828125</ele>
        <time>2014-06-15T07:39:52Z</time>
      </trkpt>
      <trkpt lat="43.48321" lon="2.26519">
        <ele>682.192627</ele>
        <time>2014-06-15T07:39:57Z</time>
      </trkpt>
      <trkpt lat="43.48315" lon="2.26502">
        <ele>680.7507324</ele>
        <time>2014-06-15T07:40:02Z</time>
      </trkpt>
      <trkpt lat="43.48312" lon="2.26486">
        <ele>678.3474121</ele>
        <time>2014-06-15T07:40:07Z</time>
      </trkpt>
      <trkpt lat="43.48306" lon="2.26469">
        <ele>677.3862305</ele>
        <time>2014-06-15T07:40:11Z</time>
      </trkpt>
      <trkpt lat="43.48297" lon="2.26446">
        <ele>677.8666992</ele>
        <time>2014-06-15T07:40:17Z</time>
      </trkpt>
      <trkpt lat="43.4829" lon="2.26429">
        <ele>677.8666992</ele>
        <time>2014-06-15T07:40:22Z</time>
      </trkpt>
      <trkpt lat="43.48282" lon="2.2641">
        <ele>678.828125</ele>
        <time>2014-06-15T07:40:28Z</time>
      </trkpt>
      <trkpt lat="43.48274" lon="2.26393">
        <ele>681.7119141</ele>
        <time>2014-06-15T07:40:34Z</time>
      </trkpt>
      <trkpt lat="43.48263" lon="2.26372">
        <ele>684.1154785</ele>
        <time>2014-06-15T07:40:41Z</time>
      </trkpt>
      <trkpt lat="43.48249" lon="2.26355">
        <ele>684.1154785</ele>
        <time>2014-06-15T07:40:48Z</time>
      </trkpt>
      <trkpt lat="43.48235" lon="2.2634">
        <ele>684.5961914</ele>
        <time>2014-06-15T07:40:55Z</time>
      </trkpt>
      <trkpt lat="43.48217" lon="2.26328">
        <ele>684.5961914</ele>
        <time>2014-06-15T07:41:02Z</time>
      </trkpt>
      <trkpt lat="43.48198" lon="2.26315">
        <ele>685.0769043</ele>
        <time>2014-06-15T07:41:09Z</time>
      </trkpt>
      <trkpt lat="43.48183" lon="2.26305">
        <ele>686.9992676</ele>
        <time>2014-06-15T07:41:15Z</time>
      </trkpt>
      <trkpt lat="43.48181" lon="2.26288">
        <ele>688.4414063</ele>
        <time>2014-06-15T07:41:20Z</time>
      </trkpt>
      <trkpt lat="43.48185" lon="2.26276">
        <ele>689.4025879</ele>
        <time>2014-06-15T07:41:25Z</time>
      </trkpt>
      <trkpt lat="43.4819" lon="2.26262">
        <ele>691.8059082</ele>
        <time>2014-06-15T07:41:31Z</time>
      </trkpt>
      <trkpt lat="43.48196" lon="2.2625">
        <ele>692.767334</ele>
        <time>2014-06-15T07:41:37Z</time>
      </trkpt>
      <trkpt lat="43.48207" lon="2.26236">
        <ele>694.2092285</ele>
        <time>2014-06-15T07:41:45Z</time>
      </trkpt>
      <trkpt lat="43.48218" lon="2.26226">
        <ele>695.651123</ele>
        <time>2014-06-15T07:41:51Z</time>
      </trkpt>
      <trkpt lat="43.48232" lon="2.26218">
        <ele>697.5737305</ele>
        <time>2014-06-15T07:41:58Z</time>
      </trkpt>
      <trkpt lat="43.48243" lon="2.26219">
        <ele>699.015625</ele>
        <time>2014-06-15T07:42:03Z</time>
      </trkpt>
      <trkpt lat="43.48256" lon="2.26227">
        <ele>699.9770508</ele>
        <time>2014-06-15T07:42:09Z</time>
      </trkpt>
      <trkpt lat="43.48268" lon="2.26232">
        <ele>699.9770508</ele>
        <time>2014-06-15T07:42:15Z</time>
      </trkpt>
      <trkpt lat="43.48279" lon="2.26227">
        <ele>700.9384766</ele>
        <time>2014-06-15T07:42:21Z</time>
      </trkpt>
      <trkpt lat="43.48284" lon="2.26214">
        <ele>699.4963379</ele>
        <time>2014-06-15T07:42:27Z</time>
      </trkpt>
      <trkpt lat="43.48281" lon="2.26201">
        <ele>699.9770508</ele>
        <time>2014-06-15T07:42:32Z</time>
      </trkpt>
      <trkpt lat="43.48276" lon="2.26185">
        <ele>699.9770508</ele>
        <time>2014-06-15T07:42:39Z</time>
      </trkpt>
      <trkpt lat="43.48273" lon="2.26172">
        <ele>701.4191895</ele>
        <time>2014-06-15T07:42:45Z</time>
      </trkpt>
      <trkpt lat="43.48272" lon="2.26164">
        <ele>703.8225098</ele>
        <time>2014-06-15T07:42:49Z</time>
      </trkpt>
      <trkpt lat="43.4827" lon="2.26144">
        <ele>701.4191895</ele>
        <time>2014-06-15T07:42:58Z</time>
      </trkpt>
      <trkpt lat="43.48269" lon="2.26134">
        <ele>699.015625</ele>
        <time>2014-06-15T07:43:02Z</time>
      </trkpt>
      <trkpt lat="43.4827" lon="2.26123">
        <ele>696.6125488</ele>
        <time>2014-06-15T07:43:08Z</time>
      </trkpt>
      <trkpt lat="43.4827" lon="2.26115">
        <ele>695.651123</ele>
        <time>2014-06-15T07:43:12Z</time>
      </trkpt>
      <trkpt lat="43.4827" lon="2.26102">
        <ele>696.6125488</ele>
        <time>2014-06-15T07:43:18Z</time>
      </trkpt>
      <trkpt lat="43.48268" lon="2.26093">
        <ele>696.6125488</ele>
        <time>2014-06-15T07:43:22Z</time>
      </trkpt>
      <trkpt lat="43.48263" lon="2.26072">
        <ele>694.6896973</ele>
        <time>2014-06-15T07:43:29Z</time>
      </trkpt>
      <trkpt lat="43.48259" lon="2.26057">
        <ele>693.7285156</ele>
        <time>2014-06-15T07:43:35Z</time>
      </trkpt>
      <trkpt lat="43.48254" lon="2.2604">
        <ele>694.2092285</ele>
        <time>2014-06-15T07:43:40Z</time>
      </trkpt>
      <trkpt lat="43.48248" lon="2.26018">
        <ele>694.2092285</ele>
        <time>2014-06-15T07:43:46Z</time>
      </trkpt>
      <trkpt lat="43.48246" lon="2.25992">
        <ele>694.6896973</ele>
        <time>2014-06-15T07:43:52Z</time>
      </trkpt>
      <trkpt lat="43.48247" lon="2.25969">
        <ele>695.651123</ele>
        <time>2014-06-15T07:43:57Z</time>
      </trkpt>
      <trkpt lat="43.4825" lon="2.25944">
        <ele>694.6896973</ele>
        <time>2014-06-15T07:44:02Z</time>
      </trkpt>
      <trkpt lat="43.48256" lon="2.25905">
        <ele>694.6896973</ele>
        <time>2014-06-15T07:44:09Z</time>
      </trkpt>
      <trkpt lat="43.48255" lon="2.25864">
        <ele>695.1704102</ele>
        <time>2014-06-15T07:44:17Z</time>
      </trkpt>
      <trkpt lat="43.48247" lon="2.25834">
        <ele>697.0930176</ele>
        <time>2014-06-15T07:44:23Z</time>
      </trkpt>
      <trkpt lat="43.48241" lon="2.25813">
        <ele>698.5349121</ele>
        <time>2014-06-15T07:44:28Z</time>
      </trkpt>
      <trkpt lat="43.48226" lon="2.25776">
        <ele>700.4580078</ele>
        <time>2014-06-15T07:44:36Z</time>
      </trkpt>
      <trkpt lat="43.48215" lon="2.25753">
        <ele>700.9384766</ele>
        <time>2014-06-15T07:44:42Z</time>
      </trkpt>
      <trkpt lat="43.48207" lon="2.25733">
        <ele>700.4580078</ele>
        <time>2014-06-15T07:44:47Z</time>
      </trkpt>
      <trkpt lat="43.48197" lon="2.25707">
        <ele>698.0544434</ele>
        <time>2014-06-15T07:44:52Z</time>
      </trkpt>
      <trkpt lat="43.48193" lon="2.25701">
        <ele>697.5737305</ele>
        <time>2014-06-15T07:44:53Z</time>
      </trkpt>
      <trkpt lat="43.48189" lon="2.25672">
        <ele>697.0930176</ele>
        <time>2014-06-15T07:44:57Z</time>
      </trkpt>
      <trkpt lat="43.48205" lon="2.25652">
        <ele>694.6896973</ele>
        <time>2014-06-15T07:45:00Z</time>
      </trkpt>
      <trkpt lat="43.48231" lon="2.25644">
        <ele>694.6896973</ele>
        <time>2014-06-15T07:45:04Z</time>
      </trkpt>
      <trkpt lat="43.48253" lon="2.25651">
        <ele>695.1704102</ele>
        <time>2014-06-15T07:45:08Z</time>
      </trkpt>
      <trkpt lat="43.48271" lon="2.25663">
        <ele>695.1704102</ele>
        <time>2014-06-15T07:45:12Z</time>
      </trkpt>
      <trkpt lat="43.48294" lon="2.25666">
        <ele>699.015625</ele>
        <time>2014-06-15T07:45:18Z</time>
      </trkpt>
      <trkpt lat="43.48297" lon="2.25664">
        <ele>699.4963379</ele>
        <time>2014-06-15T07:45:19Z</time>
      </trkpt>
      <trkpt lat="43.48325" lon="2.25651">
        <ele>699.015625</ele>
        <time>2014-06-15T07:45:26Z</time>
      </trkpt>
      <trkpt lat="43.48341" lon="2.25655">
        <ele>699.9770508</ele>
        <time>2014-06-15T07:45:31Z</time>
      </trkpt>
      <trkpt lat="43.48353" lon="2.25665">
        <ele>702.861084</ele>
        <time>2014-06-15T07:45:36Z</time>
      </trkpt>
      <trkpt lat="43.48367" lon="2.25674">
        <ele>702.3803711</ele>
        <time>2014-06-15T07:45:42Z</time>
      </trkpt>
      <trkpt lat="43.48378" lon="2.25677">
        <ele>704.3032227</ele>
        <time>2014-06-15T07:45:47Z</time>
      </trkpt>
      <trkpt lat="43.48385" lon="2.25675">
        <ele>704.3032227</ele>
        <time>2014-06-15T07:45:50Z</time>
      </trkpt>
      <trkpt lat="43.48399" lon="2.2567">
        <ele>705.2644043</ele>
        <time>2014-06-15T07:45:55Z</time>
      </trkpt>
      <trkpt lat="43.48414" lon="2.2566">
        <ele>706.2255859</ele>
        <time>2014-06-15T07:46:00Z</time>
      </trkpt>
      <trkpt lat="43.48428" lon="2.25651">
        <ele>706.7062988</ele>
        <time>2014-06-15T07:46:05Z</time>
      </trkpt>
      <trkpt lat="43.48434" lon="2.25649">
        <ele>705.7451172</ele>
        <time>2014-06-15T07:46:08Z</time>
      </trkpt>
      <trkpt lat="43.48444" lon="2.25659">
        <ele>704.7836914</ele>
        <time>2014-06-15T07:46:13Z</time>
      </trkpt>
      <trkpt lat="43.48453" lon="2.25678">
        <ele>704.7836914</ele>
        <time>2014-06-15T07:46:19Z</time>
      </trkpt>
      <trkpt lat="43.48465" lon="2.25705">
        <ele>701.8999023</ele>
        <time>2014-06-15T07:46:25Z</time>
      </trkpt>
      <trkpt lat="43.48471" lon="2.2572">
        <ele>699.4963379</ele>
        <time>2014-06-15T07:46:28Z</time>
      </trkpt>
      <trkpt lat="43.4848" lon="2.25737">
        <ele>698.0544434</ele>
        <time>2014-06-15T07:46:32Z</time>
      </trkpt>
      <trkpt lat="43.48491" lon="2.25747">
        <ele>697.5737305</ele>
        <time>2014-06-15T07:46:35Z</time>
      </trkpt>
      <trkpt lat="43.48514" lon="2.25749">
        <ele>697.0930176</ele>
        <time>2014-06-15T07:46:40Z</time>
      </trkpt>
      <trkpt lat="43.48548" lon="2.25737">
        <ele>696.6125488</ele>
        <time>2014-06-15T07:46:46Z</time>
      </trkpt>
      <trkpt lat="43.48567" lon="2.25731">
        <ele>698.5349121</ele>
        <time>2014-06-15T07:46:49Z</time>
      </trkpt>
      <trkpt lat="43.48594" lon="2.25705">
        <ele>697.0930176</ele>
        <time>2014-06-15T07:46:54Z</time>
      </trkpt>
      <trkpt lat="43.48597" lon="2.25698">
        <ele>696.1318359</ele>
        <time>2014-06-15T07:46:55Z</time>
      </trkpt>
      <trkpt lat="43.48608" lon="2.25665">
        <ele>691.8059082</ele>
        <time>2014-06-15T07:46:59Z</time>
      </trkpt>
      <trkpt lat="43.48614" lon="2.25628">
        <ele>691.8059082</ele>
        <time>2014-06-15T07:47:03Z</time>
      </trkpt>
      <trkpt lat="43.48618" lon="2.25608">
        <ele>691.3251953</ele>
        <time>2014-06-15T07:47:05Z</time>
      </trkpt>
      <trkpt lat="43.48618" lon="2.25586">
        <ele>690.3640137</ele>
        <time>2014-06-15T07:47:07Z</time>
      </trkpt>
      <trkpt lat="43.48621" lon="2.25529">
        <ele>687.9606934</ele>
        <time>2014-06-15T07:47:12Z</time>
      </trkpt>
      <trkpt lat="43.48622" lon="2.25492">
        <ele>686.9992676</ele>
        <time>2014-06-15T07:47:15Z</time>
      </trkpt>
      <trkpt lat="43.4862" lon="2.25458">
        <ele>686.5187988</ele>
        <time>2014-06-15T07:47:18Z</time>
      </trkpt>
      <trkpt lat="43.48612" lon="2.25415">
        <ele>686.0380859</ele>
        <time>2014-06-15T07:47:22Z</time>
      </trkpt>
      <trkpt lat="43.48597" lon="2.25383">
        <ele>685.557373</ele>
        <time>2014-06-15T07:47:25Z</time>
      </trkpt>
      <trkpt lat="43.48561" lon="2.25343">
        <ele>679.3085938</ele>
        <time>2014-06-15T07:47:30Z</time>
      </trkpt>
      <trkpt lat="43.48505" lon="2.25304">
        <ele>674.9829102</ele>
        <time>2014-06-15T07:47:36Z</time>
      </trkpt>
      <trkpt lat="43.4849" lon="2.25267">
        <ele>673.0603027</ele>
        <time>2014-06-15T07:47:40Z</time>
      </trkpt>
      <trkpt lat="43.48493" lon="2.25243">
        <ele>672.098877</ele>
        <time>2014-06-15T07:47:42Z</time>
      </trkpt>
      <trkpt lat="43.48493" lon="2.25229">
        <ele>671.1376953</ele>
        <time>2014-06-15T07:47:43Z</time>
      </trkpt>
      <trkpt lat="43.48508" lon="2.25193">
        <ele>666.8115234</ele>
        <time>2014-06-15T07:47:48Z</time>
      </trkpt>
      <trkpt lat="43.48527" lon="2.25194">
        <ele>667.7727051</ele>
        <time>2014-06-15T07:47:51Z</time>
      </trkpt>
      <trkpt lat="43.48548" lon="2.252">
        <ele>670.6569824</ele>
        <time>2014-06-15T07:47:55Z</time>
      </trkpt>
      <trkpt lat="43.48561" lon="2.25205">
        <ele>674.5021973</ele>
        <time>2014-06-15T07:47:58Z</time>
      </trkpt>
      <trkpt lat="43.48574" lon="2.25206">
        <ele>674.9829102</ele>
        <time>2014-06-15T07:48:01Z</time>
      </trkpt>
      <trkpt lat="43.48586" lon="2.25203">
        <ele>675.9440918</ele>
        <time>2014-06-15T07:48:05Z</time>
      </trkpt>
      <trkpt lat="43.486" lon="2.25194">
        <ele>678.828125</ele>
        <time>2014-06-15T07:48:12Z</time>
      </trkpt>
      <trkpt lat="43.48609" lon="2.25185">
        <ele>678.3474121</ele>
        <time>2014-06-15T07:48:16Z</time>
      </trkpt>
      <trkpt lat="43.48628" lon="2.25166">
        <ele>681.2314453</ele>
        <time>2014-06-15T07:48:24Z</time>
      </trkpt>
      <trkpt lat="43.48639" lon="2.25154">
        <ele>682.192627</ele>
        <time>2014-06-15T07:48:30Z</time>
      </trkpt>
      <trkpt lat="43.48644" lon="2.2515">
        <ele>682.192627</ele>
        <time>2014-06-15T07:48:32Z</time>
      </trkpt>
      <trkpt lat="43.48655" lon="2.25137">
        <ele>682.192627</ele>
        <time>2014-06-15T07:48:38Z</time>
      </trkpt>
      <trkpt lat="43.48667" lon="2.25123">
        <ele>683.6345215</ele>
        <time>2014-06-15T07:48:45Z</time>
      </trkpt>
      <trkpt lat="43.48669" lon="2.25121">
        <ele>683.6345215</ele>
        <time>2014-06-15T07:48:46Z</time>
      </trkpt>
      <trkpt lat="43.48677" lon="2.25111">
        <ele>685.0769043</ele>
        <time>2014-06-15T07:48:52Z</time>
      </trkpt>
      <trkpt lat="43.48677" lon="2.25109">
        <ele>685.0769043</ele>
        <time>2014-06-15T07:48:58Z</time>
      </trkpt>
      <trkpt lat="43.48679" lon="2.25111">
        <ele>685.0769043</ele>
        <time>2014-06-15T07:49:06Z</time>
      </trkpt>
      <trkpt lat="43.48679" lon="2.25111">
        <ele>685.0769043</ele>
        <time>2014-06-15T07:49:10Z</time>
      </trkpt>
      <trkpt lat="43.48679" lon="2.25111">
        <ele>685.0769043</ele>
        <time>2014-06-15T07:49:15Z</time>
      </trkpt>
      <trkpt lat="43.48677" lon="2.25117">
        <ele>687.9606934</ele>
        <time>2014-06-15T07:49:20Z</time>
      </trkpt>
      <trkpt lat="43.48675" lon="2.2512">
        <ele>689.8833008</ele>
        <time>2014-06-15T07:49:26Z</time>
      </trkpt>
      <trkpt lat="43.48677" lon="2.25115">
        <ele>686.0380859</ele>
        <time>2014-06-15T07:49:31Z</time>
      </trkpt>
      <trkpt lat="43.48677" lon="2.25112">
        <ele>682.6733398</ele>
        <time>2014-06-15T07:49:39Z</time>
      </trkpt>
      <trkpt lat="43.48673" lon="2.25118">
        <ele>684.5961914</ele>
        <time>2014-06-15T07:49:55Z</time>
      </trkpt>
      <trkpt lat="43.48674" lon="2.25114">
        <ele>682.6733398</ele>
        <time>2014-06-15T07:50:12Z</time>
      </trkpt>
      <trkpt lat="43.48674" lon="2.25111">
        <ele>678.828125</ele>
        <time>2014-06-15T07:50:26Z</time>
      </trkpt>
      <trkpt lat="43.48676" lon="2.25111">
        <ele>683.6345215</ele>
        <time>2014-06-15T07:50:32Z</time>
      </trkpt>
      <trkpt lat="43.48677" lon="2.25111">
        <ele>683.1538086</ele>
        <time>2014-06-15T07:50:42Z</time>
      </trkpt>
      <trkpt lat="43.48678" lon="2.25111">
        <ele>684.1154785</ele>
        <time>2014-06-15T07:50:46Z</time>
      </trkpt>
      <trkpt lat="43.48684" lon="2.25112">
        <ele>690.3640137</ele>
        <time>2014-06-15T07:51:00Z</time>
      </trkpt>
      <trkpt lat="43.48686" lon="2.25108">
        <ele>687.9606934</ele>
        <time>2014-06-15T07:51:21Z</time>
      </trkpt>
      <trkpt lat="43.48683" lon="2.25107">
        <ele>683.6345215</ele>
        <time>2014-06-15T07:51:35Z</time>
      </trkpt>
      <trkpt lat="43.4868" lon="2.25104">
        <ele>677.3862305</ele>
        <time>2014-06-15T07:51:42Z</time>
      </trkpt>
      <trkpt lat="43.48677" lon="2.25105">
        <ele>675.9440918</ele>
        <time>2014-06-15T07:51:54Z</time>
      </trkpt>
      <trkpt lat="43.48677" lon="2.25107">
        <ele>678.828125</ele>
        <time>2014-06-15T07:52:01Z</time>
      </trkpt>
      <trkpt lat="43.48681" lon="2.25109">
        <ele>683.1538086</ele>
        <time>2014-06-15T07:52:06Z</time>
      </trkpt>
      <trkpt lat="43.48683" lon="2.25116">
        <ele>693.2478027</ele>
        <time>2014-06-15T07:52:15Z</time>
      </trkpt>
      <trkpt lat="43.48687" lon="2.25117">
        <ele>699.015625</ele>
        <time>2014-06-15T07:52:23Z</time>
      </trkpt>
      <trkpt lat="43.48693" lon="2.25116">
        <ele>705.2644043</ele>
        <time>2014-06-15T07:52:34Z</time>
      </trkpt>
      <trkpt lat="43.48692" lon="2.25115">
        <ele>702.3803711</ele>
        <time>2014-06-15T07:52:49Z</time>
      </trkpt>
      <trkpt lat="43.4869" lon="2.25114">
        <ele>699.9770508</ele>
        <time>2014-06-15T07:52:50Z</time>
      </trkpt>
      <trkpt lat="43.48681" lon="2.25112">
        <ele>689.8833008</ele>
        <time>2014-06-15T07:52:59Z</time>
      </trkpt>
      <trkpt lat="43.48683" lon="2.25109">
        <ele>688.4414063</ele>
        <time>2014-06-15T07:53:09Z</time>
      </trkpt>
      <trkpt lat="43.48682" lon="2.25108">
        <ele>686.0380859</ele>
        <time>2014-06-15T07:53:17Z</time>
      </trkpt>
      <trkpt lat="43.48678" lon="2.25107">
        <ele>682.192627</ele>
        <time>2014-06-15T07:53:32Z</time>
      </trkpt>
      <trkpt lat="43.48678" lon="2.25107">
        <ele>685.0769043</ele>
        <time>2014-06-15T07:53:43Z</time>
      </trkpt>
      <trkpt lat="43.48687" lon="2.25109">
        <ele>695.1704102</ele>
        <time>2014-06-15T07:53:55Z</time>
      </trkpt>
      <trkpt lat="43.48687" lon="2.2511">
        <ele>696.1318359</ele>
        <time>2014-06-15T07:54:02Z</time>
      </trkpt>
      <trkpt lat="43.48681" lon="2.25109">
        <ele>691.3251953</ele>
        <time>2014-06-15T07:54:07Z</time>
      </trkpt>
      <trkpt lat="43.48684" lon="2.25109">
        <ele>691.3251953</ele>
        <time>2014-06-15T07:54:23Z</time>
      </trkpt>
      <trkpt lat="43.48685" lon="2.25103">
        <ele>685.557373</ele>
        <time>2014-06-15T07:54:41Z</time>
      </trkpt>
      <trkpt lat="43.4869" lon="2.25108">
        <ele>688.9221191</ele>
        <time>2014-06-15T07:54:54Z</time>
      </trkpt>
      <trkpt lat="43.4869" lon="2.25109">
        <ele>689.8833008</ele>
        <time>2014-06-15T07:55:10Z</time>
      </trkpt>
      <trkpt lat="43.48684" lon="2.25109">
        <ele>687.9606934</ele>
        <time>2014-06-15T07:55:16Z</time>
      </trkpt>
      <trkpt lat="43.48679" lon="2.2511">
        <ele>685.0769043</ele>
        <time>2014-06-15T07:55:20Z</time>
      </trkpt>
      <trkpt lat="43.48682" lon="2.2511">
        <ele>688.9221191</ele>
        <time>2014-06-15T07:55:30Z</time>
      </trkpt>
      <trkpt lat="43.48682" lon="2.25108">
        <ele>689.4025879</ele>
        <time>2014-06-15T07:55:36Z</time>
      </trkpt>
      <trkpt lat="43.4869" lon="2.25109">
        <ele>697.0930176</ele>
        <time>2014-06-15T07:55:45Z</time>
      </trkpt>
      <trkpt lat="43.48688" lon="2.25112">
        <ele>698.0544434</ele>
        <time>2014-06-15T07:55:54Z</time>
      </trkpt>
      <trkpt lat="43.48689" lon="2.2511">
        <ele>693.2478027</ele>
        <time>2014-06-15T07:56:06Z</time>
      </trkpt>
      <trkpt lat="43.48689" lon="2.2511">
        <ele>692.767334</ele>
        <time>2014-06-15T07:56:07Z</time>
      </trkpt>
      <trkpt lat="43.48687" lon="2.25105">
        <ele>688.4414063</ele>
        <time>2014-06-15T07:56:16Z</time>
      </trkpt>
      <trkpt lat="43.48682" lon="2.25104">
        <ele>686.9992676</ele>
        <time>2014-06-15T07:56:32Z</time>
      </trkpt>
      <trkpt lat="43.48676" lon="2.25108">
        <ele>685.557373</ele>
        <time>2014-06-15T07:56:38Z</time>
      </trkpt>
      <trkpt lat="43.48676" lon="2.2511">
        <ele>683.6345215</ele>
        <time>2014-06-15T07:57:02Z</time>
      </trkpt>
      <trkpt lat="43.48684" lon="2.25109">
        <ele>689.4025879</ele>
        <time>2014-06-15T07:57:14Z</time>
      </trkpt>
      <trkpt lat="43.48681" lon="2.25111">
        <ele>691.3251953</ele>
        <time>2014-06-15T07:57:27Z</time>
      </trkpt>
      <trkpt lat="43.48682" lon="2.25112">
        <ele>692.767334</ele>
        <time>2014-06-15T07:57:34Z</time>
      </trkpt>
      <trkpt lat="43.48677" lon="2.25112">
        <ele>690.3640137</ele>
        <time>2014-06-15T07:57:39Z</time>
      </trkpt>
      <trkpt lat="43.48681" lon="2.25113">
        <ele>694.6896973</ele>
        <time>2014-06-15T07:57:46Z</time>
      </trkpt>
      <trkpt lat="43.4868" lon="2.25118">
        <ele>699.015625</ele>
        <time>2014-06-15T07:57:54Z</time>
      </trkpt>
      <trkpt lat="43.48678" lon="2.25121">
        <ele>700.4580078</ele>
        <time>2014-06-15T07:57:59Z</time>
      </trkpt>
      <trkpt lat="43.48678" lon="2.25114">
        <ele>694.6896973</ele>
        <time>2014-06-15T07:58:08Z</time>
      </trkpt>
      <trkpt lat="43.4868" lon="2.25111">
        <ele>692.2866211</ele>
        <time>2014-06-15T07:58:20Z</time>
      </trkpt>
      <trkpt lat="43.48678" lon="2.2511">
        <ele>689.8833008</ele>
        <time>2014-06-15T07:58:30Z</time>
      </trkpt>
      <trkpt lat="43.48676" lon="2.2511">
        <ele>693.2478027</ele>
        <time>2014-06-15T07:58:53Z</time>
      </trkpt>
      <trkpt lat="43.48667" lon="2.25109">
        <ele>690.3640137</ele>
        <time>2014-06-15T07:58:56Z</time>
      </trkpt>
      <trkpt lat="43.48657" lon="2.25108">
        <ele>686.9992676</ele>
        <time>2014-06-15T07:59:00Z</time>
      </trkpt>
      <trkpt lat="43.48654" lon="2.25108">
        <ele>687.4799805</ele>
        <time>2014-06-15T07:59:01Z</time>
      </trkpt>
      <trkpt lat="43.48638" lon="2.25113">
        <ele>688.9221191</ele>
        <time>2014-06-15T07:59:06Z</time>
      </trkpt>
      <trkpt lat="43.48626" lon="2.25112">
        <ele>690.8444824</ele>
        <time>2014-06-15T07:59:10Z</time>
      </trkpt>
      <trkpt lat="43.48624" lon="2.25111">
        <ele>692.2866211</ele>
        <time>2014-06-15T07:59:12Z</time>
      </trkpt>
      <trkpt lat="43.48612" lon="2.25105">
        <ele>693.7285156</ele>
        <time>2014-06-15T07:59:17Z</time>
      </trkpt>
      <trkpt lat="43.4861" lon="2.25103">
        <ele>693.2478027</ele>
        <time>2014-06-15T07:59:18Z</time>
      </trkpt>
      <trkpt lat="43.486" lon="2.25105">
        <ele>692.767334</ele>
        <time>2014-06-15T07:59:22Z</time>
      </trkpt>
      <trkpt lat="43.4859" lon="2.25101">
        <ele>692.767334</ele>
        <time>2014-06-15T07:59:26Z</time>
      </trkpt>
      <trkpt lat="43.48587" lon="2.251">
        <ele>696.1318359</ele>
        <time>2014-06-15T07:59:28Z</time>
      </trkpt>
      <trkpt lat="43.48579" lon="2.25102">
        <ele>698.0544434</ele>
        <time>2014-06-15T07:59:32Z</time>
      </trkpt>
      <trkpt lat="43.48568" lon="2.25099">
        <ele>698.0544434</ele>
        <time>2014-06-15T07:59:38Z</time>
      </trkpt>
      <trkpt lat="43.4856" lon="2.25093">
        <ele>694.2092285</ele>
        <time>2014-06-15T07:59:43Z</time>
      </trkpt>
      <trkpt lat="43.48551" lon="2.25086">
        <ele>694.2092285</ele>
        <time>2014-06-15T07:59:49Z</time>
      </trkpt>
      <trkpt lat="43.48547" lon="2.25082">
        <ele>694.6896973</ele>
        <time>2014-06-15T07:59:52Z</time>
      </trkpt>
      <trkpt lat="43.48542" lon="2.2508">
        <ele>703.8225098</ele>
        <time>2014-06-15T07:59:59Z</time>
      </trkpt>
      <trkpt lat="43.48537" lon="2.25089">
        <ele>714.8774414</ele>
        <time>2014-06-15T08:00:06Z</time>
      </trkpt>
      <trkpt lat="43.48537" lon="2.25085">
        <ele>715.8388672</ele>
        <time>2014-06-15T08:00:13Z</time>
      </trkpt>
      <trkpt lat="43.48538" lon="2.25085">
        <ele>715.3581543</ele>
        <time>2014-06-15T08:00:16Z</time>
      </trkpt>
      <trkpt lat="43.48537" lon="2.25085">
        <ele>714.8774414</ele>
        <time>2014-06-15T08:00:23Z</time>
      </trkpt>
      <trkpt lat="43.48537" lon="2.25085">
        <ele>719.2036133</ele>
        <time>2014-06-15T08:00:29Z</time>
      </trkpt>
      <trkpt lat="43.48534" lon="2.25078">
        <ele>702.3803711</ele>
        <time>2014-06-15T08:00:38Z</time>
      </trkpt>
      <trkpt lat="43.48527" lon="2.25076">
        <ele>698.0544434</ele>
        <time>2014-06-15T08:00:44Z</time>
      </trkpt>
      <trkpt lat="43.48522" lon="2.25073">
        <ele>696.6125488</ele>
        <time>2014-06-15T08:00:49Z</time>
      </trkpt>
      <trkpt lat="43.48519" lon="2.25071">
        <ele>694.6896973</ele>
        <time>2014-06-15T08:00:51Z</time>
      </trkpt>
      <trkpt lat="43.48513" lon="2.25064">
        <ele>691.3251953</ele>
        <time>2014-06-15T08:00:57Z</time>
      </trkpt>
      <trkpt lat="43.48503" lon="2.25058">
        <ele>693.2478027</ele>
        <time>2014-06-15T08:01:04Z</time>
      </trkpt>
      <trkpt lat="43.48494" lon="2.25055">
        <ele>693.2478027</ele>
        <time>2014-06-15T08:01:09Z</time>
      </trkpt>
      <trkpt lat="43.48481" lon="2.25052">
        <ele>690.3640137</ele>
        <time>2014-06-15T08:01:16Z</time>
      </trkpt>
      <trkpt lat="43.48463" lon="2.25047">
        <ele>694.2092285</ele>
        <time>2014-06-15T08:01:23Z</time>
      </trkpt>
      <trkpt lat="43.48446" lon="2.25041">
        <ele>694.2092285</ele>
        <time>2014-06-15T08:01:30Z</time>
      </trkpt>
      <trkpt lat="43.48437" lon="2.25036">
        <ele>693.2478027</ele>
        <time>2014-06-15T08:01:35Z</time>
      </trkpt>
      <trkpt lat="43.48422" lon="2.25032">
        <ele>693.7285156</ele>
        <time>2014-06-15T08:01:41Z</time>
      </trkpt>
      <trkpt lat="43.48409" lon="2.2503">
        <ele>695.651123</ele>
        <time>2014-06-15T08:01:46Z</time>
      </trkpt>
      <trkpt lat="43.48398" lon="2.2503">
        <ele>695.651123</ele>
        <time>2014-06-15T08:01:50Z</time>
      </trkpt>
      <trkpt lat="43.48382" lon="2.25024">
        <ele>697.0930176</ele>
        <time>2014-06-15T08:01:55Z</time>
      </trkpt>
      <trkpt lat="43.48369" lon="2.2502">
        <ele>694.6896973</ele>
        <time>2014-06-15T08:01:59Z</time>
      </trkpt>
      <trkpt lat="43.48357" lon="2.25017">
        <ele>697.5737305</ele>
        <time>2014-06-15T08:02:03Z</time>
      </trkpt>
      <trkpt lat="43.48341" lon="2.25015">
        <ele>695.651123</ele>
        <time>2014-06-15T08:02:08Z</time>
      </trkpt>
      <trkpt lat="43.48327" lon="2.25012">
        <ele>698.5349121</ele>
        <time>2014-06-15T08:02:12Z</time>
      </trkpt>
      <trkpt lat="43.48311" lon="2.24999">
        <ele>697.0930176</ele>
        <time>2014-06-15T08:02:17Z</time>
      </trkpt>
      <trkpt lat="43.48296" lon="2.24987">
        <ele>693.7285156</ele>
        <time>2014-06-15T08:02:22Z</time>
      </trkpt>
      <trkpt lat="43.48285" lon="2.24978">
        <ele>690.3640137</ele>
        <time>2014-06-15T08:02:27Z</time>
      </trkpt>
      <trkpt lat="43.48274" lon="2.24966">
        <ele>691.8059082</ele>
        <time>2014-06-15T08:02:32Z</time>
      </trkpt>
      <trkpt lat="43.4826" lon="2.24951">
        <ele>691.3251953</ele>
        <time>2014-06-15T08:02:38Z</time>
      </trkpt>
      <trkpt lat="43.48247" lon="2.24941">
        <ele>692.2866211</ele>
        <time>2014-06-15T08:02:44Z</time>
      </trkpt>
      <trkpt lat="43.48234" lon="2.24933">
        <ele>702.3803711</ele>
        <time>2014-06-15T08:02:49Z</time>
      </trkpt>
      <trkpt lat="43.48225" lon="2.24927">
        <ele>707.1870117</ele>
        <time>2014-06-15T08:02:53Z</time>
      </trkpt>
      <trkpt lat="43.48216" lon="2.24923">
        <ele>708.1484375</ele>
        <time>2014-06-15T08:02:58Z</time>
      </trkpt>
      <trkpt lat="43.48208" lon="2.24922">
        <ele>709.1096191</ele>
        <time>2014-06-15T08:03:02Z</time>
      </trkpt>
      <trkpt lat="43.48203" lon="2.24919">
        <ele>707.1870117</ele>
        <time>2014-06-15T08:03:08Z</time>
      </trkpt>
      <trkpt lat="43.48207" lon="2.24918">
        <ele>708.6289063</ele>
        <time>2014-06-15T08:03:13Z</time>
      </trkpt>
      <trkpt lat="43.48205" lon="2.2492">
        <ele>709.590332</ele>
        <time>2014-06-15T08:03:16Z</time>
      </trkpt>
      <trkpt lat="43.48207" lon="2.24913">
        <ele>707.6677246</ele>
        <time>2014-06-15T08:03:22Z</time>
      </trkpt>
      <trkpt lat="43.48207" lon="2.24916">
        <ele>711.5129395</ele>
        <time>2014-06-15T08:03:25Z</time>
      </trkpt>
      <trkpt lat="43.48208" lon="2.2492">
        <ele>716.800293</ele>
        <time>2014-06-15T08:03:28Z</time>
      </trkpt>
      <trkpt lat="43.48204" lon="2.24922">
        <ele>717.7614746</ele>
        <time>2014-06-15T08:03:32Z</time>
      </trkpt>
      <trkpt lat="43.48197" lon="2.24922">
        <ele>717.7614746</ele>
        <time>2014-06-15T08:03:36Z</time>
      </trkpt>
      <trkpt lat="43.48186" lon="2.24925">
        <ele>715.3581543</ele>
        <time>2014-06-15T08:03:41Z</time>
      </trkpt>
      <trkpt lat="43.48179" lon="2.24925">
        <ele>714.3967285</ele>
        <time>2014-06-15T08:03:44Z</time>
      </trkpt>
      <trkpt lat="43.48174" lon="2.24926">
        <ele>713.9160156</ele>
        <time>2014-06-15T08:03:47Z</time>
      </trkpt>
      <trkpt lat="43.48172" lon="2.24927">
        <ele>714.3967285</ele>
        <time>2014-06-15T08:03:48Z</time>
      </trkpt>
      <trkpt lat="43.48166" lon="2.24931">
        <ele>716.800293</ele>
        <time>2014-06-15T08:03:52Z</time>
      </trkpt>
      <trkpt lat="43.48161" lon="2.24933">
        <ele>716.800293</ele>
        <time>2014-06-15T08:03:56Z</time>
      </trkpt>
      <trkpt lat="43.4816" lon="2.24933">
        <ele>716.800293</ele>
        <time>2014-06-15T08:03:59Z</time>
      </trkpt>
      <trkpt lat="43.48158" lon="2.24935">
        <ele>717.7614746</ele>
        <time>2014-06-15T08:04:01Z</time>
      </trkpt>
      <trkpt lat="43.48148" lon="2.24941">
        <ele>719.6843262</ele>
        <time>2014-06-15T08:04:10Z</time>
      </trkpt>
      <trkpt lat="43.48147" lon="2.2494">
        <ele>719.2036133</ele>
        <time>2014-06-15T08:04:12Z</time>
      </trkpt>
      <trkpt lat="43.4814" lon="2.24939">
        <ele>719.6843262</ele>
        <time>2014-06-15T08:04:19Z</time>
      </trkpt>
      <trkpt lat="43.48133" lon="2.2494">
        <ele>720.6455078</ele>
        <time>2014-06-15T08:04:25Z</time>
      </trkpt>
      <trkpt lat="43.48125" lon="2.24939">
        <ele>723.0488281</ele>
        <time>2014-06-15T08:04:30Z</time>
      </trkpt>
      <trkpt lat="43.48119" lon="2.24946">
        <ele>725.4519043</ele>
        <time>2014-06-15T08:04:36Z</time>
      </trkpt>
      <trkpt lat="43.48119" lon="2.24947">
        <ele>725.9326172</ele>
        <time>2014-06-15T08:04:40Z</time>
      </trkpt>
      <trkpt lat="43.48119" lon="2.24948">
        <ele>727.8552246</ele>
        <time>2014-06-15T08:04:42Z</time>
      </trkpt>
      <trkpt lat="43.48118" lon="2.24949">
        <ele>728.8166504</ele>
        <time>2014-06-15T08:04:43Z</time>
      </trkpt>
      <trkpt lat="43.48118" lon="2.24948">
        <ele>728.3359375</ele>
        <time>2014-06-15T08:04:46Z</time>
      </trkpt>
      <trkpt lat="43.4812" lon="2.24942">
        <ele>722.5681152</ele>
        <time>2014-06-15T08:04:49Z</time>
      </trkpt>
      <trkpt lat="43.48118" lon="2.24943">
        <ele>720.1647949</ele>
        <time>2014-06-15T08:04:54Z</time>
      </trkpt>
      <trkpt lat="43.48118" lon="2.24942">
        <ele>722.0874023</ele>
        <time>2014-06-15T08:05:01Z</time>
      </trkpt>
      <trkpt lat="43.48116" lon="2.24944">
        <ele>725.4519043</ele>
        <time>2014-06-15T08:05:05Z</time>
      </trkpt>
      <trkpt lat="43.48116" lon="2.24943">
        <ele>724.9714355</ele>
        <time>2014-06-15T08:05:07Z</time>
      </trkpt>
      <trkpt lat="43.48117" lon="2.24942">
        <ele>724.0100098</ele>
        <time>2014-06-15T08:05:11Z</time>
      </trkpt>
      <trkpt lat="43.48119" lon="2.24941">
        <ele>730.7392578</ele>
        <time>2014-06-15T08:05:18Z</time>
      </trkpt>
      <trkpt lat="43.4812" lon="2.24939">
        <ele>731.2199707</ele>
        <time>2014-06-15T08:05:22Z</time>
      </trkpt>
      <trkpt lat="43.4811" lon="2.24944">
        <ele>727.3747559</ele>
        <time>2014-06-15T08:05:27Z</time>
      </trkpt>
      <trkpt lat="43.48101" lon="2.24948">
        <ele>726.894043</ele>
        <time>2014-06-15T08:05:32Z</time>
      </trkpt>
      <trkpt lat="43.48095" lon="2.24954">
        <ele>724.4907227</ele>
        <time>2014-06-15T08:05:38Z</time>
      </trkpt>
      <trkpt lat="43.48087" lon="2.24955">
        <ele>718.2421875</ele>
        <time>2014-06-15T08:05:44Z</time>
      </trkpt>
      <trkpt lat="43.48082" lon="2.24957">
        <ele>720.1647949</ele>
        <time>2014-06-15T08:05:48Z</time>
      </trkpt>
      <trkpt lat="43.48082" lon="2.24957">
        <ele>717.7614746</ele>
        <time>2014-06-15T08:06:00Z</time>
      </trkpt>
      <trkpt lat="43.48082" lon="2.24957">
        <ele>717.2810059</ele>
        <time>2014-06-15T08:06:02Z</time>
      </trkpt>
      <trkpt lat="43.4808" lon="2.2496">
        <ele>719.6843262</ele>
        <time>2014-06-15T08:06:07Z</time>
      </trkpt>
      <trkpt lat="43.48078" lon="2.24964">
        <ele>716.800293</ele>
        <time>2014-06-15T08:06:15Z</time>
      </trkpt>
      <trkpt lat="43.48078" lon="2.24964">
        <ele>715.8388672</ele>
        <time>2014-06-15T08:06:25Z</time>
      </trkpt>
      <trkpt lat="43.48078" lon="2.24963">
        <ele>715.3581543</ele>
        <time>2014-06-15T08:06:28Z</time>
      </trkpt>
      <trkpt lat="43.48078" lon="2.24963">
        <ele>714.8774414</ele>
        <time>2014-06-15T08:06:29Z</time>
      </trkpt>
      <trkpt lat="43.48076" lon="2.24965">
        <ele>716.3195801</ele>
        <time>2014-06-15T08:06:39Z</time>
      </trkpt>
      <trkpt lat="43.48076" lon="2.24964">
        <ele>715.8388672</ele>
        <time>2014-06-15T08:06:43Z</time>
      </trkpt>
      <trkpt lat="43.48072" lon="2.24963">
        <ele>714.8774414</ele>
        <time>2014-06-15T08:06:48Z</time>
      </trkpt>
      <trkpt lat="43.4807" lon="2.24962">
        <ele>714.8774414</ele>
        <time>2014-06-15T08:06:51Z</time>
      </trkpt>
      <trkpt lat="43.48068" lon="2.24961">
        <ele>714.8774414</ele>
        <time>2014-06-15T08:06:54Z</time>
      </trkpt>
      <trkpt lat="43.48067" lon="2.2496">
        <ele>715.8388672</ele>
        <time>2014-06-15T08:06:56Z</time>
      </trkpt>
      <trkpt lat="43.48065" lon="2.24959">
        <ele>714.8774414</ele>
        <time>2014-06-15T08:06:58Z</time>
      </trkpt>
      <trkpt lat="43.48062" lon="2.2496">
        <ele>715.3581543</ele>
        <time>2014-06-15T08:07:00Z</time>
      </trkpt>
      <trkpt lat="43.4806" lon="2.2496">
        <ele>715.8388672</ele>
        <time>2014-06-15T08:07:01Z</time>
      </trkpt>
      <trkpt lat="43.48057" lon="2.24962">
        <ele>717.7614746</ele>
        <time>2014-06-15T08:07:04Z</time>
      </trkpt>
      <trkpt lat="43.48055" lon="2.2496">
        <ele>722.5681152</ele>
        <time>2014-06-15T08:07:10Z</time>
      </trkpt>
      <trkpt lat="43.4805" lon="2.24958">
        <ele>719.6843262</ele>
        <time>2014-06-15T08:07:15Z</time>
      </trkpt>
      <trkpt lat="43.48044" lon="2.24955">
        <ele>724.4907227</ele>
        <time>2014-06-15T08:07:22Z</time>
      </trkpt>
      <trkpt lat="43.48043" lon="2.24955">
        <ele>726.4133301</ele>
        <time>2014-06-15T08:07:24Z</time>
      </trkpt>
      <trkpt lat="43.48041" lon="2.24956">
        <ele>735.5458984</ele>
        <time>2014-06-15T08:07:31Z</time>
      </trkpt>
      <trkpt lat="43.48037" lon="2.24955">
        <ele>741.3137207</ele>
        <time>2014-06-15T08:07:36Z</time>
      </trkpt>
      <trkpt lat="43.48033" lon="2.24956">
        <ele>743.2363281</ele>
        <time>2014-06-15T08:07:43Z</time>
      </trkpt>
      <trkpt lat="43.48032" lon="2.24956">
        <ele>748.0432129</ele>
        <time>2014-06-15T08:07:54Z</time>
      </trkpt>
      <trkpt lat="43.4803" lon="2.24952">
        <ele>745.1589355</ele>
        <time>2014-06-15T08:07:57Z</time>
      </trkpt>
      <trkpt lat="43.48024" lon="2.24944">
        <ele>736.987793</ele>
        <time>2014-06-15T08:08:04Z</time>
      </trkpt>
      <trkpt lat="43.48017" lon="2.24939">
        <ele>735.5458984</ele>
        <time>2014-06-15T08:08:13Z</time>
      </trkpt>
      <trkpt lat="43.4801" lon="2.24933">
        <ele>745.1589355</ele>
        <time>2014-06-15T08:08:21Z</time>
      </trkpt>
      <trkpt lat="43.48007" lon="2.24932">
        <ele>745.6396484</ele>
        <time>2014-06-15T08:08:26Z</time>
      </trkpt>
      <trkpt lat="43.48004" lon="2.24926">
        <ele>745.1589355</ele>
        <time>2014-06-15T08:08:35Z</time>
      </trkpt>
      <trkpt lat="43.47995" lon="2.24921">
        <ele>740.8330078</ele>
        <time>2014-06-15T08:08:44Z</time>
      </trkpt>
      <trkpt lat="43.4799" lon="2.2492">
        <ele>741.7944336</ele>
        <time>2014-06-15T08:08:50Z</time>
      </trkpt>
      <trkpt lat="43.47987" lon="2.24918">
        <ele>742.7558594</ele>
        <time>2014-06-15T08:08:55Z</time>
      </trkpt>
      <trkpt lat="43.47983" lon="2.24917">
        <ele>749.4851074</ele>
        <time>2014-06-15T08:09:01Z</time>
      </trkpt>
      <trkpt lat="43.47982" lon="2.24915">
        <ele>751.8884277</ele>
        <time>2014-06-15T08:09:06Z</time>
      </trkpt>
      <trkpt lat="43.47978" lon="2.24911">
        <ele>750.4465332</ele>
        <time>2014-06-15T08:09:12Z</time>
      </trkpt>
      <trkpt lat="43.47976" lon="2.2491">
        <ele>753.3303223</ele>
        <time>2014-06-15T08:09:17Z</time>
      </trkpt>
      <trkpt lat="43.4797" lon="2.24905">
        <ele>751.8884277</ele>
        <time>2014-06-15T08:09:23Z</time>
      </trkpt>
      <trkpt lat="43.47965" lon="2.24907">
        <ele>752.8496094</ele>
        <time>2014-06-15T08:09:28Z</time>
      </trkpt>
      <trkpt lat="43.47966" lon="2.24906">
        <ele>756.6948242</ele>
        <time>2014-06-15T08:09:35Z</time>
      </trkpt>
      <trkpt lat="43.47964" lon="2.24902">
        <ele>770.6340332</ele>
        <time>2014-06-15T08:09:47Z</time>
      </trkpt>
      <trkpt lat="43.47964" lon="2.24899">
        <ele>770.6340332</ele>
        <time>2014-06-15T08:09:52Z</time>
      </trkpt>
      <trkpt lat="43.47964" lon="2.24897">
        <ele>771.5952148</ele>
        <time>2014-06-15T08:09:57Z</time>
      </trkpt>
      <trkpt lat="43.47964" lon="2.24894">
        <ele>775.4404297</ele>
        <time>2014-06-15T08:10:02Z</time>
      </trkpt>
      <trkpt lat="43.47964" lon="2.24892">
        <ele>776.4018555</ele>
        <time>2014-06-15T08:10:05Z</time>
      </trkpt>
      <trkpt lat="43.47964" lon="2.24887">
        <ele>779.7663574</ele>
        <time>2014-06-15T08:10:11Z</time>
      </trkpt>
      <trkpt lat="43.4796" lon="2.24887">
        <ele>782.6506348</ele>
        <time>2014-06-15T08:10:20Z</time>
      </trkpt>
      <trkpt lat="43.4796" lon="2.24895">
        <ele>778.8051758</ele>
        <time>2014-06-15T08:10:31Z</time>
      </trkpt>
      <trkpt lat="43.47961" lon="2.249">
        <ele>773.9985352</ele>
        <time>2014-06-15T08:10:39Z</time>
      </trkpt>
      <trkpt lat="43.47958" lon="2.24911">
        <ele>765.8276367</ele>
        <time>2014-06-15T08:10:48Z</time>
      </trkpt>
      <trkpt lat="43.47954" lon="2.24917">
        <ele>769.1921387</ele>
        <time>2014-06-15T08:10:53Z</time>
      </trkpt>
      <trkpt lat="43.47956" lon="2.24917">
        <ele>774.9599609</ele>
        <time>2014-06-15T08:11:11Z</time>
      </trkpt>
      <trkpt lat="43.47957" lon="2.24913">
        <ele>772.5566406</ele>
        <time>2014-06-15T08:11:20Z</time>
      </trkpt>
      <trkpt lat="43.4796" lon="2.24907">
        <ele>768.2307129</ele>
        <time>2014-06-15T08:11:24Z</time>
      </trkpt>
      <trkpt lat="43.47961" lon="2.24906">
        <ele>767.75</ele>
        <time>2014-06-15T08:11:26Z</time>
      </trkpt>
      <trkpt lat="43.47958" lon="2.24901">
        <ele>765.8276367</ele>
        <time>2014-06-15T08:11:29Z</time>
      </trkpt>
      <trkpt lat="43.47955" lon="2.24899">
        <ele>764.8662109</ele>
        <time>2014-06-15T08:11:31Z</time>
      </trkpt>
      <trkpt lat="43.47951" lon="2.24894">
        <ele>761.9821777</ele>
        <time>2014-06-15T08:11:35Z</time>
      </trkpt>
      <trkpt lat="43.47945" lon="2.24888">
        <ele>759.0981445</ele>
        <time>2014-06-15T08:11:39Z</time>
      </trkpt>
      <trkpt lat="43.47934" lon="2.24876">
        <ele>754.7722168</ele>
        <time>2014-06-15T08:11:47Z</time>
      </trkpt>
      <trkpt lat="43.47922" lon="2.24868">
        <ele>755.7336426</ele>
        <time>2014-06-15T08:11:52Z</time>
      </trkpt>
      <trkpt lat="43.47912" lon="2.24861">
        <ele>755.2529297</ele>
        <time>2014-06-15T08:11:57Z</time>
      </trkpt>
      <trkpt lat="43.47903" lon="2.24853">
        <ele>753.8110352</ele>
        <time>2014-06-15T08:12:02Z</time>
      </trkpt>
      <trkpt lat="43.47886" lon="2.24847">
        <ele>755.2529297</ele>
        <time>2014-06-15T08:12:09Z</time>
      </trkpt>
      <trkpt lat="43.47874" lon="2.24839">
        <ele>754.7722168</ele>
        <time>2014-06-15T08:12:15Z</time>
      </trkpt>
      <trkpt lat="43.47862" lon="2.24833">
        <ele>754.291748</ele>
        <time>2014-06-15T08:12:23Z</time>
      </trkpt>
      <trkpt lat="43.47859" lon="2.24831">
        <ele>755.7336426</ele>
        <time>2014-06-15T08:12:28Z</time>
      </trkpt>
      <trkpt lat="43.47855" lon="2.24835">
        <ele>758.6174316</ele>
        <time>2014-06-15T08:12:33Z</time>
      </trkpt>
      <trkpt lat="43.47865" lon="2.24849">
        <ele>760.5400391</ele>
        <time>2014-06-15T08:12:40Z</time>
      </trkpt>
      <trkpt lat="43.47874" lon="2.2486">
        <ele>763.4240723</ele>
        <time>2014-06-15T08:12:45Z</time>
      </trkpt>
      <trkpt lat="43.4788" lon="2.24876">
        <ele>767.75</ele>
        <time>2014-06-15T08:12:50Z</time>
      </trkpt>
      <trkpt lat="43.47884" lon="2.24894">
        <ele>772.5566406</ele>
        <time>2014-06-15T08:12:56Z</time>
      </trkpt>
      <trkpt lat="43.47886" lon="2.24908">
        <ele>776.4018555</ele>
        <time>2014-06-15T08:13:02Z</time>
      </trkpt>
      <trkpt lat="43.4789" lon="2.24925">
        <ele>780.2473145</ele>
        <time>2014-06-15T08:13:08Z</time>
      </trkpt>
      <trkpt lat="43.47889" lon="2.24928">
        <ele>780.7280273</ele>
        <time>2014-06-15T08:13:09Z</time>
      </trkpt>
      <trkpt lat="43.47893" lon="2.24944">
        <ele>782.1699219</ele>
        <time>2014-06-15T08:13:16Z</time>
      </trkpt>
      <trkpt lat="43.47893" lon="2.24951">
        <ele>782.6506348</ele>
        <time>2014-06-15T08:13:19Z</time>
      </trkpt>
      <trkpt lat="43.47896" lon="2.24968">
        <ele>784.0925293</ele>
        <time>2014-06-15T08:13:26Z</time>
      </trkpt>
      <trkpt lat="43.47897" lon="2.2498">
        <ele>786.0151367</ele>
        <time>2014-06-15T08:13:31Z</time>
      </trkpt>
      <trkpt lat="43.47902" lon="2.24996">
        <ele>784.5732422</ele>
        <time>2014-06-15T08:13:38Z</time>
      </trkpt>
      <trkpt lat="43.47903" lon="2.25014">
        <ele>782.1699219</ele>
        <time>2014-06-15T08:13:45Z</time>
      </trkpt>
      <trkpt lat="43.47905" lon="2.25025">
        <ele>781.2087402</ele>
        <time>2014-06-15T08:13:50Z</time>
      </trkpt>
      <trkpt lat="43.47907" lon="2.25035">
        <ele>780.2473145</ele>
        <time>2014-06-15T08:13:54Z</time>
      </trkpt>
      <trkpt lat="43.47912" lon="2.25053">
        <ele>780.7280273</ele>
        <time>2014-06-15T08:14:02Z</time>
      </trkpt>
      <trkpt lat="43.47916" lon="2.25075">
        <ele>781.689209</ele>
        <time>2014-06-15T08:14:10Z</time>
      </trkpt>
      <trkpt lat="43.47916" lon="2.25087">
        <ele>781.2087402</ele>
        <time>2014-06-15T08:14:15Z</time>
      </trkpt>
      <trkpt lat="43.47918" lon="2.25102">
        <ele>781.689209</ele>
        <time>2014-06-15T08:14:21Z</time>
      </trkpt>
      <trkpt lat="43.47914" lon="2.25109">
        <ele>783.1311035</ele>
        <time>2014-06-15T08:14:24Z</time>
      </trkpt>
      <trkpt lat="43.47902" lon="2.25111">
        <ele>785.0539551</ele>
        <time>2014-06-15T08:14:30Z</time>
      </trkpt>
      <trkpt lat="43.47895" lon="2.25103">
        <ele>784.5732422</ele>
        <time>2014-06-15T08:14:38Z</time>
      </trkpt>
      <trkpt lat="43.47892" lon="2.25099">
        <ele>783.1311035</ele>
        <time>2014-06-15T08:14:42Z</time>
      </trkpt>
      <trkpt lat="43.47891" lon="2.25098">
        <ele>783.1311035</ele>
        <time>2014-06-15T08:14:43Z</time>
      </trkpt>
      <trkpt lat="43.47883" lon="2.25092">
        <ele>782.1699219</ele>
        <time>2014-06-15T08:14:49Z</time>
      </trkpt>
      <trkpt lat="43.4788" lon="2.25089">
        <ele>782.1699219</ele>
        <time>2014-06-15T08:14:52Z</time>
      </trkpt>
      <trkpt lat="43.47878" lon="2.25086">
        <ele>783.1311035</ele>
        <time>2014-06-15T08:14:55Z</time>
      </trkpt>
      <trkpt lat="43.4787" lon="2.25081">
        <ele>784.5732422</ele>
        <time>2014-06-15T08:15:00Z</time>
      </trkpt>
      <trkpt lat="43.47861" lon="2.25067">
        <ele>786.4958496</ele>
        <time>2014-06-15T08:15:07Z</time>
      </trkpt>
      <trkpt lat="43.47859" lon="2.25064">
        <ele>786.9763184</ele>
        <time>2014-06-15T08:15:09Z</time>
      </trkpt>
      <trkpt lat="43.47857" lon="2.25058">
        <ele>788.418457</ele>
        <time>2014-06-15T08:15:13Z</time>
      </trkpt>
      <trkpt lat="43.47847" lon="2.25053">
        <ele>789.3796387</ele>
        <time>2014-06-15T08:15:20Z</time>
      </trkpt>
      <trkpt lat="43.4784" lon="2.25047">
        <ele>791.3022461</ele>
        <time>2014-06-15T08:15:26Z</time>
      </trkpt>
      <trkpt lat="43.47831" lon="2.25038">
        <ele>792.2636719</ele>
        <time>2014-06-15T08:15:34Z</time>
      </trkpt>
      <trkpt lat="43.47829" lon="2.25036">
        <ele>792.2636719</ele>
        <time>2014-06-15T08:15:36Z</time>
      </trkpt>
      <trkpt lat="43.4782" lon="2.25029">
        <ele>791.782959</ele>
        <time>2014-06-15T08:15:41Z</time>
      </trkpt>
      <trkpt lat="43.4781" lon="2.25021">
        <ele>789.8603516</ele>
        <time>2014-06-15T08:15:47Z</time>
      </trkpt>
      <trkpt lat="43.47798" lon="2.25018">
        <ele>789.8603516</ele>
        <time>2014-06-15T08:15:54Z</time>
      </trkpt>
      <trkpt lat="43.47788" lon="2.25016">
        <ele>789.3796387</ele>
        <time>2014-06-15T08:16:00Z</time>
      </trkpt>
      <trkpt lat="43.47781" lon="2.25016">
        <ele>790.8215332</ele>
        <time>2014-06-15T08:16:04Z</time>
      </trkpt>
      <trkpt lat="43.47773" lon="2.25014">
        <ele>792.2636719</ele>
        <time>2014-06-15T08:16:09Z</time>
      </trkpt>
      <trkpt lat="43.47762" lon="2.2501">
        <ele>793.2248535</ele>
        <time>2014-06-15T08:16:14Z</time>
      </trkpt>
      <trkpt lat="43.47749" lon="2.25004">
        <ele>794.666748</ele>
        <time>2014-06-15T08:16:20Z</time>
      </trkpt>
      <trkpt lat="43.47736" lon="2.24998">
        <ele>796.1091309</ele>
        <time>2014-06-15T08:16:27Z</time>
      </trkpt>
      <trkpt lat="43.4773" lon="2.24999">
        <ele>797.0703125</ele>
        <time>2014-06-15T08:16:31Z</time>
      </trkpt>
      <trkpt lat="43.47716" lon="2.24995">
        <ele>802.3574219</ele>
        <time>2014-06-15T08:16:40Z</time>
      </trkpt>
      <trkpt lat="43.47711" lon="2.24992">
        <ele>804.2802734</ele>
        <time>2014-06-15T08:16:44Z</time>
      </trkpt>
      <trkpt lat="43.47705" lon="2.2499">
        <ele>805.2414551</ele>
        <time>2014-06-15T08:16:50Z</time>
      </trkpt>
      <trkpt lat="43.477" lon="2.24988">
        <ele>806.6833496</ele>
        <time>2014-06-15T08:16:54Z</time>
      </trkpt>
      <trkpt lat="43.47693" lon="2.24987">
        <ele>807.6447754</ele>
        <time>2014-06-15T08:17:00Z</time>
      </trkpt>
      <trkpt lat="43.47684" lon="2.24984">
        <ele>809.0866699</ele>
        <time>2014-06-15T08:17:09Z</time>
      </trkpt>
      <trkpt lat="43.47674" lon="2.24981">
        <ele>811.0092773</ele>
        <time>2014-06-15T08:17:18Z</time>
      </trkpt>
      <trkpt lat="43.47664" lon="2.24978">
        <ele>812.451416</ele>
        <time>2014-06-15T08:17:26Z</time>
      </trkpt>
      <trkpt lat="43.47661" lon="2.24976">
        <ele>813.8933105</ele>
        <time>2014-06-15T08:17:28Z</time>
      </trkpt>
      <trkpt lat="43.47651" lon="2.24971">
        <ele>812.9321289</ele>
        <time>2014-06-15T08:17:36Z</time>
      </trkpt>
      <trkpt lat="43.47642" lon="2.24967">
        <ele>814.3740234</ele>
        <time>2014-06-15T08:17:44Z</time>
      </trkpt>
      <trkpt lat="43.47635" lon="2.24966">
        <ele>815.8161621</ele>
        <time>2014-06-15T08:17:50Z</time>
      </trkpt>
      <trkpt lat="43.47632" lon="2.24964">
        <ele>818.6999512</ele>
        <time>2014-06-15T08:17:54Z</time>
      </trkpt>
      <trkpt lat="43.47626" lon="2.24965">
        <ele>821.5837402</ele>
        <time>2014-06-15T08:18:01Z</time>
      </trkpt>
      <trkpt lat="43.47623" lon="2.24965">
        <ele>828.3132324</ele>
        <time>2014-06-15T08:18:09Z</time>
      </trkpt>
      <trkpt lat="43.47626" lon="2.24966">
        <ele>831.1972656</ele>
        <time>2014-06-15T08:18:14Z</time>
      </trkpt>
      <trkpt lat="43.47627" lon="2.24969">
        <ele>834.0810547</ele>
        <time>2014-06-15T08:18:20Z</time>
      </trkpt>
      <trkpt lat="43.47625" lon="2.24972">
        <ele>839.3681641</ele>
        <time>2014-06-15T08:18:26Z</time>
      </trkpt>
      <trkpt lat="43.47625" lon="2.24973">
        <ele>840.8100586</ele>
        <time>2014-06-15T08:18:30Z</time>
      </trkpt>
      <trkpt lat="43.47621" lon="2.24976">
        <ele>845.1362305</ele>
        <time>2014-06-15T08:18:38Z</time>
      </trkpt>
      <trkpt lat="43.47621" lon="2.24977">
        <ele>845.1362305</ele>
        <time>2014-06-15T08:18:40Z</time>
      </trkpt>
      <trkpt lat="43.47626" lon="2.24971">
        <ele>840.8100586</ele>
        <time>2014-06-15T08:18:56Z</time>
      </trkpt>
      <trkpt lat="43.47628" lon="2.24972">
        <ele>838.8876953</ele>
        <time>2014-06-15T08:19:04Z</time>
      </trkpt>
      <trkpt lat="43.47627" lon="2.24975">
        <ele>838.8876953</ele>
        <time>2014-06-15T08:19:13Z</time>
      </trkpt>
      <trkpt lat="43.47626" lon="2.24976">
        <ele>836.9648438</ele>
        <time>2014-06-15T08:19:21Z</time>
      </trkpt>
      <trkpt lat="43.47626" lon="2.24977">
        <ele>836.484375</ele>
        <time>2014-06-15T08:19:23Z</time>
      </trkpt>
      <trkpt lat="43.47628" lon="2.24965">
        <ele>835.5229492</ele>
        <time>2014-06-15T08:20:07Z</time>
      </trkpt>
      <trkpt lat="43.47632" lon="2.24961">
        <ele>833.6003418</ele>
        <time>2014-06-15T08:20:11Z</time>
      </trkpt>
      <trkpt lat="43.47634" lon="2.2496">
        <ele>829.2744141</ele>
        <time>2014-06-15T08:20:14Z</time>
      </trkpt>
      <trkpt lat="43.47635" lon="2.24961">
        <ele>827.3518066</ele>
        <time>2014-06-15T08:20:18Z</time>
      </trkpt>
      <trkpt lat="43.47639" lon="2.24964">
        <ele>824.4677734</ele>
        <time>2014-06-15T08:20:27Z</time>
      </trkpt>
      <trkpt lat="43.47632" lon="2.24963">
        <ele>824.9484863</ele>
        <time>2014-06-15T08:20:42Z</time>
      </trkpt>
      <trkpt lat="43.47632" lon="2.24963">
        <ele>834.0810547</ele>
        <time>2014-06-15T08:21:00Z</time>
      </trkpt>
      <trkpt lat="43.47636" lon="2.24969">
        <ele>835.0424805</ele>
        <time>2014-06-15T08:21:16Z</time>
      </trkpt>
      <trkpt lat="43.47634" lon="2.2497">
        <ele>836.9648438</ele>
        <time>2014-06-15T08:21:27Z</time>
      </trkpt>
      <trkpt lat="43.47633" lon="2.24966">
        <ele>836.9648438</ele>
        <time>2014-06-15T08:21:58Z</time>
      </trkpt>
      <trkpt lat="43.47629" lon="2.24966">
        <ele>838.8876953</ele>
        <time>2014-06-15T08:22:07Z</time>
      </trkpt>
      <trkpt lat="43.47629" lon="2.24965">
        <ele>839.3681641</ele>
        <time>2014-06-15T08:22:16Z</time>
      </trkpt>
      <trkpt lat="43.47631" lon="2.24962">
        <ele>839.3681641</ele>
        <time>2014-06-15T08:22:27Z</time>
      </trkpt>
      <trkpt lat="43.4763" lon="2.24964">
        <ele>838.4069824</ele>
        <time>2014-06-15T08:22:53Z</time>
      </trkpt>
      <trkpt lat="43.4763" lon="2.24964">
        <ele>836.0036621</ele>
        <time>2014-06-15T08:23:00Z</time>
      </trkpt>
      <trkpt lat="43.47632" lon="2.24966">
        <ele>838.4069824</ele>
        <time>2014-06-15T08:23:09Z</time>
      </trkpt>
      <trkpt lat="43.47624" lon="2.24968">
        <ele>836.0036621</ele>
        <time>2014-06-15T08:23:16Z</time>
      </trkpt>
      <trkpt lat="43.47619" lon="2.24967">
        <ele>831.1972656</ele>
        <time>2014-06-15T08:23:25Z</time>
      </trkpt>
      <trkpt lat="43.47617" lon="2.24967">
        <ele>830.2358398</ele>
        <time>2014-06-15T08:23:28Z</time>
      </trkpt>
      <trkpt lat="43.47616" lon="2.24967">
        <ele>830.2358398</ele>
        <time>2014-06-15T08:23:29Z</time>
      </trkpt>
      <trkpt lat="43.4761" lon="2.24965">
        <ele>828.7939453</ele>
        <time>2014-06-15T08:23:37Z</time>
      </trkpt>
      <trkpt lat="43.47603" lon="2.24966">
        <ele>828.7939453</ele>
        <time>2014-06-15T08:23:44Z</time>
      </trkpt>
      <trkpt lat="43.47597" lon="2.24964">
        <ele>829.755127</ele>
        <time>2014-06-15T08:23:54Z</time>
      </trkpt>
      <trkpt lat="43.47598" lon="2.24964">
        <ele>832.1584473</ele>
        <time>2014-06-15T08:24:01Z</time>
      </trkpt>
      <trkpt lat="43.47596" lon="2.24962">
        <ele>832.6391602</ele>
        <time>2014-06-15T08:24:06Z</time>
      </trkpt>
      <trkpt lat="43.47591" lon="2.24963">
        <ele>831.1972656</ele>
        <time>2014-06-15T08:24:12Z</time>
      </trkpt>
      <trkpt lat="43.4759" lon="2.24963">
        <ele>831.6777344</ele>
        <time>2014-06-15T08:24:20Z</time>
      </trkpt>
      <trkpt lat="43.47583" lon="2.24965">
        <ele>830.2358398</ele>
        <time>2014-06-15T08:24:27Z</time>
      </trkpt>
      <trkpt lat="43.47577" lon="2.24965">
        <ele>830.7165527</ele>
        <time>2014-06-15T08:24:35Z</time>
      </trkpt>
      <trkpt lat="43.47568" lon="2.24963">
        <ele>836.484375</ele>
        <time>2014-06-15T08:24:44Z</time>
      </trkpt>
      <trkpt lat="43.47562" lon="2.2496">
        <ele>840.8100586</ele>
        <time>2014-06-15T08:24:52Z</time>
      </trkpt>
      <trkpt lat="43.47559" lon="2.24956">
        <ele>845.1362305</ele>
        <time>2014-06-15T08:24:58Z</time>
      </trkpt>
      <trkpt lat="43.47554" lon="2.24955">
        <ele>848.0202637</ele>
        <time>2014-06-15T08:25:05Z</time>
      </trkpt>
      <trkpt lat="43.47547" lon="2.24952">
        <ele>846.5783691</ele>
        <time>2014-06-15T08:25:14Z</time>
      </trkpt>
      <trkpt lat="43.47544" lon="2.2495">
        <ele>847.0588379</ele>
        <time>2014-06-15T08:25:20Z</time>
      </trkpt>
      <trkpt lat="43.47544" lon="2.24946">
        <ele>852.3459473</ele>
        <time>2014-06-15T08:25:30Z</time>
      </trkpt>
      <trkpt lat="43.47544" lon="2.24948">
        <ele>848.5007324</ele>
        <time>2014-06-15T08:25:41Z</time>
      </trkpt>
      <trkpt lat="43.47546" lon="2.24947">
        <ele>848.9814453</ele>
        <time>2014-06-15T08:25:47Z</time>
      </trkpt>
      <trkpt lat="43.47541" lon="2.24943">
        <ele>854.2687988</ele>
        <time>2014-06-15T08:26:24Z</time>
      </trkpt>
      <trkpt lat="43.47535" lon="2.24951">
        <ele>853.7880859</ele>
        <time>2014-06-15T08:26:35Z</time>
      </trkpt>
      <trkpt lat="43.47534" lon="2.24957">
        <ele>850.423584</ele>
        <time>2014-06-15T08:26:42Z</time>
      </trkpt>
      <trkpt lat="43.4754" lon="2.24959">
        <ele>845.6169434</ele>
        <time>2014-06-15T08:27:11Z</time>
      </trkpt>
      <trkpt lat="43.47543" lon="2.24957">
        <ele>846.0976563</ele>
        <time>2014-06-15T08:27:31Z</time>
      </trkpt>
      <trkpt lat="43.47541" lon="2.24959">
        <ele>842.7329102</ele>
        <time>2014-06-15T08:27:46Z</time>
      </trkpt>
      <trkpt lat="43.47535" lon="2.24955">
        <ele>845.1362305</ele>
        <time>2014-06-15T08:27:50Z</time>
      </trkpt>
      <trkpt lat="43.4753" lon="2.24951">
        <ele>844.1750488</ele>
        <time>2014-06-15T08:27:54Z</time>
      </trkpt>
      <trkpt lat="43.47528" lon="2.24952">
        <ele>842.2521973</ele>
        <time>2014-06-15T08:27:56Z</time>
      </trkpt>
      <trkpt lat="43.47525" lon="2.24951">
        <ele>840.3295898</ele>
        <time>2014-06-15T08:27:59Z</time>
      </trkpt>
      <trkpt lat="43.47523" lon="2.24951">
        <ele>840.8100586</ele>
        <time>2014-06-15T08:28:00Z</time>
      </trkpt>
      <trkpt lat="43.47517" lon="2.24951">
        <ele>839.3681641</ele>
        <time>2014-06-15T08:28:04Z</time>
      </trkpt>
      <trkpt lat="43.4751" lon="2.24952">
        <ele>839.3681641</ele>
        <time>2014-06-15T08:28:09Z</time>
      </trkpt>
      <trkpt lat="43.47508" lon="2.24952">
        <ele>838.8876953</ele>
        <time>2014-06-15T08:28:10Z</time>
      </trkpt>
      <trkpt lat="43.475" lon="2.24953">
        <ele>838.4069824</ele>
        <time>2014-06-15T08:28:14Z</time>
      </trkpt>
      <trkpt lat="43.47498" lon="2.24953">
        <ele>838.4069824</ele>
        <time>2014-06-15T08:28:15Z</time>
      </trkpt>
      <trkpt lat="43.47492" lon="2.24953">
        <ele>838.4069824</ele>
        <time>2014-06-15T08:28:18Z</time>
      </trkpt>
      <trkpt lat="43.47478" lon="2.2495">
        <ele>841.7714844</ele>
        <time>2014-06-15T08:28:26Z</time>
      </trkpt>
      <trkpt lat="43.47465" lon="2.24948">
        <ele>845.1362305</ele>
        <time>2014-06-15T08:28:34Z</time>
      </trkpt>
      <trkpt lat="43.47457" lon="2.24945">
        <ele>848.9814453</ele>
        <time>2014-06-15T08:28:41Z</time>
      </trkpt>
      <trkpt lat="43.47448" lon="2.24944">
        <ele>851.8654785</ele>
        <time>2014-06-15T08:28:49Z</time>
      </trkpt>
      <trkpt lat="43.4744" lon="2.24943">
        <ele>854.2687988</ele>
        <time>2014-06-15T08:28:56Z</time>
      </trkpt>
      <trkpt lat="43.47434" lon="2.24945">
        <ele>855.2299805</ele>
        <time>2014-06-15T08:29:01Z</time>
      </trkpt>
      <trkpt lat="43.47426" lon="2.24946">
        <ele>856.1911621</ele>
        <time>2014-06-15T08:29:07Z</time>
      </trkpt>
      <trkpt lat="43.47418" lon="2.24946">
        <ele>860.517334</ele>
        <time>2014-06-15T08:29:13Z</time>
      </trkpt>
      <trkpt lat="43.47411" lon="2.24949">
        <ele>864.8432617</ele>
        <time>2014-06-15T08:29:20Z</time>
      </trkpt>
      <trkpt lat="43.47405" lon="2.24953">
        <ele>868.2077637</ele>
        <time>2014-06-15T08:29:27Z</time>
      </trkpt>
      <trkpt lat="43.47401" lon="2.24954">
        <ele>868.2077637</ele>
        <time>2014-06-15T08:29:31Z</time>
      </trkpt>
      <trkpt lat="43.47389" lon="2.24955">
        <ele>870.1303711</ele>
        <time>2014-06-15T08:29:38Z</time>
      </trkpt>
      <trkpt lat="43.47379" lon="2.24957">
        <ele>872.0529785</ele>
        <time>2014-06-15T08:29:46Z</time>
      </trkpt>
      <trkpt lat="43.47366" lon="2.24961">
        <ele>873.9755859</ele>
        <time>2014-06-15T08:29:55Z</time>
      </trkpt>
      <trkpt lat="43.47357" lon="2.24967">
        <ele>871.5722656</ele>
        <time>2014-06-15T08:30:03Z</time>
      </trkpt>
      <trkpt lat="43.47348" lon="2.24968">
        <ele>870.1303711</ele>
        <time>2014-06-15T08:30:09Z</time>
      </trkpt>
      <trkpt lat="43.47338" lon="2.2497">
        <ele>873.0144043</ele>
        <time>2014-06-15T08:30:17Z</time>
      </trkpt>
      <trkpt lat="43.47331" lon="2.24971">
        <ele>873.0144043</ele>
        <time>2014-06-15T08:30:24Z</time>
      </trkpt>
      <trkpt lat="43.47325" lon="2.24972">
        <ele>872.5336914</ele>
        <time>2014-06-15T08:30:28Z</time>
      </trkpt>
      <trkpt lat="43.47323" lon="2.24973">
        <ele>872.5336914</ele>
        <time>2014-06-15T08:30:30Z</time>
      </trkpt>
      <trkpt lat="43.47314" lon="2.24974">
        <ele>872.5336914</ele>
        <time>2014-06-15T08:30:37Z</time>
      </trkpt>
      <trkpt lat="43.47309" lon="2.24975">
        <ele>873.4951172</ele>
        <time>2014-06-15T08:30:40Z</time>
      </trkpt>
      <trkpt lat="43.473" lon="2.24974">
        <ele>873.4951172</ele>
        <time>2014-06-15T08:30:45Z</time>
      </trkpt>
      <trkpt lat="43.47295" lon="2.24975">
        <ele>875.4174805</ele>
        <time>2014-06-15T08:30:49Z</time>
      </trkpt>
      <trkpt lat="43.47287" lon="2.24977">
        <ele>875.4174805</ele>
        <time>2014-06-15T08:30:55Z</time>
      </trkpt>
      <trkpt lat="43.47281" lon="2.24977">
        <ele>877.3405762</ele>
        <time>2014-06-15T08:30:59Z</time>
      </trkpt>
      <trkpt lat="43.47267" lon="2.24979">
        <ele>876.3791504</ele>
        <time>2014-06-15T08:31:08Z</time>
      </trkpt>
      <trkpt lat="43.47255" lon="2.24983">
        <ele>875.8981934</ele>
        <time>2014-06-15T08:31:16Z</time>
      </trkpt>
      <trkpt lat="43.47245" lon="2.24985">
        <ele>880.7050781</ele>
        <time>2014-06-15T08:31:22Z</time>
      </trkpt>
      <trkpt lat="43.47237" lon="2.24988">
        <ele>882.1469727</ele>
        <time>2014-06-15T08:31:28Z</time>
      </trkpt>
      <trkpt lat="43.4723" lon="2.24992">
        <ele>884.550293</ele>
        <time>2014-06-15T08:31:34Z</time>
      </trkpt>
      <trkpt lat="43.47223" lon="2.24996">
        <ele>888.8762207</ele>
        <time>2014-06-15T08:31:41Z</time>
      </trkpt>
      <trkpt lat="43.47213" lon="2.24999">
        <ele>892.7216797</ele>
        <time>2014-06-15T08:31:47Z</time>
      </trkpt>
      <trkpt lat="43.47211" lon="2.24999">
        <ele>893.6828613</ele>
        <time>2014-06-15T08:31:48Z</time>
      </trkpt>
      <trkpt lat="43.47206" lon="2.24999">
        <ele>893.6828613</ele>
        <time>2014-06-15T08:31:52Z</time>
      </trkpt>
      <trkpt lat="43.47199" lon="2.25002">
        <ele>894.1635742</ele>
        <time>2014-06-15T08:32:00Z</time>
      </trkpt>
      <trkpt lat="43.47192" lon="2.25006">
        <ele>896.0861816</ele>
        <time>2014-06-15T08:32:07Z</time>
      </trkpt>
      <trkpt lat="43.47184" lon="2.25011">
        <ele>894.644043</ele>
        <time>2014-06-15T08:32:13Z</time>
      </trkpt>
      <trkpt lat="43.47182" lon="2.25008">
        <ele>899.4506836</ele>
        <time>2014-06-15T08:32:19Z</time>
      </trkpt>
      <trkpt lat="43.47179" lon="2.25012">
        <ele>897.5280762</ele>
        <time>2014-06-15T08:32:28Z</time>
      </trkpt>
      <trkpt lat="43.47174" lon="2.25014">
        <ele>892.7216797</ele>
        <time>2014-06-15T08:32:38Z</time>
      </trkpt>
      <trkpt lat="43.47176" lon="2.25013">
        <ele>893.2021484</ele>
        <time>2014-06-15T08:32:43Z</time>
      </trkpt>
      <trkpt lat="43.4718" lon="2.25013">
        <ele>897.0473633</ele>
        <time>2014-06-15T08:32:52Z</time>
      </trkpt>
      <trkpt lat="43.47181" lon="2.25014">
        <ele>898.0087891</ele>
        <time>2014-06-15T08:32:54Z</time>
      </trkpt>
      <trkpt lat="43.47183" lon="2.25013">
        <ele>904.2573242</ele>
        <time>2014-06-15T08:33:02Z</time>
      </trkpt>
      <trkpt lat="43.47183" lon="2.25013">
        <ele>907.1411133</ele>
        <time>2014-06-15T08:33:05Z</time>
      </trkpt>
      <trkpt lat="43.47183" lon="2.25013">
        <ele>910.5058594</ele>
        <time>2014-06-15T08:33:08Z</time>
      </trkpt>
      <trkpt lat="43.47182" lon="2.25012">
        <ele>910.9865723</ele>
        <time>2014-06-15T08:33:09Z</time>
      </trkpt>
      <trkpt lat="43.47177" lon="2.25014">
        <ele>914.8317871</ele>
        <time>2014-06-15T08:33:20Z</time>
      </trkpt>
      <trkpt lat="43.47178" lon="2.25015">
        <ele>916.7543945</ele>
        <time>2014-06-15T08:33:27Z</time>
      </trkpt>
      <trkpt lat="43.47184" lon="2.25014">
        <ele>907.1411133</ele>
        <time>2014-06-15T08:34:05Z</time>
      </trkpt>
      <trkpt lat="43.47178" lon="2.25017">
        <ele>903.7766113</ele>
        <time>2014-06-15T08:34:18Z</time>
      </trkpt>
      <trkpt lat="43.47176" lon="2.25018">
        <ele>901.373291</ele>
        <time>2014-06-15T08:34:29Z</time>
      </trkpt>
      <trkpt lat="43.47177" lon="2.25019">
        <ele>905.2185059</ele>
        <time>2014-06-15T08:34:41Z</time>
      </trkpt>
      <trkpt lat="43.4718" lon="2.25019">
        <ele>903.2958984</ele>
        <time>2014-06-15T08:34:46Z</time>
      </trkpt>
      <trkpt lat="43.4718" lon="2.25019">
        <ele>903.2958984</ele>
        <time>2014-06-15T08:34:48Z</time>
      </trkpt>
      <trkpt lat="43.47184" lon="2.25018">
        <ele>909.5446777</ele>
        <time>2014-06-15T08:34:55Z</time>
      </trkpt>
      <trkpt lat="43.47183" lon="2.25016">
        <ele>911.947998</ele>
        <time>2014-06-15T08:34:58Z</time>
      </trkpt>
      <trkpt lat="43.47177" lon="2.25009">
        <ele>912.9091797</ele>
        <time>2014-06-15T08:35:43Z</time>
      </trkpt>
      <trkpt lat="43.47172" lon="2.25012">
        <ele>911.947998</ele>
        <time>2014-06-15T08:35:48Z</time>
      </trkpt>
      <trkpt lat="43.4717" lon="2.25016">
        <ele>909.0639648</ele>
        <time>2014-06-15T08:35:51Z</time>
      </trkpt>
      <trkpt lat="43.47162" lon="2.25023">
        <ele>903.2958984</ele>
        <time>2014-06-15T08:35:57Z</time>
      </trkpt>
      <trkpt lat="43.47155" lon="2.25027">
        <ele>901.373291</ele>
        <time>2014-06-15T08:36:03Z</time>
      </trkpt>
      <trkpt lat="43.47149" lon="2.25039">
        <ele>901.8540039</ele>
        <time>2014-06-15T08:36:09Z</time>
      </trkpt>
      <trkpt lat="43.47143" lon="2.25048">
        <ele>903.2958984</ele>
        <time>2014-06-15T08:36:15Z</time>
      </trkpt>
      <trkpt lat="43.47138" lon="2.25058">
        <ele>902.3344727</ele>
        <time>2014-06-15T08:36:21Z</time>
      </trkpt>
      <trkpt lat="43.47135" lon="2.25066">
        <ele>902.3344727</ele>
        <time>2014-06-15T08:36:25Z</time>
      </trkpt>
      <trkpt lat="43.47133" lon="2.25071">
        <ele>904.737793</ele>
        <time>2014-06-15T08:36:29Z</time>
      </trkpt>
      <trkpt lat="43.47129" lon="2.25084">
        <ele>903.7766113</ele>
        <time>2014-06-15T08:36:36Z</time>
      </trkpt>
      <trkpt lat="43.47124" lon="2.25099">
        <ele>902.3344727</ele>
        <time>2014-06-15T08:36:43Z</time>
      </trkpt>
      <trkpt lat="43.47117" lon="2.25113">
        <ele>905.2185059</ele>
        <time>2014-06-15T08:36:50Z</time>
      </trkpt>
      <trkpt lat="43.47109" lon="2.25126">
        <ele>904.2573242</ele>
        <time>2014-06-15T08:36:56Z</time>
      </trkpt>
      <trkpt lat="43.47104" lon="2.2514">
        <ele>907.1411133</ele>
        <time>2014-06-15T08:37:04Z</time>
      </trkpt>
      <trkpt lat="43.47103" lon="2.25142">
        <ele>907.1411133</ele>
        <time>2014-06-15T08:37:05Z</time>
      </trkpt>
      <trkpt lat="43.47098" lon="2.25157">
        <ele>908.583252</ele>
        <time>2014-06-15T08:37:12Z</time>
      </trkpt>
      <trkpt lat="43.47096" lon="2.25159">
        <ele>909.0639648</ele>
        <time>2014-06-15T08:37:13Z</time>
      </trkpt>
      <trkpt lat="43.47087" lon="2.25174">
        <ele>913.8703613</ele>
        <time>2014-06-15T08:37:21Z</time>
      </trkpt>
      <trkpt lat="43.47079" lon="2.25191">
        <ele>915.3125</ele>
        <time>2014-06-15T08:37:29Z</time>
      </trkpt>
      <trkpt lat="43.47074" lon="2.25204">
        <ele>920.1188965</ele>
        <time>2014-06-15T08:37:36Z</time>
      </trkpt>
      <trkpt lat="43.47071" lon="2.25212">
        <ele>920.5996094</ele>
        <time>2014-06-15T08:37:41Z</time>
      </trkpt>
      <trkpt lat="43.47071" lon="2.25218">
        <ele>919.6384277</ele>
        <time>2014-06-15T08:37:44Z</time>
      </trkpt>
      <trkpt lat="43.4707" lon="2.25222">
        <ele>917.7155762</ele>
        <time>2014-06-15T08:37:48Z</time>
      </trkpt>
      <trkpt lat="43.47067" lon="2.25242">
        <ele>910.5058594</ele>
        <time>2014-06-15T08:37:58Z</time>
      </trkpt>
      <trkpt lat="43.47064" lon="2.25256">
        <ele>913.8703613</ele>
        <time>2014-06-15T08:38:05Z</time>
      </trkpt>
      <trkpt lat="43.47061" lon="2.25261">
        <ele>915.7932129</ele>
        <time>2014-06-15T08:38:09Z</time>
      </trkpt>
      <trkpt lat="43.47056" lon="2.25267">
        <ele>922.0415039</ele>
        <time>2014-06-15T08:38:14Z</time>
      </trkpt>
      <trkpt lat="43.47052" lon="2.25272">
        <ele>926.8483887</ele>
        <time>2014-06-15T08:38:17Z</time>
      </trkpt>
      <trkpt lat="43.47053" lon="2.25277">
        <ele>927.3291016</ele>
        <time>2014-06-15T08:38:20Z</time>
      </trkpt>
      <trkpt lat="43.47051" lon="2.25287">
        <ele>927.8095703</ele>
        <time>2014-06-15T08:38:25Z</time>
      </trkpt>
      <trkpt lat="43.47051" lon="2.25302">
        <ele>924.4450684</ele>
        <time>2014-06-15T08:38:31Z</time>
      </trkpt>
      <trkpt lat="43.4705" lon="2.25304">
        <ele>924.9257813</ele>
        <time>2014-06-15T08:38:32Z</time>
      </trkpt>
      <trkpt lat="43.47044" lon="2.25323">
        <ele>922.5222168</ele>
        <time>2014-06-15T08:38:39Z</time>
      </trkpt>
      <trkpt lat="43.47044" lon="2.25326">
        <ele>922.0415039</ele>
        <time>2014-06-15T08:38:40Z</time>
      </trkpt>
      <trkpt lat="43.47038" lon="2.25338">
        <ele>917.7155762</ele>
        <time>2014-06-15T08:38:46Z</time>
      </trkpt>
      <trkpt lat="43.47032" lon="2.25351">
        <ele>918.1962891</ele>
        <time>2014-06-15T08:38:53Z</time>
      </trkpt>
      <trkpt lat="43.47027" lon="2.25364">
        <ele>923.4836426</ele>
        <time>2014-06-15T08:38:59Z</time>
      </trkpt>
      <trkpt lat="43.47023" lon="2.25373">
        <ele>926.8483887</ele>
        <time>2014-06-15T08:39:04Z</time>
      </trkpt>
      <trkpt lat="43.4701" lon="2.25388">
        <ele>924.9257813</ele>
        <time>2014-06-15T08:39:12Z</time>
      </trkpt>
      <trkpt lat="43.4701" lon="2.2539">
        <ele>924.9257813</ele>
        <time>2014-06-15T08:39:13Z</time>
      </trkpt>
      <trkpt lat="43.47001" lon="2.25399">
        <ele>922.5222168</ele>
        <time>2014-06-15T08:39:19Z</time>
      </trkpt>
      <trkpt lat="43.4699" lon="2.25404">
        <ele>919.6384277</ele>
        <time>2014-06-15T08:39:23Z</time>
      </trkpt>
      <trkpt lat="43.46979" lon="2.25408">
        <ele>917.7155762</ele>
        <time>2014-06-15T08:39:29Z</time>
      </trkpt>
      <trkpt lat="43.46975" lon="2.2541">
        <ele>917.7155762</ele>
        <time>2014-06-15T08:39:36Z</time>
      </trkpt>
      <trkpt lat="43.46976" lon="2.2541">
        <ele>925.8869629</ele>
        <time>2014-06-15T08:39:45Z</time>
      </trkpt>
      <trkpt lat="43.46964" lon="2.25408">
        <ele>926.8483887</ele>
        <time>2014-06-15T08:39:49Z</time>
      </trkpt>
      <trkpt lat="43.46949" lon="2.25408">
        <ele>930.6936035</ele>
        <time>2014-06-15T08:39:54Z</time>
      </trkpt>
      <trkpt lat="43.46952" lon="2.25407">
        <ele>930.2128906</ele>
        <time>2014-06-15T08:39:58Z</time>
      </trkpt>
      <trkpt lat="43.4697" lon="2.25412">
        <ele>939.3452148</ele>
        <time>2014-06-15T08:40:31Z</time>
      </trkpt>
      <trkpt lat="43.4697" lon="2.25411">
        <ele>935.5</ele>
        <time>2014-06-15T08:40:37Z</time>
      </trkpt>
      <trkpt lat="43.46973" lon="2.25413">
        <ele>925.40625</ele>
        <time>2014-06-15T08:40:42Z</time>
      </trkpt>
      <trkpt lat="43.4697" lon="2.25414">
        <ele>922.0415039</ele>
        <time>2014-06-15T08:40:48Z</time>
      </trkpt>
      <trkpt lat="43.4697" lon="2.25415">
        <ele>923.9641113</ele>
        <time>2014-06-15T08:41:08Z</time>
      </trkpt>
      <trkpt lat="43.46974" lon="2.25424">
        <ele>942.2294922</ele>
        <time>2014-06-15T08:41:38Z</time>
      </trkpt>
      <trkpt lat="43.4697" lon="2.25428">
        <ele>942.7102051</ele>
        <time>2014-06-15T08:41:44Z</time>
      </trkpt>
      <trkpt lat="43.46966" lon="2.25409">
        <ele>932.6162109</ele>
        <time>2014-06-15T08:42:10Z</time>
      </trkpt>
      <trkpt lat="43.46964" lon="2.25411">
        <ele>931.6547852</ele>
        <time>2014-06-15T08:42:15Z</time>
      </trkpt>
      <trkpt lat="43.46963" lon="2.25408">
        <ele>942.7102051</ele>
        <time>2014-06-15T08:42:22Z</time>
      </trkpt>
      <trkpt lat="43.46961" lon="2.2541">
        <ele>953.2844238</ele>
        <time>2014-06-15T08:42:30Z</time>
      </trkpt>
      <trkpt lat="43.46964" lon="2.25421">
        <ele>939.3452148</ele>
        <time>2014-06-15T08:42:43Z</time>
      </trkpt>
      <trkpt lat="43.4696" lon="2.25428">
        <ele>936.4614258</ele>
        <time>2014-06-15T08:42:47Z</time>
      </trkpt>
      <trkpt lat="43.46959" lon="2.25431">
        <ele>935.5</ele>
        <time>2014-06-15T08:42:49Z</time>
      </trkpt>
      <trkpt lat="43.46948" lon="2.25434">
        <ele>935.0195313</ele>
        <time>2014-06-15T08:42:53Z</time>
      </trkpt>
      <trkpt lat="43.46946" lon="2.25436">
        <ele>934.5388184</ele>
        <time>2014-06-15T08:42:54Z</time>
      </trkpt>
      <trkpt lat="43.46933" lon="2.25447">
        <ele>926.8483887</ele>
        <time>2014-06-15T08:43:00Z</time>
      </trkpt>
      <trkpt lat="43.46918" lon="2.25465">
        <ele>923.9641113</ele>
        <time>2014-06-15T08:43:04Z</time>
      </trkpt>
      <trkpt lat="43.46898" lon="2.25486">
        <ele>923.0029297</ele>
        <time>2014-06-15T08:43:07Z</time>
      </trkpt>
      <trkpt lat="43.46865" lon="2.25512">
        <ele>923.4836426</ele>
        <time>2014-06-15T08:43:12Z</time>
      </trkpt>
      <trkpt lat="43.46825" lon="2.25536">
        <ele>918.677002</ele>
        <time>2014-06-15T08:43:18Z</time>
      </trkpt>
      <trkpt lat="43.46798" lon="2.25554">
        <ele>916.7543945</ele>
        <time>2014-06-15T08:43:23Z</time>
      </trkpt>
      <trkpt lat="43.46789" lon="2.2556">
        <ele>917.2351074</ele>
        <time>2014-06-15T08:43:25Z</time>
      </trkpt>
      <trkpt lat="43.46778" lon="2.25567">
        <ele>915.3125</ele>
        <time>2014-06-15T08:43:28Z</time>
      </trkpt>
      <trkpt lat="43.4677" lon="2.25573">
        <ele>914.3510742</ele>
        <time>2014-06-15T08:43:30Z</time>
      </trkpt>
      <trkpt lat="43.46763" lon="2.25575">
        <ele>913.3898926</ele>
        <time>2014-06-15T08:43:32Z</time>
      </trkpt>
      <trkpt lat="43.46747" lon="2.25586">
        <ele>911.4672852</ele>
        <time>2014-06-15T08:43:39Z</time>
      </trkpt>
      <trkpt lat="43.46734" lon="2.25599">
        <ele>914.3510742</ele>
        <time>2014-06-15T08:43:45Z</time>
      </trkpt>
      <trkpt lat="43.46709" lon="2.25616">
        <ele>912.9091797</ele>
        <time>2014-06-15T08:43:53Z</time>
      </trkpt>
      <trkpt lat="43.46689" lon="2.25626">
        <ele>915.3125</ele>
        <time>2014-06-15T08:43:59Z</time>
      </trkpt>
      <trkpt lat="43.46668" lon="2.25632">
        <ele>918.1962891</ele>
        <time>2014-06-15T08:44:05Z</time>
      </trkpt>
      <trkpt lat="43.46642" lon="2.25638">
        <ele>920.1188965</ele>
        <time>2014-06-15T08:44:12Z</time>
      </trkpt>
      <trkpt lat="43.46614" lon="2.25646">
        <ele>917.2351074</ele>
        <time>2014-06-15T08:44:20Z</time>
      </trkpt>
      <trkpt lat="43.46597" lon="2.25659">
        <ele>917.7155762</ele>
        <time>2014-06-15T08:44:25Z</time>
      </trkpt>
      <trkpt lat="43.46589" lon="2.25665">
        <ele>917.7155762</ele>
        <time>2014-06-15T08:44:27Z</time>
      </trkpt>
      <trkpt lat="43.46586" lon="2.25668">
        <ele>917.7155762</ele>
        <time>2014-06-15T08:44:28Z</time>
      </trkpt>
      <trkpt lat="43.46566" lon="2.25679">
        <ele>917.2351074</ele>
        <time>2014-06-15T08:44:32Z</time>
      </trkpt>
      <trkpt lat="43.46547" lon="2.25687">
        <ele>915.3125</ele>
        <time>2014-06-15T08:44:35Z</time>
      </trkpt>
      <trkpt lat="43.4652" lon="2.25689">
        <ele>910.0251465</ele>
        <time>2014-06-15T08:44:39Z</time>
      </trkpt>
      <trkpt lat="43.46496" lon="2.25675">
        <ele>903.2958984</ele>
        <time>2014-06-15T08:44:44Z</time>
      </trkpt>
      <trkpt lat="43.46487" lon="2.2564">
        <ele>902.8151855</ele>
        <time>2014-06-15T08:44:48Z</time>
      </trkpt>
      <trkpt lat="43.46487" lon="2.25629">
        <ele>901.8540039</ele>
        <time>2014-06-15T08:44:49Z</time>
      </trkpt>
      <trkpt lat="43.46488" lon="2.25554">
        <ele>900.4121094</ele>
        <time>2014-06-15T08:44:56Z</time>
      </trkpt>
      <trkpt lat="43.46487" lon="2.25517">
        <ele>900.4121094</ele>
        <time>2014-06-15T08:45:00Z</time>
      </trkpt>
      <trkpt lat="43.46475" lon="2.25495">
        <ele>898.0087891</ele>
        <time>2014-06-15T08:45:04Z</time>
      </trkpt>
      <trkpt lat="43.46461" lon="2.25495">
        <ele>894.644043</ele>
        <time>2014-06-15T08:45:07Z</time>
      </trkpt>
      <trkpt lat="43.46428" lon="2.25504">
        <ele>890.3181152</ele>
        <time>2014-06-15T08:45:12Z</time>
      </trkpt>
      <trkpt lat="43.46378" lon="2.25514">
        <ele>885.5114746</ele>
        <time>2014-06-15T08:45:18Z</time>
      </trkpt>
      <trkpt lat="43.46325" lon="2.25513">
        <ele>878.7824707</ele>
        <time>2014-06-15T08:45:24Z</time>
      </trkpt>
      <trkpt lat="43.46311" lon="2.25513">
        <ele>878.3017578</ele>
        <time>2014-06-15T08:45:26Z</time>
      </trkpt>
      <trkpt lat="43.46294" lon="2.25506">
        <ele>878.7824707</ele>
        <time>2014-06-15T08:45:31Z</time>
      </trkpt>
      <trkpt lat="43.46294" lon="2.25505">
        <ele>880.7050781</ele>
        <time>2014-06-15T08:45:35Z</time>
      </trkpt>
      <trkpt lat="43.46296" lon="2.25507">
        <ele>883.1081543</ele>
        <time>2014-06-15T08:45:42Z</time>
      </trkpt>
      <trkpt lat="43.46295" lon="2.2551">
        <ele>885.5114746</ele>
        <time>2014-06-15T08:45:47Z</time>
      </trkpt>
      <trkpt lat="43.46288" lon="2.25522">
        <ele>893.6828613</ele>
        <time>2014-06-15T08:46:08Z</time>
      </trkpt>
      <trkpt lat="43.46287" lon="2.25525">
        <ele>895.6054688</ele>
        <time>2014-06-15T08:46:26Z</time>
      </trkpt>
      <trkpt lat="43.46284" lon="2.25506">
        <ele>885.9921875</ele>
        <time>2014-06-15T08:46:32Z</time>
      </trkpt>
      <trkpt lat="43.46272" lon="2.25494">
        <ele>881.185791</ele>
        <time>2014-06-15T08:46:38Z</time>
      </trkpt>
      <trkpt lat="43.46256" lon="2.25483">
        <ele>873.0144043</ele>
        <time>2014-06-15T08:46:43Z</time>
      </trkpt>
      <trkpt lat="43.46244" lon="2.25478">
        <ele>868.2077637</ele>
        <time>2014-06-15T08:46:48Z</time>
      </trkpt>
      <trkpt lat="43.46223" lon="2.2547">
        <ele>871.0917969</ele>
        <time>2014-06-15T08:46:55Z</time>
      </trkpt>
      <trkpt lat="43.4621" lon="2.25463">
        <ele>871.5722656</ele>
        <time>2014-06-15T08:47:00Z</time>
      </trkpt>
      <trkpt lat="43.46199" lon="2.25451">
        <ele>873.0144043</ele>
        <time>2014-06-15T08:47:06Z</time>
      </trkpt>
      <trkpt lat="43.46199" lon="2.2545">
        <ele>872.5336914</ele>
        <time>2014-06-15T08:47:07Z</time>
      </trkpt>
      <trkpt lat="43.46198" lon="2.25444">
        <ele>876.8598633</ele>
        <time>2014-06-15T08:47:10Z</time>
      </trkpt>
      <trkpt lat="43.46191" lon="2.25432">
        <ele>877.3405762</ele>
        <time>2014-06-15T08:47:17Z</time>
      </trkpt>
      <trkpt lat="43.46185" lon="2.25422">
        <ele>884.550293</ele>
        <time>2014-06-15T08:47:24Z</time>
      </trkpt>
      <trkpt lat="43.46179" lon="2.25409">
        <ele>887.434082</ele>
        <time>2014-06-15T08:47:30Z</time>
      </trkpt>
      <trkpt lat="43.46178" lon="2.25405">
        <ele>894.644043</ele>
        <time>2014-06-15T08:47:36Z</time>
      </trkpt>
      <trkpt lat="43.46178" lon="2.25402">
        <ele>899.9313965</ele>
        <time>2014-06-15T08:47:42Z</time>
      </trkpt>
      <trkpt lat="43.4618" lon="2.25401">
        <ele>899.9313965</ele>
        <time>2014-06-15T08:47:47Z</time>
      </trkpt>
      <trkpt lat="43.4618" lon="2.254">
        <ele>901.373291</ele>
        <time>2014-06-15T08:47:52Z</time>
      </trkpt>
      <trkpt lat="43.46178" lon="2.25401">
        <ele>896.0861816</ele>
        <time>2014-06-15T08:48:04Z</time>
      </trkpt>
      <trkpt lat="43.46177" lon="2.25402">
        <ele>892.2409668</ele>
        <time>2014-06-15T08:48:16Z</time>
      </trkpt>
      <trkpt lat="43.46179" lon="2.25398">
        <ele>898.4892578</ele>
        <time>2014-06-15T08:48:27Z</time>
      </trkpt>
      <trkpt lat="43.46179" lon="2.25397">
        <ele>895.1247559</ele>
        <time>2014-06-15T08:48:43Z</time>
      </trkpt>
      <trkpt lat="43.46179" lon="2.25394">
        <ele>894.644043</ele>
        <time>2014-06-15T08:48:45Z</time>
      </trkpt>
      <trkpt lat="43.46178" lon="2.25389">
        <ele>890.3181152</ele>
        <time>2014-06-15T08:48:49Z</time>
      </trkpt>
      <trkpt lat="43.46179" lon="2.25375">
        <ele>891.7600098</ele>
        <time>2014-06-15T08:48:54Z</time>
      </trkpt>
      <trkpt lat="43.46178" lon="2.25355">
        <ele>887.9147949</ele>
        <time>2014-06-15T08:48:59Z</time>
      </trkpt>
      <trkpt lat="43.46176" lon="2.25335">
        <ele>884.0695801</ele>
        <time>2014-06-15T08:49:05Z</time>
      </trkpt>
      <trkpt lat="43.46176" lon="2.25322">
        <ele>881.6662598</ele>
        <time>2014-06-15T08:49:10Z</time>
      </trkpt>
      <trkpt lat="43.46172" lon="2.25291">
        <ele>884.0695801</ele>
        <time>2014-06-15T08:49:16Z</time>
      </trkpt>
      <trkpt lat="43.46175" lon="2.25268">
        <ele>884.550293</ele>
        <time>2014-06-15T08:49:21Z</time>
      </trkpt>
      <trkpt lat="43.46171" lon="2.25248">
        <ele>886.9533691</ele>
        <time>2014-06-15T08:49:26Z</time>
      </trkpt>
      <trkpt lat="43.46162" lon="2.25239">
        <ele>884.0695801</ele>
        <time>2014-06-15T08:49:32Z</time>
      </trkpt>
      <trkpt lat="43.46149" lon="2.25237">
        <ele>882.6276855</ele>
        <time>2014-06-15T08:49:38Z</time>
      </trkpt>
      <trkpt lat="43.46139" lon="2.25237">
        <ele>883.5888672</ele>
        <time>2014-06-15T08:49:43Z</time>
      </trkpt>
      <trkpt lat="43.46133" lon="2.25239">
        <ele>883.1081543</ele>
        <time>2014-06-15T08:49:47Z</time>
      </trkpt>
      <trkpt lat="43.46128" lon="2.2524">
        <ele>883.5888672</ele>
        <time>2014-06-15T08:49:50Z</time>
      </trkpt>
      <trkpt lat="43.46125" lon="2.2524">
        <ele>883.5888672</ele>
        <time>2014-06-15T08:49:52Z</time>
      </trkpt>
      <trkpt lat="43.46116" lon="2.25242">
        <ele>884.0695801</ele>
        <time>2014-06-15T08:49:57Z</time>
      </trkpt>
      <trkpt lat="43.46115" lon="2.25242">
        <ele>884.550293</ele>
        <time>2014-06-15T08:49:58Z</time>
      </trkpt>
      <trkpt lat="43.46102" lon="2.25241">
        <ele>885.9921875</ele>
        <time>2014-06-15T08:50:05Z</time>
      </trkpt>
      <trkpt lat="43.46094" lon="2.25245">
        <ele>887.434082</ele>
        <time>2014-06-15T08:50:11Z</time>
      </trkpt>
      <trkpt lat="43.46082" lon="2.25249">
        <ele>888.8762207</ele>
        <time>2014-06-15T08:50:18Z</time>
      </trkpt>
      <trkpt lat="43.46064" lon="2.25256">
        <ele>890.798584</ele>
        <time>2014-06-15T08:50:28Z</time>
      </trkpt>
      <trkpt lat="43.46047" lon="2.2526">
        <ele>892.2409668</ele>
        <time>2014-06-15T08:50:38Z</time>
      </trkpt>
      <trkpt lat="43.46032" lon="2.25262">
        <ele>892.7216797</ele>
        <time>2014-06-15T08:50:46Z</time>
      </trkpt>
      <trkpt lat="43.46023" lon="2.25264">
        <ele>893.2021484</ele>
        <time>2014-06-15T08:50:51Z</time>
      </trkpt>
      <trkpt lat="43.46003" lon="2.25264">
        <ele>893.2021484</ele>
        <time>2014-06-15T08:51:02Z</time>
      </trkpt>
      <trkpt lat="43.45988" lon="2.2526">
        <ele>893.6828613</ele>
        <time>2014-06-15T08:51:10Z</time>
      </trkpt>
      <trkpt lat="43.45977" lon="2.25256">
        <ele>893.2021484</ele>
        <time>2014-06-15T08:51:17Z</time>
      </trkpt>
      <trkpt lat="43.45968" lon="2.25253">
        <ele>893.6828613</ele>
        <time>2014-06-15T08:51:23Z</time>
      </trkpt>
      <trkpt lat="43.45957" lon="2.2525">
        <ele>893.6828613</ele>
        <time>2014-06-15T08:51:29Z</time>
      </trkpt>
      <trkpt lat="43.45953" lon="2.25247">
        <ele>893.6828613</ele>
        <time>2014-06-15T08:51:32Z</time>
      </trkpt>
      <trkpt lat="43.45948" lon="2.25236">
        <ele>891.7600098</ele>
        <time>2014-06-15T08:51:37Z</time>
      </trkpt>
      <trkpt lat="43.45951" lon="2.25212">
        <ele>890.798584</ele>
        <time>2014-06-15T08:51:43Z</time>
      </trkpt>
      <trkpt lat="43.45953" lon="2.25192">
        <ele>890.3181152</ele>
        <time>2014-06-15T08:51:48Z</time>
      </trkpt>
      <trkpt lat="43.45956" lon="2.25163">
        <ele>888.3955078</ele>
        <time>2014-06-15T08:51:54Z</time>
      </trkpt>
      <trkpt lat="43.45959" lon="2.25134">
        <ele>886.9533691</ele>
        <time>2014-06-15T08:51:59Z</time>
      </trkpt>
      <trkpt lat="43.45964" lon="2.25101">
        <ele>885.0310059</ele>
        <time>2014-06-15T08:52:04Z</time>
      </trkpt>
      <trkpt lat="43.45969" lon="2.25056">
        <ele>883.1081543</ele>
        <time>2014-06-15T08:52:10Z</time>
      </trkpt>
      <trkpt lat="43.45973" lon="2.25023">
        <ele>881.6662598</ele>
        <time>2014-06-15T08:52:15Z</time>
      </trkpt>
      <trkpt lat="43.45974" lon="2.25005">
        <ele>882.1469727</ele>
        <time>2014-06-15T08:52:18Z</time>
      </trkpt>
      <trkpt lat="43.45973" lon="2.24998">
        <ele>884.0695801</ele>
        <time>2014-06-15T08:52:23Z</time>
      </trkpt>
      <trkpt lat="43.45974" lon="2.24996">
        <ele>884.0695801</ele>
        <time>2014-06-15T08:52:29Z</time>
      </trkpt>
      <trkpt lat="43.45974" lon="2.24995">
        <ele>884.0695801</ele>
        <time>2014-06-15T08:52:33Z</time>
      </trkpt>
      <trkpt lat="43.45974" lon="2.24995">
        <ele>884.550293</ele>
        <time>2014-06-15T08:52:35Z</time>
      </trkpt>
      <trkpt lat="43.45974" lon="2.24994">
        <ele>885.5114746</ele>
        <time>2014-06-15T08:52:41Z</time>
      </trkpt>
      <trkpt lat="43.45975" lon="2.24991">
        <ele>885.5114746</ele>
        <time>2014-06-15T08:52:43Z</time>
      </trkpt>
      <trkpt lat="43.45974" lon="2.24981">
        <ele>885.5114746</ele>
        <time>2014-06-15T08:52:47Z</time>
      </trkpt>
      <trkpt lat="43.45974" lon="2.24981">
        <ele>884.0695801</ele>
        <time>2014-06-15T08:52:56Z</time>
      </trkpt>
      <trkpt lat="43.45975" lon="2.24981">
        <ele>882.6276855</ele>
        <time>2014-06-15T08:53:05Z</time>
      </trkpt>
      <trkpt lat="43.45974" lon="2.2498">
        <ele>879.7436523</ele>
        <time>2014-06-15T08:53:23Z</time>
      </trkpt>
      <trkpt lat="43.45974" lon="2.24979">
        <ele>880.7050781</ele>
        <time>2014-06-15T08:53:32Z</time>
      </trkpt>
      <trkpt lat="43.45974" lon="2.2498">
        <ele>881.185791</ele>
        <time>2014-06-15T08:53:36Z</time>
      </trkpt>
      <trkpt lat="43.45973" lon="2.24974">
        <ele>880.7050781</ele>
        <time>2014-06-15T08:53:41Z</time>
      </trkpt>
      <trkpt lat="43.45976" lon="2.24956">
        <ele>880.7050781</ele>
        <time>2014-06-15T08:53:46Z</time>
      </trkpt>
      <trkpt lat="43.45979" lon="2.24927">
        <ele>880.7050781</ele>
        <time>2014-06-15T08:53:53Z</time>
      </trkpt>
      <trkpt lat="43.45983" lon="2.24891">
        <ele>880.7050781</ele>
        <time>2014-06-15T08:54:00Z</time>
      </trkpt>
      <trkpt lat="43.45985" lon="2.24837">
        <ele>880.7050781</ele>
        <time>2014-06-15T08:54:10Z</time>
      </trkpt>
      <trkpt lat="43.4599" lon="2.24805">
        <ele>881.185791</ele>
        <time>2014-06-15T08:54:16Z</time>
      </trkpt>
      <trkpt lat="43.46004" lon="2.24769">
        <ele>880.7050781</ele>
        <time>2014-06-15T08:54:23Z</time>
      </trkpt>
      <trkpt lat="43.46017" lon="2.24738">
        <ele>880.2243652</ele>
        <time>2014-06-15T08:54:29Z</time>
      </trkpt>
      <trkpt lat="43.46024" lon="2.24714">
        <ele>879.2629395</ele>
        <time>2014-06-15T08:54:33Z</time>
      </trkpt>
      <trkpt lat="43.46027" lon="2.24662">
        <ele>877.3405762</ele>
        <time>2014-06-15T08:54:40Z</time>
      </trkpt>
      <trkpt lat="43.4603" lon="2.24617">
        <ele>877.8210449</ele>
        <time>2014-06-15T08:54:46Z</time>
      </trkpt>
      <trkpt lat="43.46031" lon="2.24609">
        <ele>877.8210449</ele>
        <time>2014-06-15T08:54:47Z</time>
      </trkpt>
      <trkpt lat="43.46036" lon="2.24581">
        <ele>877.8210449</ele>
        <time>2014-06-15T08:54:51Z</time>
      </trkpt>
      <trkpt lat="43.46049" lon="2.2453">
        <ele>876.3791504</ele>
        <time>2014-06-15T08:54:59Z</time>
      </trkpt>
      <trkpt lat="43.46063" lon="2.24472">
        <ele>875.4174805</ele>
        <time>2014-06-15T08:55:08Z</time>
      </trkpt>
      <trkpt lat="43.46077" lon="2.24417">
        <ele>874.4562988</ele>
        <time>2014-06-15T08:55:16Z</time>
      </trkpt>
      <trkpt lat="43.46082" lon="2.24371">
        <ele>873.0144043</ele>
        <time>2014-06-15T08:55:22Z</time>
      </trkpt>
      <trkpt lat="43.46083" lon="2.24355">
        <ele>872.0529785</ele>
        <time>2014-06-15T08:55:24Z</time>
      </trkpt>
      <trkpt lat="43.46074" lon="2.24301">
        <ele>873.0144043</ele>
        <time>2014-06-15T08:55:30Z</time>
      </trkpt>
      <trkpt lat="43.46071" lon="2.24292">
        <ele>872.5336914</ele>
        <time>2014-06-15T08:55:31Z</time>
      </trkpt>
      <trkpt lat="43.46059" lon="2.24266">
        <ele>871.0917969</ele>
        <time>2014-06-15T08:55:34Z</time>
      </trkpt>
      <trkpt lat="43.46049" lon="2.24214">
        <ele>870.1303711</ele>
        <time>2014-06-15T08:55:39Z</time>
      </trkpt>
      <trkpt lat="43.46054" lon="2.24151">
        <ele>870.1303711</ele>
        <time>2014-06-15T08:55:45Z</time>
      </trkpt>
      <trkpt lat="43.46057" lon="2.2414">
        <ele>870.1303711</ele>
        <time>2014-06-15T08:55:46Z</time>
      </trkpt>
      <trkpt lat="43.46073" lon="2.24104">
        <ele>867.246582</ele>
        <time>2014-06-15T08:55:50Z</time>
      </trkpt>
      <trkpt lat="43.46086" lon="2.24092">
        <ele>863.8818359</ele>
        <time>2014-06-15T08:55:52Z</time>
      </trkpt>
      <trkpt lat="43.46122" lon="2.24073">
        <ele>858.5944824</ele>
        <time>2014-06-15T08:55:57Z</time>
      </trkpt>
      <trkpt lat="43.4613" lon="2.2407">
        <ele>856.671875</ele>
        <time>2014-06-15T08:55:58Z</time>
      </trkpt>
      <trkpt lat="43.46161" lon="2.24066">
        <ele>853.307373</ele>
        <time>2014-06-15T08:56:02Z</time>
      </trkpt>
      <trkpt lat="43.46196" lon="2.24064">
        <ele>849.9428711</ele>
        <time>2014-06-15T08:56:07Z</time>
      </trkpt>
      <trkpt lat="43.46238" lon="2.24062">
        <ele>852.8266602</ele>
        <time>2014-06-15T08:56:13Z</time>
      </trkpt>
      <trkpt lat="43.46258" lon="2.24064">
        <ele>852.8266602</ele>
        <time>2014-06-15T08:56:16Z</time>
      </trkpt>
      <trkpt lat="43.46284" lon="2.24075">
        <ele>853.307373</ele>
        <time>2014-06-15T08:56:20Z</time>
      </trkpt>
      <trkpt lat="43.46297" lon="2.24101">
        <ele>849.4621582</ele>
        <time>2014-06-15T08:56:24Z</time>
      </trkpt>
      <trkpt lat="43.46311" lon="2.24109">
        <ele>848.5007324</ele>
        <time>2014-06-15T08:56:27Z</time>
      </trkpt>
      <trkpt lat="43.46323" lon="2.24097">
        <ele>847.5395508</ele>
        <time>2014-06-15T08:56:29Z</time>
      </trkpt>
      <trkpt lat="43.46342" lon="2.24079">
        <ele>845.6169434</ele>
        <time>2014-06-15T08:56:32Z</time>
      </trkpt>
      <trkpt lat="43.46383" lon="2.24066">
        <ele>844.6555176</ele>
        <time>2014-06-15T08:56:36Z</time>
      </trkpt>
      <trkpt lat="43.46431" lon="2.24052">
        <ele>846.5783691</ele>
        <time>2014-06-15T08:56:42Z</time>
      </trkpt>
      <trkpt lat="43.46473" lon="2.24048">
        <ele>843.2133789</ele>
        <time>2014-06-15T08:56:47Z</time>
      </trkpt>
      <trkpt lat="43.46501" lon="2.24048">
        <ele>840.3295898</ele>
        <time>2014-06-15T08:56:50Z</time>
      </trkpt>
      <trkpt lat="43.46528" lon="2.24061">
        <ele>838.4069824</ele>
        <time>2014-06-15T08:56:55Z</time>
      </trkpt>
      <trkpt lat="43.46544" lon="2.2407">
        <ele>835.0424805</ele>
        <time>2014-06-15T08:56:58Z</time>
      </trkpt>
      <trkpt lat="43.46573" lon="2.24092">
        <ele>829.755127</ele>
        <time>2014-06-15T08:57:03Z</time>
      </trkpt>
      <trkpt lat="43.46578" lon="2.24094">
        <ele>829.755127</ele>
        <time>2014-06-15T08:57:04Z</time>
      </trkpt>
      <trkpt lat="43.46595" lon="2.24097">
        <ele>831.6777344</ele>
        <time>2014-06-15T08:57:08Z</time>
      </trkpt>
      <trkpt lat="43.46613" lon="2.24105">
        <ele>834.0810547</ele>
        <time>2014-06-15T08:57:12Z</time>
      </trkpt>
      <trkpt lat="43.46624" lon="2.24112">
        <ele>835.0424805</ele>
        <time>2014-06-15T08:57:15Z</time>
      </trkpt>
      <trkpt lat="43.46638" lon="2.2413">
        <ele>834.0810547</ele>
        <time>2014-06-15T08:57:21Z</time>
      </trkpt>
      <trkpt lat="43.46647" lon="2.24141">
        <ele>834.5617676</ele>
        <time>2014-06-15T08:57:25Z</time>
      </trkpt>
      <trkpt lat="43.4665" lon="2.24146">
        <ele>832.1584473</ele>
        <time>2014-06-15T08:57:27Z</time>
      </trkpt>
      <trkpt lat="43.46662" lon="2.24157">
        <ele>833.1196289</ele>
        <time>2014-06-15T08:57:32Z</time>
      </trkpt>
      <trkpt lat="43.46675" lon="2.24169">
        <ele>836.484375</ele>
        <time>2014-06-15T08:57:38Z</time>
      </trkpt>
      <trkpt lat="43.46688" lon="2.24174">
        <ele>844.6555176</ele>
        <time>2014-06-15T08:57:43Z</time>
      </trkpt>
      <trkpt lat="43.46699" lon="2.24181">
        <ele>848.0202637</ele>
        <time>2014-06-15T08:57:48Z</time>
      </trkpt>
      <trkpt lat="43.467" lon="2.24182">
        <ele>848.9814453</ele>
        <time>2014-06-15T08:57:49Z</time>
      </trkpt>
      <trkpt lat="43.46713" lon="2.24191">
        <ele>849.9428711</ele>
        <time>2014-06-15T08:57:55Z</time>
      </trkpt>
      <trkpt lat="43.46716" lon="2.24192">
        <ele>850.423584</ele>
        <time>2014-06-15T08:57:56Z</time>
      </trkpt>
      <trkpt lat="43.46728" lon="2.24202">
        <ele>854.7492676</ele>
        <time>2014-06-15T08:58:03Z</time>
      </trkpt>
      <trkpt lat="43.46736" lon="2.24212">
        <ele>852.3459473</ele>
        <time>2014-06-15T08:58:09Z</time>
      </trkpt>
      <trkpt lat="43.46746" lon="2.24221">
        <ele>855.7106934</ele>
        <time>2014-06-15T08:58:14Z</time>
      </trkpt>
      <trkpt lat="43.46747" lon="2.24223">
        <ele>856.1911621</ele>
        <time>2014-06-15T08:58:15Z</time>
      </trkpt>
      <trkpt lat="43.46759" lon="2.2423">
        <ele>858.5944824</ele>
        <time>2014-06-15T08:58:21Z</time>
      </trkpt>
      <trkpt lat="43.46763" lon="2.24232">
        <ele>858.5944824</ele>
        <time>2014-06-15T08:58:23Z</time>
      </trkpt>
      <trkpt lat="43.46772" lon="2.24244">
        <ele>863.4013672</ele>
        <time>2014-06-15T08:58:30Z</time>
      </trkpt>
      <trkpt lat="43.46773" lon="2.24246">
        <ele>864.3625488</ele>
        <time>2014-06-15T08:58:31Z</time>
      </trkpt>
      <trkpt lat="43.46781" lon="2.24257">
        <ele>867.7270508</ele>
        <time>2014-06-15T08:58:39Z</time>
      </trkpt>
      <trkpt lat="43.46787" lon="2.24269">
        <ele>867.246582</ele>
        <time>2014-06-15T08:58:46Z</time>
      </trkpt>
      <trkpt lat="43.46791" lon="2.24279">
        <ele>864.3625488</ele>
        <time>2014-06-15T08:58:53Z</time>
      </trkpt>
      <trkpt lat="43.46794" lon="2.24293">
        <ele>860.9980469</ele>
        <time>2014-06-15T08:59:01Z</time>
      </trkpt>
      <trkpt lat="43.46806" lon="2.2431">
        <ele>863.8818359</ele>
        <time>2014-06-15T08:59:10Z</time>
      </trkpt>
      <trkpt lat="43.46811" lon="2.24322">
        <ele>864.8432617</ele>
        <time>2014-06-15T08:59:17Z</time>
      </trkpt>
      <trkpt lat="43.46811" lon="2.24324">
        <ele>863.8818359</ele>
        <time>2014-06-15T08:59:18Z</time>
      </trkpt>
      <trkpt lat="43.46818" lon="2.2434">
        <ele>865.3239746</ele>
        <time>2014-06-15T08:59:26Z</time>
      </trkpt>
      <trkpt lat="43.46822" lon="2.24348">
        <ele>860.0366211</ele>
        <time>2014-06-15T08:59:32Z</time>
      </trkpt>
      <trkpt lat="43.46823" lon="2.24354">
        <ele>862.4399414</ele>
        <time>2014-06-15T08:59:36Z</time>
      </trkpt>
      <trkpt lat="43.46828" lon="2.24368">
        <ele>866.7658691</ele>
        <time>2014-06-15T08:59:43Z</time>
      </trkpt>
      <trkpt lat="43.46827" lon="2.24373">
        <ele>870.611084</ele>
        <time>2014-06-15T08:59:46Z</time>
      </trkpt>
      <trkpt lat="43.46824" lon="2.24382">
        <ele>868.2077637</ele>
        <time>2014-06-15T08:59:51Z</time>
      </trkpt>
      <trkpt lat="43.46821" lon="2.24387">
        <ele>870.1303711</ele>
        <time>2014-06-15T08:59:54Z</time>
      </trkpt>
      <trkpt lat="43.46824" lon="2.24401">
        <ele>867.246582</ele>
        <time>2014-06-15T09:00:00Z</time>
      </trkpt>
      <trkpt lat="43.46824" lon="2.24409">
        <ele>864.3625488</ele>
        <time>2014-06-15T09:00:04Z</time>
      </trkpt>
      <trkpt lat="43.4682" lon="2.24421">
        <ele>862.9206543</ele>
        <time>2014-06-15T09:00:10Z</time>
      </trkpt>
      <trkpt lat="43.46821" lon="2.24437">
        <ele>864.8432617</ele>
        <time>2014-06-15T09:00:16Z</time>
      </trkpt>
      <trkpt lat="43.4682" lon="2.2445">
        <ele>867.7270508</ele>
        <time>2014-06-15T09:00:22Z</time>
      </trkpt>
      <trkpt lat="43.4682" lon="2.24455">
        <ele>868.6884766</ele>
        <time>2014-06-15T09:00:24Z</time>
      </trkpt>
      <trkpt lat="43.46819" lon="2.24462">
        <ele>867.246582</ele>
        <time>2014-06-15T09:00:28Z</time>
      </trkpt>
      <trkpt lat="43.46815" lon="2.24468">
        <ele>865.3239746</ele>
        <time>2014-06-15T09:00:32Z</time>
      </trkpt>
      <trkpt lat="43.46814" lon="2.24472">
        <ele>867.246582</ele>
        <time>2014-06-15T09:00:34Z</time>
      </trkpt>
      <trkpt lat="43.46814" lon="2.24495">
        <ele>880.7050781</ele>
        <time>2014-06-15T09:00:43Z</time>
      </trkpt>
      <trkpt lat="43.46812" lon="2.24504">
        <ele>886.4729004</ele>
        <time>2014-06-15T09:00:48Z</time>
      </trkpt>
      <trkpt lat="43.46809" lon="2.24516">
        <ele>886.9533691</ele>
        <time>2014-06-15T09:00:55Z</time>
      </trkpt>
      <trkpt lat="43.46808" lon="2.24523">
        <ele>883.1081543</ele>
        <time>2014-06-15T09:01:00Z</time>
      </trkpt>
      <trkpt lat="43.46812" lon="2.24536">
        <ele>884.550293</ele>
        <time>2014-06-15T09:01:06Z</time>
      </trkpt>
      <trkpt lat="43.46823" lon="2.24551">
        <ele>884.550293</ele>
        <time>2014-06-15T09:01:15Z</time>
      </trkpt>
      <trkpt lat="43.4683" lon="2.24562">
        <ele>881.6662598</ele>
        <time>2014-06-15T09:01:22Z</time>
      </trkpt>
      <trkpt lat="43.46839" lon="2.24572">
        <ele>881.6662598</ele>
        <time>2014-06-15T09:01:29Z</time>
      </trkpt>
      <trkpt lat="43.46845" lon="2.2458">
        <ele>878.7824707</ele>
        <time>2014-06-15T09:01:36Z</time>
      </trkpt>
      <trkpt lat="43.46855" lon="2.24589">
        <ele>875.8981934</ele>
        <time>2014-06-15T09:01:44Z</time>
      </trkpt>
      <trkpt lat="43.46867" lon="2.24594">
        <ele>881.6662598</ele>
        <time>2014-06-15T09:01:50Z</time>
      </trkpt>
      <trkpt lat="43.46872" lon="2.24595">
        <ele>885.5114746</ele>
        <time>2014-06-15T09:01:53Z</time>
      </trkpt>
      <trkpt lat="43.46882" lon="2.24601">
        <ele>888.3955078</ele>
        <time>2014-06-15T09:01:59Z</time>
      </trkpt>
      <trkpt lat="43.46891" lon="2.2461">
        <ele>886.4729004</ele>
        <time>2014-06-15T09:02:05Z</time>
      </trkpt>
      <trkpt lat="43.469" lon="2.24613">
        <ele>886.9533691</ele>
        <time>2014-06-15T09:02:11Z</time>
      </trkpt>
      <trkpt lat="43.46912" lon="2.24621">
        <ele>890.3181152</ele>
        <time>2014-06-15T09:02:17Z</time>
      </trkpt>
      <trkpt lat="43.46919" lon="2.24626">
        <ele>892.7216797</ele>
        <time>2014-06-15T09:02:25Z</time>
      </trkpt>
      <trkpt lat="43.46927" lon="2.2463">
        <ele>889.8374023</ele>
        <time>2014-06-15T09:02:30Z</time>
      </trkpt>
      <trkpt lat="43.46933" lon="2.24632">
        <ele>889.8374023</ele>
        <time>2014-06-15T09:02:35Z</time>
      </trkpt>
      <trkpt lat="43.46937" lon="2.24635">
        <ele>888.3955078</ele>
        <time>2014-06-15T09:02:40Z</time>
      </trkpt>
      <trkpt lat="43.46942" lon="2.24638">
        <ele>885.0310059</ele>
        <time>2014-06-15T09:02:44Z</time>
      </trkpt>
      <trkpt lat="43.46944" lon="2.24639">
        <ele>884.0695801</ele>
        <time>2014-06-15T09:02:45Z</time>
      </trkpt>
      <trkpt lat="43.46956" lon="2.24642">
        <ele>882.6276855</ele>
        <time>2014-06-15T09:02:51Z</time>
      </trkpt>
      <trkpt lat="43.46966" lon="2.24638">
        <ele>886.9533691</ele>
        <time>2014-06-15T09:02:57Z</time>
      </trkpt>
      <trkpt lat="43.46976" lon="2.24641">
        <ele>889.3566895</ele>
        <time>2014-06-15T09:03:03Z</time>
      </trkpt>
      <trkpt lat="43.46987" lon="2.24645">
        <ele>889.8374023</ele>
        <time>2014-06-15T09:03:09Z</time>
      </trkpt>
      <trkpt lat="43.46994" lon="2.24648">
        <ele>890.3181152</ele>
        <time>2014-06-15T09:03:13Z</time>
      </trkpt>
      <trkpt lat="43.47004" lon="2.24653">
        <ele>892.7216797</ele>
        <time>2014-06-15T09:03:19Z</time>
      </trkpt>
      <trkpt lat="43.47017" lon="2.24661">
        <ele>898.9699707</ele>
        <time>2014-06-15T09:03:27Z</time>
      </trkpt>
      <trkpt lat="43.47023" lon="2.24668">
        <ele>899.9313965</ele>
        <time>2014-06-15T09:03:32Z</time>
      </trkpt>
      <trkpt lat="43.47029" lon="2.24678">
        <ele>896.0861816</ele>
        <time>2014-06-15T09:03:38Z</time>
      </trkpt>
      <trkpt lat="43.47029" lon="2.24681">
        <ele>895.6054688</ele>
        <time>2014-06-15T09:03:39Z</time>
      </trkpt>
      <trkpt lat="43.47035" lon="2.24693">
        <ele>895.6054688</ele>
        <time>2014-06-15T09:03:46Z</time>
      </trkpt>
      <trkpt lat="43.47036" lon="2.24696">
        <ele>896.5668945</ele>
        <time>2014-06-15T09:03:48Z</time>
      </trkpt>
      <trkpt lat="43.47037" lon="2.24709">
        <ele>903.7766113</ele>
        <time>2014-06-15T09:03:55Z</time>
      </trkpt>
      <trkpt lat="43.4704" lon="2.24718">
        <ele>906.1796875</ele>
        <time>2014-06-15T09:04:00Z</time>
      </trkpt>
      <trkpt lat="43.4704" lon="2.24732">
        <ele>903.7766113</ele>
        <time>2014-06-15T09:04:06Z</time>
      </trkpt>
      <trkpt lat="43.47038" lon="2.24745">
        <ele>899.9313965</ele>
        <time>2014-06-15T09:04:12Z</time>
      </trkpt>
      <trkpt lat="43.47034" lon="2.24759">
        <ele>897.5280762</ele>
        <time>2014-06-15T09:04:20Z</time>
      </trkpt>
      <trkpt lat="43.47031" lon="2.24774">
        <ele>897.5280762</ele>
        <time>2014-06-15T09:04:27Z</time>
      </trkpt>
      <trkpt lat="43.47029" lon="2.2479">
        <ele>900.8925781</ele>
        <time>2014-06-15T09:04:33Z</time>
      </trkpt>
      <trkpt lat="43.47024" lon="2.24809">
        <ele>901.8540039</ele>
        <time>2014-06-15T09:04:42Z</time>
      </trkpt>
      <trkpt lat="43.47021" lon="2.24825">
        <ele>904.737793</ele>
        <time>2014-06-15T09:04:49Z</time>
      </trkpt>
      <trkpt lat="43.47015" lon="2.24841">
        <ele>907.1411133</ele>
        <time>2014-06-15T09:04:57Z</time>
      </trkpt>
      <trkpt lat="43.47009" lon="2.24859">
        <ele>908.583252</ele>
        <time>2014-06-15T09:05:06Z</time>
      </trkpt>
      <trkpt lat="43.47006" lon="2.24865">
        <ele>906.1796875</ele>
        <time>2014-06-15T09:05:10Z</time>
      </trkpt>
      <trkpt lat="43.47002" lon="2.2489">
        <ele>910.5058594</ele>
        <time>2014-06-15T09:05:19Z</time>
      </trkpt>
      <trkpt lat="43.46997" lon="2.2491">
        <ele>912.4284668</ele>
        <time>2014-06-15T09:05:27Z</time>
      </trkpt>
      <trkpt lat="43.46994" lon="2.2493">
        <ele>916.7543945</ele>
        <time>2014-06-15T09:05:35Z</time>
      </trkpt>
      <trkpt lat="43.46992" lon="2.24947">
        <ele>919.1577148</ele>
        <time>2014-06-15T09:05:42Z</time>
      </trkpt>
      <trkpt lat="43.46988" lon="2.2496">
        <ele>914.3510742</ele>
        <time>2014-06-15T09:05:49Z</time>
      </trkpt>
      <trkpt lat="43.46987" lon="2.24967">
        <ele>916.7543945</ele>
        <time>2014-06-15T09:05:52Z</time>
      </trkpt>
      <trkpt lat="43.46979" lon="2.24985">
        <ele>917.2351074</ele>
        <time>2014-06-15T09:06:00Z</time>
      </trkpt>
      <trkpt lat="43.46973" lon="2.25008">
        <ele>924.9257813</ele>
        <time>2014-06-15T09:06:08Z</time>
      </trkpt>
      <trkpt lat="43.46968" lon="2.25019">
        <ele>921.0803223</ele>
        <time>2014-06-15T09:06:15Z</time>
      </trkpt>
      <trkpt lat="43.46964" lon="2.2503">
        <ele>916.7543945</ele>
        <time>2014-06-15T09:06:22Z</time>
      </trkpt>
      <trkpt lat="43.46962" lon="2.25042">
        <ele>913.8703613</ele>
        <time>2014-06-15T09:06:29Z</time>
      </trkpt>
      <trkpt lat="43.46959" lon="2.25053">
        <ele>911.4672852</ele>
        <time>2014-06-15T09:06:35Z</time>
      </trkpt>
      <trkpt lat="43.46958" lon="2.25065">
        <ele>910.5058594</ele>
        <time>2014-06-15T09:06:41Z</time>
      </trkpt>
      <trkpt lat="43.46956" lon="2.25081">
        <ele>911.947998</ele>
        <time>2014-06-15T09:06:48Z</time>
      </trkpt>
      <trkpt lat="43.46955" lon="2.25097">
        <ele>912.4284668</ele>
        <time>2014-06-15T09:06:56Z</time>
      </trkpt>
      <trkpt lat="43.46955" lon="2.25113">
        <ele>916.2736816</ele>
        <time>2014-06-15T09:07:02Z</time>
      </trkpt>
      <trkpt lat="43.46956" lon="2.2513">
        <ele>920.5996094</ele>
        <time>2014-06-15T09:07:09Z</time>
      </trkpt>
      <trkpt lat="43.46955" lon="2.25142">
        <ele>918.677002</ele>
        <time>2014-06-15T09:07:15Z</time>
      </trkpt>
      <trkpt lat="43.46954" lon="2.25151">
        <ele>920.1188965</ele>
        <time>2014-06-15T09:07:19Z</time>
      </trkpt>
      <trkpt lat="43.4695" lon="2.25164">
        <ele>920.5996094</ele>
        <time>2014-06-15T09:07:27Z</time>
      </trkpt>
      <trkpt lat="43.46951" lon="2.25178">
        <ele>925.40625</ele>
        <time>2014-06-15T09:07:34Z</time>
      </trkpt>
      <trkpt lat="43.46954" lon="2.25186">
        <ele>927.3291016</ele>
        <time>2014-06-15T09:07:38Z</time>
      </trkpt>
      <trkpt lat="43.46959" lon="2.25203">
        <ele>930.2128906</ele>
        <time>2014-06-15T09:07:45Z</time>
      </trkpt>
      <trkpt lat="43.46963" lon="2.25219">
        <ele>929.2514648</ele>
        <time>2014-06-15T09:07:52Z</time>
      </trkpt>
      <trkpt lat="43.46969" lon="2.25239">
        <ele>927.8095703</ele>
        <time>2014-06-15T09:07:57Z</time>
      </trkpt>
      <trkpt lat="43.46979" lon="2.25257">
        <ele>931.6547852</ele>
        <time>2014-06-15T09:08:02Z</time>
      </trkpt>
      <trkpt lat="43.46988" lon="2.25275">
        <ele>931.1743164</ele>
        <time>2014-06-15T09:08:07Z</time>
      </trkpt>
      <trkpt lat="43.46985" lon="2.25293">
        <ele>929.7321777</ele>
        <time>2014-06-15T09:08:11Z</time>
      </trkpt>
      <trkpt lat="43.46981" lon="2.25303">
        <ele>927.8095703</ele>
        <time>2014-06-15T09:08:13Z</time>
      </trkpt>
      <trkpt lat="43.46975" lon="2.25332">
        <ele>924.9257813</ele>
        <time>2014-06-15T09:08:19Z</time>
      </trkpt>
      <trkpt lat="43.46974" lon="2.25358">
        <ele>923.4836426</ele>
        <time>2014-06-15T09:08:25Z</time>
      </trkpt>
      <trkpt lat="43.46965" lon="2.25376">
        <ele>919.1577148</ele>
        <time>2014-06-15T09:08:30Z</time>
      </trkpt>
      <trkpt lat="43.46964" lon="2.25396">
        <ele>914.3510742</ele>
        <time>2014-06-15T09:08:35Z</time>
      </trkpt>
      <trkpt lat="43.46964" lon="2.25404">
        <ele>919.6384277</ele>
        <time>2014-06-15T09:08:40Z</time>
      </trkpt>
      <trkpt lat="43.46963" lon="2.2541">
        <ele>925.40625</ele>
        <time>2014-06-15T09:08:49Z</time>
      </trkpt>
      <trkpt lat="43.46959" lon="2.25419">
        <ele>931.6547852</ele>
        <time>2014-06-15T09:08:55Z</time>
      </trkpt>
      <trkpt lat="43.46951" lon="2.25434">
        <ele>939.8259277</ele>
        <time>2014-06-15T09:09:01Z</time>
      </trkpt>
      <trkpt lat="43.46938" lon="2.25457">
        <ele>943.1906738</ele>
        <time>2014-06-15T09:09:07Z</time>
      </trkpt>
      <trkpt lat="43.46913" lon="2.25469">
        <ele>936.4614258</ele>
        <time>2014-06-15T09:09:12Z</time>
      </trkpt>
      <trkpt lat="43.469" lon="2.25474">
        <ele>929.7321777</ele>
        <time>2014-06-15T09:09:15Z</time>
      </trkpt>
      <trkpt lat="43.46897" lon="2.25483">
        <ele>919.1577148</ele>
        <time>2014-06-15T09:09:19Z</time>
      </trkpt>
      <trkpt lat="43.46912" lon="2.25495">
        <ele>913.8703613</ele>
        <time>2014-06-15T09:09:25Z</time>
      </trkpt>
      <trkpt lat="43.46935" lon="2.25508">
        <ele>910.9865723</ele>
        <time>2014-06-15T09:09:32Z</time>
      </trkpt>
      <trkpt lat="43.46944" lon="2.25521">
        <ele>909.5446777</ele>
        <time>2014-06-15T09:09:36Z</time>
      </trkpt>
      <trkpt lat="43.46938" lon="2.2554">
        <ele>912.4284668</ele>
        <time>2014-06-15T09:09:41Z</time>
      </trkpt>
      <trkpt lat="43.46939" lon="2.25558">
        <ele>913.3898926</ele>
        <time>2014-06-15T09:09:45Z</time>
      </trkpt>
      <trkpt lat="43.46936" lon="2.25564">
        <ele>914.3510742</ele>
        <time>2014-06-15T09:09:46Z</time>
      </trkpt>
      <trkpt lat="43.4693" lon="2.25591">
        <ele>911.947998</ele>
        <time>2014-06-15T09:09:51Z</time>
      </trkpt>
      <trkpt lat="43.4693" lon="2.25627">
        <ele>916.2736816</ele>
        <time>2014-06-15T09:09:56Z</time>
      </trkpt>
      <trkpt lat="43.46944" lon="2.25654">
        <ele>910.5058594</ele>
        <time>2014-06-15T09:10:00Z</time>
      </trkpt>
      <trkpt lat="43.46954" lon="2.25684">
        <ele>908.1027832</ele>
        <time>2014-06-15T09:10:05Z</time>
      </trkpt>
      <trkpt lat="43.46949" lon="2.25702">
        <ele>910.9865723</ele>
        <time>2014-06-15T09:10:09Z</time>
      </trkpt>
      <trkpt lat="43.46946" lon="2.25706">
        <ele>912.4284668</ele>
        <time>2014-06-15T09:10:10Z</time>
      </trkpt>
      <trkpt lat="43.46933" lon="2.25732">
        <ele>916.2736816</ele>
        <time>2014-06-15T09:10:16Z</time>
      </trkpt>
      <trkpt lat="43.46931" lon="2.25744">
        <ele>915.3125</ele>
        <time>2014-06-15T09:10:18Z</time>
      </trkpt>
      <trkpt lat="43.46928" lon="2.25762">
        <ele>914.8317871</ele>
        <time>2014-06-15T09:10:21Z</time>
      </trkpt>
      <trkpt lat="43.46925" lon="2.25792">
        <ele>915.3125</ele>
        <time>2014-06-15T09:10:26Z</time>
      </trkpt>
      <trkpt lat="43.46918" lon="2.25808">
        <ele>915.3125</ele>
        <time>2014-06-15T09:10:30Z</time>
      </trkpt>
      <trkpt lat="43.46907" lon="2.25826">
        <ele>915.7932129</ele>
        <time>2014-06-15T09:10:35Z</time>
      </trkpt>
      <trkpt lat="43.46884" lon="2.25851">
        <ele>917.2351074</ele>
        <time>2014-06-15T09:10:42Z</time>
      </trkpt>
      <trkpt lat="43.4688" lon="2.25859">
        <ele>916.7543945</ele>
        <time>2014-06-15T09:10:44Z</time>
      </trkpt>
      <trkpt lat="43.46867" lon="2.25877">
        <ele>913.8703613</ele>
        <time>2014-06-15T09:10:50Z</time>
      </trkpt>
      <trkpt lat="43.46854" lon="2.25895">
        <ele>911.947998</ele>
        <time>2014-06-15T09:10:56Z</time>
      </trkpt>
      <trkpt lat="43.4684" lon="2.25912">
        <ele>916.2736816</ele>
        <time>2014-06-15T09:11:01Z</time>
      </trkpt>
      <trkpt lat="43.46829" lon="2.25929">
        <ele>918.1962891</ele>
        <time>2014-06-15T09:11:06Z</time>
      </trkpt>
      <trkpt lat="43.4682" lon="2.25943">
        <ele>922.0415039</ele>
        <time>2014-06-15T09:11:11Z</time>
      </trkpt>
      <trkpt lat="43.46813" lon="2.25957">
        <ele>925.8869629</ele>
        <time>2014-06-15T09:11:16Z</time>
      </trkpt>
      <trkpt lat="43.468" lon="2.25977">
        <ele>926.8483887</ele>
        <time>2014-06-15T09:11:23Z</time>
      </trkpt>
      <trkpt lat="43.4679" lon="2.25995">
        <ele>924.4450684</ele>
        <time>2014-06-15T09:11:28Z</time>
      </trkpt>
      <trkpt lat="43.46786" lon="2.26011">
        <ele>923.0029297</ele>
        <time>2014-06-15T09:11:32Z</time>
      </trkpt>
      <trkpt lat="43.46783" lon="2.26031">
        <ele>917.2351074</ele>
        <time>2014-06-15T09:11:38Z</time>
      </trkpt>
      <trkpt lat="43.46778" lon="2.26051">
        <ele>918.1962891</ele>
        <time>2014-06-15T09:11:43Z</time>
      </trkpt>
      <trkpt lat="43.4678" lon="2.26072">
        <ele>913.3898926</ele>
        <time>2014-06-15T09:11:48Z</time>
      </trkpt>
      <trkpt lat="43.46778" lon="2.26091">
        <ele>909.5446777</ele>
        <time>2014-06-15T09:11:53Z</time>
      </trkpt>
      <trkpt lat="43.46788" lon="2.26108">
        <ele>904.737793</ele>
        <time>2014-06-15T09:11:58Z</time>
      </trkpt>
      <trkpt lat="43.46803" lon="2.2612">
        <ele>903.2958984</ele>
        <time>2014-06-15T09:12:04Z</time>
      </trkpt>
      <trkpt lat="43.46817" lon="2.26132">
        <ele>909.5446777</ele>
        <time>2014-06-15T09:12:10Z</time>
      </trkpt>
      <trkpt lat="43.46829" lon="2.2614">
        <ele>912.4284668</ele>
        <time>2014-06-15T09:12:14Z</time>
      </trkpt>
      <trkpt lat="43.46834" lon="2.26149">
        <ele>915.3125</ele>
        <time>2014-06-15T09:12:19Z</time>
      </trkpt>
      <trkpt lat="43.46841" lon="2.26161">
        <ele>914.8317871</ele>
        <time>2014-06-15T09:12:24Z</time>
      </trkpt>
      <trkpt lat="43.46841" lon="2.26163">
        <ele>913.8703613</ele>
        <time>2014-06-15T09:12:25Z</time>
      </trkpt>
      <trkpt lat="43.46836" lon="2.26183">
        <ele>918.677002</ele>
        <time>2014-06-15T09:12:31Z</time>
      </trkpt>
      <trkpt lat="43.46829" lon="2.26199">
        <ele>923.0029297</ele>
        <time>2014-06-15T09:12:37Z</time>
      </trkpt>
      <trkpt lat="43.46816" lon="2.26215">
        <ele>931.6547852</ele>
        <time>2014-06-15T09:12:44Z</time>
      </trkpt>
      <trkpt lat="43.46812" lon="2.2623">
        <ele>929.2514648</ele>
        <time>2014-06-15T09:12:50Z</time>
      </trkpt>
      <trkpt lat="43.46809" lon="2.26246">
        <ele>925.8869629</ele>
        <time>2014-06-15T09:12:57Z</time>
      </trkpt>
      <trkpt lat="43.46807" lon="2.26249">
        <ele>925.40625</ele>
        <time>2014-06-15T09:12:59Z</time>
      </trkpt>
      <trkpt lat="43.46798" lon="2.26263">
        <ele>926.3676758</ele>
        <time>2014-06-15T09:13:07Z</time>
      </trkpt>
      <trkpt lat="43.4679" lon="2.26273">
        <ele>927.3291016</ele>
        <time>2014-06-15T09:13:13Z</time>
      </trkpt>
      <trkpt lat="43.46785" lon="2.26286">
        <ele>925.8869629</ele>
        <time>2014-06-15T09:13:19Z</time>
      </trkpt>
      <trkpt lat="43.46781" lon="2.26296">
        <ele>931.1743164</ele>
        <time>2014-06-15T09:13:25Z</time>
      </trkpt>
      <trkpt lat="43.46773" lon="2.2631">
        <ele>930.6936035</ele>
        <time>2014-06-15T09:13:32Z</time>
      </trkpt>
      <trkpt lat="43.46771" lon="2.2631">
        <ele>923.4836426</ele>
        <time>2014-06-15T09:13:37Z</time>
      </trkpt>
      <trkpt lat="43.46757" lon="2.26305">
        <ele>921.0803223</ele>
        <time>2014-06-15T09:13:43Z</time>
      </trkpt>
      <trkpt lat="43.4675" lon="2.26304">
        <ele>922.0415039</ele>
        <time>2014-06-15T09:13:48Z</time>
      </trkpt>
      <trkpt lat="43.46738" lon="2.26305">
        <ele>928.2902832</ele>
        <time>2014-06-15T09:13:54Z</time>
      </trkpt>
      <trkpt lat="43.46722" lon="2.26306">
        <ele>931.6547852</ele>
        <time>2014-06-15T09:14:01Z</time>
      </trkpt>
      <trkpt lat="43.467" lon="2.26316">
        <ele>934.0581055</ele>
        <time>2014-06-15T09:14:08Z</time>
      </trkpt>
      <trkpt lat="43.46684" lon="2.26317">
        <ele>934.5388184</ele>
        <time>2014-06-15T09:14:13Z</time>
      </trkpt>
      <trkpt lat="43.46662" lon="2.2632">
        <ele>935.9807129</ele>
        <time>2014-06-15T09:14:19Z</time>
      </trkpt>
      <trkpt lat="43.46645" lon="2.26321">
        <ele>933.0966797</ele>
        <time>2014-06-15T09:14:25Z</time>
      </trkpt>
      <trkpt lat="43.46622" lon="2.26324">
        <ele>931.1743164</ele>
        <time>2014-06-15T09:14:31Z</time>
      </trkpt>
      <trkpt lat="43.46607" lon="2.26327">
        <ele>928.7709961</ele>
        <time>2014-06-15T09:14:36Z</time>
      </trkpt>
      <trkpt lat="43.46584" lon="2.26329">
        <ele>923.4836426</ele>
        <time>2014-06-15T09:14:42Z</time>
      </trkpt>
      <trkpt lat="43.46567" lon="2.26336">
        <ele>920.1188965</ele>
        <time>2014-06-15T09:14:48Z</time>
      </trkpt>
      <trkpt lat="43.46553" lon="2.2634">
        <ele>920.1188965</ele>
        <time>2014-06-15T09:14:54Z</time>
      </trkpt>
      <trkpt lat="43.46532" lon="2.26339">
        <ele>917.2351074</ele>
        <time>2014-06-15T09:15:00Z</time>
      </trkpt>
      <trkpt lat="43.46516" lon="2.26343">
        <ele>917.2351074</ele>
        <time>2014-06-15T09:15:05Z</time>
      </trkpt>
      <trkpt lat="43.46504" lon="2.26339">
        <ele>917.2351074</ele>
        <time>2014-06-15T09:15:11Z</time>
      </trkpt>
      <trkpt lat="43.46489" lon="2.26337">
        <ele>922.0415039</ele>
        <time>2014-06-15T09:15:18Z</time>
      </trkpt>
      <trkpt lat="43.46467" lon="2.26333">
        <ele>925.8869629</ele>
        <time>2014-06-15T09:15:25Z</time>
      </trkpt>
      <trkpt lat="43.46446" lon="2.26337">
        <ele>930.6936035</ele>
        <time>2014-06-15T09:15:31Z</time>
      </trkpt>
      <trkpt lat="43.4643" lon="2.26346">
        <ele>936.4614258</ele>
        <time>2014-06-15T09:15:37Z</time>
      </trkpt>
      <trkpt lat="43.46413" lon="2.26355">
        <ele>937.4226074</ele>
        <time>2014-06-15T09:15:44Z</time>
      </trkpt>
      <trkpt lat="43.46393" lon="2.26358">
        <ele>937.9033203</ele>
        <time>2014-06-15T09:15:50Z</time>
      </trkpt>
      <trkpt lat="43.46378" lon="2.26366">
        <ele>939.3452148</ele>
        <time>2014-06-15T09:15:56Z</time>
      </trkpt>
      <trkpt lat="43.4637" lon="2.26373">
        <ele>938.8647461</ele>
        <time>2014-06-15T09:16:00Z</time>
      </trkpt>
      <trkpt lat="43.46357" lon="2.2638">
        <ele>938.8647461</ele>
        <time>2014-06-15T09:16:06Z</time>
      </trkpt>
      <trkpt lat="43.46349" lon="2.26382">
        <ele>937.4226074</ele>
        <time>2014-06-15T09:16:10Z</time>
      </trkpt>
      <trkpt lat="43.46317" lon="2.26358">
        <ele>930.2128906</ele>
        <time>2014-06-15T09:16:17Z</time>
      </trkpt>
      <trkpt lat="43.46315" lon="2.26355">
        <ele>929.7321777</ele>
        <time>2014-06-15T09:16:18Z</time>
      </trkpt>
      <trkpt lat="43.4631" lon="2.26348">
        <ele>927.8095703</ele>
        <time>2014-06-15T09:16:20Z</time>
      </trkpt>
      <trkpt lat="43.46292" lon="2.26332">
        <ele>917.7155762</ele>
        <time>2014-06-15T09:16:26Z</time>
      </trkpt>
      <trkpt lat="43.4627" lon="2.26314">
        <ele>915.3125</ele>
        <time>2014-06-15T09:16:32Z</time>
      </trkpt>
      <trkpt lat="43.46256" lon="2.26309">
        <ele>911.947998</ele>
        <time>2014-06-15T09:16:37Z</time>
      </trkpt>
      <trkpt lat="43.46245" lon="2.26299">
        <ele>914.3510742</ele>
        <time>2014-06-15T09:16:42Z</time>
      </trkpt>
      <trkpt lat="43.46224" lon="2.26287">
        <ele>910.9865723</ele>
        <time>2014-06-15T09:16:50Z</time>
      </trkpt>
      <trkpt lat="43.46201" lon="2.26273">
        <ele>912.9091797</ele>
        <time>2014-06-15T09:16:58Z</time>
      </trkpt>
      <trkpt lat="43.46179" lon="2.26263">
        <ele>911.4672852</ele>
        <time>2014-06-15T09:17:03Z</time>
      </trkpt>
      <trkpt lat="43.46156" lon="2.26257">
        <ele>907.6218262</ele>
        <time>2014-06-15T09:17:08Z</time>
      </trkpt>
      <trkpt lat="43.46144" lon="2.26252">
        <ele>907.6218262</ele>
        <time>2014-06-15T09:17:14Z</time>
      </trkpt>
      <trkpt lat="43.46124" lon="2.26248">
        <ele>910.0251465</ele>
        <time>2014-06-15T09:17:20Z</time>
      </trkpt>
      <trkpt lat="43.46104" lon="2.26238">
        <ele>907.1411133</ele>
        <time>2014-06-15T09:17:26Z</time>
      </trkpt>
      <trkpt lat="43.46087" lon="2.26229">
        <ele>909.0639648</ele>
        <time>2014-06-15T09:17:31Z</time>
      </trkpt>
      <trkpt lat="43.46068" lon="2.26218">
        <ele>908.583252</ele>
        <time>2014-06-15T09:17:36Z</time>
      </trkpt>
      <trkpt lat="43.46063" lon="2.26215">
        <ele>909.0639648</ele>
        <time>2014-06-15T09:17:37Z</time>
      </trkpt>
      <trkpt lat="43.46051" lon="2.26207">
        <ele>906.6604004</ele>
        <time>2014-06-15T09:17:40Z</time>
      </trkpt>
      <trkpt lat="43.46036" lon="2.26199">
        <ele>904.2573242</ele>
        <time>2014-06-15T09:17:43Z</time>
      </trkpt>
      <trkpt lat="43.46005" lon="2.26197">
        <ele>903.7766113</ele>
        <time>2014-06-15T09:17:50Z</time>
      </trkpt>
      <trkpt lat="43.45997" lon="2.26197">
        <ele>903.7766113</ele>
        <time>2014-06-15T09:17:52Z</time>
      </trkpt>
      <trkpt lat="43.45986" lon="2.26199">
        <ele>906.1796875</ele>
        <time>2014-06-15T09:17:55Z</time>
      </trkpt>
      <trkpt lat="43.45966" lon="2.26203">
        <ele>910.9865723</ele>
        <time>2014-06-15T09:17:59Z</time>
      </trkpt>
      <trkpt lat="43.45954" lon="2.26209">
        <ele>912.9091797</ele>
        <time>2014-06-15T09:18:02Z</time>
      </trkpt>
      <trkpt lat="43.4593" lon="2.26225">
        <ele>918.677002</ele>
        <time>2014-06-15T09:18:09Z</time>
      </trkpt>
      <trkpt lat="43.45911" lon="2.26233">
        <ele>922.0415039</ele>
        <time>2014-06-15T09:18:15Z</time>
      </trkpt>
      <trkpt lat="43.45886" lon="2.26239">
        <ele>916.7543945</ele>
        <time>2014-06-15T09:18:20Z</time>
      </trkpt>
      <trkpt lat="43.45881" lon="2.26241">
        <ele>913.8703613</ele>
        <time>2014-06-15T09:18:21Z</time>
      </trkpt>
      <trkpt lat="43.45846" lon="2.26246">
        <ele>908.1027832</ele>
        <time>2014-06-15T09:18:26Z</time>
      </trkpt>
      <trkpt lat="43.45827" lon="2.2625">
        <ele>907.6218262</ele>
        <time>2014-06-15T09:18:30Z</time>
      </trkpt>
      <trkpt lat="43.45808" lon="2.26267">
        <ele>908.1027832</ele>
        <time>2014-06-15T09:18:35Z</time>
      </trkpt>
      <trkpt lat="43.45783" lon="2.2628">
        <ele>896.0861816</ele>
        <time>2014-06-15T09:18:40Z</time>
      </trkpt>
      <trkpt lat="43.45748" lon="2.26297">
        <ele>891.2792969</ele>
        <time>2014-06-15T09:18:45Z</time>
      </trkpt>
      <trkpt lat="43.457" lon="2.26313">
        <ele>892.7216797</ele>
        <time>2014-06-15T09:18:51Z</time>
      </trkpt>
      <trkpt lat="43.45692" lon="2.26314">
        <ele>895.1247559</ele>
        <time>2014-06-15T09:18:52Z</time>
      </trkpt>
      <trkpt lat="43.45672" lon="2.26334">
        <ele>896.0861816</ele>
        <time>2014-06-15T09:18:56Z</time>
      </trkpt>
      <trkpt lat="43.45659" lon="2.26343">
        <ele>898.0087891</ele>
        <time>2014-06-15T09:18:58Z</time>
      </trkpt>
      <trkpt lat="43.45627" lon="2.26363">
        <ele>905.6992188</ele>
        <time>2014-06-15T09:19:03Z</time>
      </trkpt>
      <trkpt lat="43.45603" lon="2.2637">
        <ele>911.4672852</ele>
        <time>2014-06-15T09:19:06Z</time>
      </trkpt>
      <trkpt lat="43.45576" lon="2.2639">
        <ele>912.4284668</ele>
        <time>2014-06-15T09:19:10Z</time>
      </trkpt>
      <trkpt lat="43.45537" lon="2.26414">
        <ele>909.5446777</ele>
        <time>2014-06-15T09:19:15Z</time>
      </trkpt>
      <trkpt lat="43.45504" lon="2.26438">
        <ele>905.2185059</ele>
        <time>2014-06-15T09:19:20Z</time>
      </trkpt>
      <trkpt lat="43.45488" lon="2.26458">
        <ele>903.7766113</ele>
        <time>2014-06-15T09:19:23Z</time>
      </trkpt>
      <trkpt lat="43.45469" lon="2.26477">
        <ele>903.2958984</ele>
        <time>2014-06-15T09:19:27Z</time>
      </trkpt>
      <trkpt lat="43.45433" lon="2.26496">
        <ele>896.0861816</ele>
        <time>2014-06-15T09:19:34Z</time>
      </trkpt>
      <trkpt lat="43.45415" lon="2.265">
        <ele>891.7600098</ele>
        <time>2014-06-15T09:19:38Z</time>
      </trkpt>
      <trkpt lat="43.45406" lon="2.26499">
        <ele>889.8374023</ele>
        <time>2014-06-15T09:19:41Z</time>
      </trkpt>
      <trkpt lat="43.4538" lon="2.26498">
        <ele>885.5114746</ele>
        <time>2014-06-15T09:19:48Z</time>
      </trkpt>
      <trkpt lat="43.45368" lon="2.26495">
        <ele>894.644043</ele>
        <time>2014-06-15T09:19:55Z</time>
      </trkpt>
      <trkpt lat="43.45369" lon="2.26497">
        <ele>897.5280762</ele>
        <time>2014-06-15T09:20:01Z</time>
      </trkpt>
      <trkpt lat="43.45364" lon="2.26498">
        <ele>902.8151855</ele>
        <time>2014-06-15T09:20:09Z</time>
      </trkpt>
      <trkpt lat="43.4536" lon="2.26498">
        <ele>907.6218262</ele>
        <time>2014-06-15T09:20:16Z</time>
      </trkpt>
      <trkpt lat="43.45361" lon="2.26496">
        <ele>886.9533691</ele>
        <time>2014-06-15T09:20:42Z</time>
      </trkpt>
      <trkpt lat="43.4535" lon="2.26491">
        <ele>898.4892578</ele>
        <time>2014-06-15T09:21:05Z</time>
      </trkpt>
      <trkpt lat="43.45346" lon="2.26491">
        <ele>898.4892578</ele>
        <time>2014-06-15T09:21:08Z</time>
      </trkpt>
      <trkpt lat="43.45345" lon="2.26496">
        <ele>897.0473633</ele>
        <time>2014-06-15T09:21:10Z</time>
      </trkpt>
      <trkpt lat="43.45344" lon="2.26499">
        <ele>897.5280762</ele>
        <time>2014-06-15T09:21:11Z</time>
      </trkpt>
      <trkpt lat="43.45336" lon="2.2651">
        <ele>898.4892578</ele>
        <time>2014-06-15T09:21:16Z</time>
      </trkpt>
      <trkpt lat="43.4533" lon="2.26515">
        <ele>900.4121094</ele>
        <time>2014-06-15T09:21:18Z</time>
      </trkpt>
      <trkpt lat="43.45316" lon="2.26534">
        <ele>905.6992188</ele>
        <time>2014-06-15T09:21:24Z</time>
      </trkpt>
      <trkpt lat="43.45301" lon="2.26555">
        <ele>902.3344727</ele>
        <time>2014-06-15T09:21:31Z</time>
      </trkpt>
      <trkpt lat="43.45286" lon="2.26571">
        <ele>895.6054688</ele>
        <time>2014-06-15T09:21:37Z</time>
      </trkpt>
      <trkpt lat="43.45278" lon="2.26592">
        <ele>891.7600098</ele>
        <time>2014-06-15T09:21:43Z</time>
      </trkpt>
      <trkpt lat="43.45273" lon="2.26608">
        <ele>892.2409668</ele>
        <time>2014-06-15T09:21:48Z</time>
      </trkpt>
      <trkpt lat="43.45272" lon="2.26627">
        <ele>892.2409668</ele>
        <time>2014-06-15T09:21:54Z</time>
      </trkpt>
      <trkpt lat="43.45267" lon="2.26638">
        <ele>891.7600098</ele>
        <time>2014-06-15T09:21:58Z</time>
      </trkpt>
      <trkpt lat="43.45262" lon="2.26652">
        <ele>890.798584</ele>
        <time>2014-06-15T09:22:03Z</time>
      </trkpt>
      <trkpt lat="43.45257" lon="2.2667">
        <ele>893.6828613</ele>
        <time>2014-06-15T09:22:09Z</time>
      </trkpt>
      <trkpt lat="43.4525" lon="2.26683">
        <ele>894.644043</ele>
        <time>2014-06-15T09:22:15Z</time>
      </trkpt>
      <trkpt lat="43.4524" lon="2.26699">
        <ele>898.4892578</ele>
        <time>2014-06-15T09:22:23Z</time>
      </trkpt>
      <trkpt lat="43.45234" lon="2.26714">
        <ele>897.5280762</ele>
        <time>2014-06-15T09:22:29Z</time>
      </trkpt>
      <trkpt lat="43.45229" lon="2.26727">
        <ele>894.644043</ele>
        <time>2014-06-15T09:22:34Z</time>
      </trkpt>
      <trkpt lat="43.45221" lon="2.26747">
        <ele>896.0861816</ele>
        <time>2014-06-15T09:22:41Z</time>
      </trkpt>
      <trkpt lat="43.45218" lon="2.26772">
        <ele>895.1247559</ele>
        <time>2014-06-15T09:22:48Z</time>
      </trkpt>
      <trkpt lat="43.45215" lon="2.26796">
        <ele>896.0861816</ele>
        <time>2014-06-15T09:22:54Z</time>
      </trkpt>
      <trkpt lat="43.45208" lon="2.26822">
        <ele>894.1635742</ele>
        <time>2014-06-15T09:23:02Z</time>
      </trkpt>
      <trkpt lat="43.45201" lon="2.26851">
        <ele>893.2021484</ele>
        <time>2014-06-15T09:23:10Z</time>
      </trkpt>
      <trkpt lat="43.45193" lon="2.26873">
        <ele>890.3181152</ele>
        <time>2014-06-15T09:23:16Z</time>
      </trkpt>
      <trkpt lat="43.45188" lon="2.26897">
        <ele>890.3181152</ele>
        <time>2014-06-15T09:23:21Z</time>
      </trkpt>
      <trkpt lat="43.4518" lon="2.2693">
        <ele>885.5114746</ele>
        <time>2014-06-15T09:23:27Z</time>
      </trkpt>
      <trkpt lat="43.4517" lon="2.26965">
        <ele>883.1081543</ele>
        <time>2014-06-15T09:23:32Z</time>
      </trkpt>
      <trkpt lat="43.45168" lon="2.2698">
        <ele>881.185791</ele>
        <time>2014-06-15T09:23:34Z</time>
      </trkpt>
      <trkpt lat="43.45166" lon="2.2701">
        <ele>878.7824707</ele>
        <time>2014-06-15T09:23:38Z</time>
      </trkpt>
      <trkpt lat="43.45177" lon="2.27041">
        <ele>875.8981934</ele>
        <time>2014-06-15T09:23:42Z</time>
      </trkpt>
      <trkpt lat="43.4519" lon="2.27048">
        <ele>879.2629395</ele>
        <time>2014-06-15T09:23:44Z</time>
      </trkpt>
      <trkpt lat="43.45209" lon="2.27057">
        <ele>881.6662598</ele>
        <time>2014-06-15T09:23:47Z</time>
      </trkpt>
      <trkpt lat="43.45229" lon="2.27082">
        <ele>883.1081543</ele>
        <time>2014-06-15T09:23:52Z</time>
      </trkpt>
      <trkpt lat="43.4523" lon="2.27101">
        <ele>881.185791</ele>
        <time>2014-06-15T09:23:54Z</time>
      </trkpt>
      <trkpt lat="43.45227" lon="2.27141">
        <ele>880.7050781</ele>
        <time>2014-06-15T09:23:58Z</time>
      </trkpt>
      <trkpt lat="43.45221" lon="2.27173">
        <ele>880.7050781</ele>
        <time>2014-06-15T09:24:01Z</time>
      </trkpt>
      <trkpt lat="43.45222" lon="2.27215">
        <ele>879.2629395</ele>
        <time>2014-06-15T09:24:05Z</time>
      </trkpt>
      <trkpt lat="43.45239" lon="2.27261">
        <ele>874.9370117</ele>
        <time>2014-06-15T09:24:10Z</time>
      </trkpt>
      <trkpt lat="43.45244" lon="2.27269">
        <ele>875.4174805</ele>
        <time>2014-06-15T09:24:11Z</time>
      </trkpt>
      <trkpt lat="43.45277" lon="2.27319">
        <ele>877.3405762</ele>
        <time>2014-06-15T09:24:18Z</time>
      </trkpt>
      <trkpt lat="43.45281" lon="2.27351">
        <ele>875.8981934</ele>
        <time>2014-06-15T09:24:23Z</time>
      </trkpt>
      <trkpt lat="43.45285" lon="2.27373">
        <ele>873.4951172</ele>
        <time>2014-06-15T09:24:27Z</time>
      </trkpt>
      <trkpt lat="43.4529" lon="2.27393">
        <ele>875.8981934</ele>
        <time>2014-06-15T09:24:30Z</time>
      </trkpt>
      <trkpt lat="43.45294" lon="2.27406">
        <ele>876.8598633</ele>
        <time>2014-06-15T09:24:32Z</time>
      </trkpt>
      <trkpt lat="43.45296" lon="2.27443">
        <ele>876.3791504</ele>
        <time>2014-06-15T09:24:38Z</time>
      </trkpt>
      <trkpt lat="43.45295" lon="2.2747">
        <ele>879.7436523</ele>
        <time>2014-06-15T09:24:42Z</time>
      </trkpt>
      <trkpt lat="43.45296" lon="2.27485">
        <ele>880.2243652</ele>
        <time>2014-06-15T09:24:44Z</time>
      </trkpt>
      <trkpt lat="43.45292" lon="2.27511">
        <ele>879.7436523</ele>
        <time>2014-06-15T09:24:48Z</time>
      </trkpt>
      <trkpt lat="43.45289" lon="2.27525">
        <ele>879.2629395</ele>
        <time>2014-06-15T09:24:50Z</time>
      </trkpt>
      <trkpt lat="43.45274" lon="2.27573">
        <ele>874.9370117</ele>
        <time>2014-06-15T09:24:57Z</time>
      </trkpt>
      <trkpt lat="43.45272" lon="2.27579">
        <ele>874.4562988</ele>
        <time>2014-06-15T09:24:58Z</time>
      </trkpt>
      <trkpt lat="43.4525" lon="2.27622">
        <ele>874.4562988</ele>
        <time>2014-06-15T09:25:05Z</time>
      </trkpt>
      <trkpt lat="43.45244" lon="2.27649">
        <ele>871.5722656</ele>
        <time>2014-06-15T09:25:09Z</time>
      </trkpt>
      <trkpt lat="43.45241" lon="2.27672">
        <ele>869.1691895</ele>
        <time>2014-06-15T09:25:12Z</time>
      </trkpt>
      <trkpt lat="43.45242" lon="2.27728">
        <ele>868.6884766</ele>
        <time>2014-06-15T09:25:18Z</time>
      </trkpt>
      <trkpt lat="43.45237" lon="2.27772">
        <ele>865.3239746</ele>
        <time>2014-06-15T09:25:24Z</time>
      </trkpt>
      <trkpt lat="43.4524" lon="2.27817">
        <ele>869.1691895</ele>
        <time>2014-06-15T09:25:30Z</time>
      </trkpt>
      <trkpt lat="43.45241" lon="2.27824">
        <ele>869.6499023</ele>
        <time>2014-06-15T09:25:31Z</time>
      </trkpt>
      <trkpt lat="43.45247" lon="2.27858">
        <ele>869.6499023</ele>
        <time>2014-06-15T09:25:37Z</time>
      </trkpt>
      <trkpt lat="43.45243" lon="2.27873">
        <ele>868.6884766</ele>
        <time>2014-06-15T09:25:41Z</time>
      </trkpt>
      <trkpt lat="43.45243" lon="2.27876">
        <ele>868.2077637</ele>
        <time>2014-06-15T09:25:42Z</time>
      </trkpt>
      <trkpt lat="43.45251" lon="2.27907">
        <ele>872.0529785</ele>
        <time>2014-06-15T09:25:49Z</time>
      </trkpt>
      <trkpt lat="43.45254" lon="2.27924">
        <ele>875.4174805</ele>
        <time>2014-06-15T09:25:54Z</time>
      </trkpt>
      <trkpt lat="43.45262" lon="2.27938">
        <ele>875.8981934</ele>
        <time>2014-06-15T09:25:59Z</time>
      </trkpt>
      <trkpt lat="43.4527" lon="2.27957">
        <ele>876.8598633</ele>
        <time>2014-06-15T09:26:05Z</time>
      </trkpt>
      <trkpt lat="43.4528" lon="2.27978">
        <ele>876.8598633</ele>
        <time>2014-06-15T09:26:12Z</time>
      </trkpt>
      <trkpt lat="43.45285" lon="2.27995">
        <ele>874.9370117</ele>
        <time>2014-06-15T09:26:18Z</time>
      </trkpt>
      <trkpt lat="43.45291" lon="2.28011">
        <ele>880.7050781</ele>
        <time>2014-06-15T09:26:24Z</time>
      </trkpt>
      <trkpt lat="43.45293" lon="2.28013">
        <ele>882.6276855</ele>
        <time>2014-06-15T09:26:25Z</time>
      </trkpt>
      <trkpt lat="43.45284" lon="2.28022">
        <ele>886.4729004</ele>
        <time>2014-06-15T09:26:31Z</time>
      </trkpt>
      <trkpt lat="43.45281" lon="2.28025">
        <ele>889.8374023</ele>
        <time>2014-06-15T09:26:34Z</time>
      </trkpt>
      <trkpt lat="43.45274" lon="2.28028">
        <ele>891.2792969</ele>
        <time>2014-06-15T09:26:40Z</time>
      </trkpt>
      <trkpt lat="43.45258" lon="2.2802">
        <ele>887.9147949</ele>
        <time>2014-06-15T09:26:47Z</time>
      </trkpt>
      <trkpt lat="43.45249" lon="2.28011">
        <ele>884.550293</ele>
        <time>2014-06-15T09:26:54Z</time>
      </trkpt>
      <trkpt lat="43.45241" lon="2.28003">
        <ele>882.1469727</ele>
        <time>2014-06-15T09:27:01Z</time>
      </trkpt>
      <trkpt lat="43.45235" lon="2.27995">
        <ele>880.2243652</ele>
        <time>2014-06-15T09:27:07Z</time>
      </trkpt>
      <trkpt lat="43.45232" lon="2.27991">
        <ele>881.6662598</ele>
        <time>2014-06-15T09:27:12Z</time>
      </trkpt>
      <trkpt lat="43.45224" lon="2.27986">
        <ele>881.6662598</ele>
        <time>2014-06-15T09:27:16Z</time>
      </trkpt>
      <trkpt lat="43.45213" lon="2.2798">
        <ele>881.185791</ele>
        <time>2014-06-15T09:27:23Z</time>
      </trkpt>
      <trkpt lat="43.45204" lon="2.27978">
        <ele>887.434082</ele>
        <time>2014-06-15T09:27:28Z</time>
      </trkpt>
      <trkpt lat="43.45194" lon="2.27982">
        <ele>895.1247559</ele>
        <time>2014-06-15T09:27:34Z</time>
      </trkpt>
      <trkpt lat="43.45181" lon="2.27992">
        <ele>900.4121094</ele>
        <time>2014-06-15T09:27:42Z</time>
      </trkpt>
      <trkpt lat="43.45168" lon="2.27997">
        <ele>901.8540039</ele>
        <time>2014-06-15T09:27:48Z</time>
      </trkpt>
      <trkpt lat="43.45151" lon="2.28005">
        <ele>906.6604004</ele>
        <time>2014-06-15T09:27:55Z</time>
      </trkpt>
      <trkpt lat="43.4514" lon="2.28021">
        <ele>906.6604004</ele>
        <time>2014-06-15T09:28:02Z</time>
      </trkpt>
      <trkpt lat="43.45128" lon="2.28036">
        <ele>902.8151855</ele>
        <time>2014-06-15T09:28:09Z</time>
      </trkpt>
      <trkpt lat="43.4512" lon="2.28039">
        <ele>898.9699707</ele>
        <time>2014-06-15T09:28:12Z</time>
      </trkpt>
      <trkpt lat="43.45113" lon="2.28056">
        <ele>898.9699707</ele>
        <time>2014-06-15T09:28:19Z</time>
      </trkpt>
      <trkpt lat="43.45105" lon="2.28079">
        <ele>900.4121094</ele>
        <time>2014-06-15T09:28:27Z</time>
      </trkpt>
      <trkpt lat="43.45098" lon="2.28096">
        <ele>901.8540039</ele>
        <time>2014-06-15T09:28:34Z</time>
      </trkpt>
      <trkpt lat="43.45088" lon="2.28109">
        <ele>901.373291</ele>
        <time>2014-06-15T09:28:41Z</time>
      </trkpt>
      <trkpt lat="43.45084" lon="2.28124">
        <ele>898.4892578</ele>
        <time>2014-06-15T09:28:47Z</time>
      </trkpt>
      <trkpt lat="43.45079" lon="2.28139">
        <ele>899.9313965</ele>
        <time>2014-06-15T09:28:53Z</time>
      </trkpt>
      <trkpt lat="43.45076" lon="2.28146">
        <ele>899.4506836</ele>
        <time>2014-06-15T09:28:56Z</time>
      </trkpt>
      <trkpt lat="43.45071" lon="2.28154">
        <ele>899.9313965</ele>
        <time>2014-06-15T09:29:00Z</time>
      </trkpt>
      <trkpt lat="43.45063" lon="2.28168">
        <ele>900.4121094</ele>
        <time>2014-06-15T09:29:07Z</time>
      </trkpt>
      <trkpt lat="43.45058" lon="2.28188">
        <ele>903.2958984</ele>
        <time>2014-06-15T09:29:14Z</time>
      </trkpt>
      <trkpt lat="43.4505" lon="2.28209">
        <ele>906.6604004</ele>
        <time>2014-06-15T09:29:20Z</time>
      </trkpt>
      <trkpt lat="43.45043" lon="2.28229">
        <ele>908.1027832</ele>
        <time>2014-06-15T09:29:24Z</time>
      </trkpt>
      <trkpt lat="43.4503" lon="2.28241">
        <ele>907.1411133</ele>
        <time>2014-06-15T09:29:28Z</time>
      </trkpt>
      <trkpt lat="43.45014" lon="2.28258">
        <ele>905.6992188</ele>
        <time>2014-06-15T09:29:34Z</time>
      </trkpt>
      <trkpt lat="43.44996" lon="2.28273">
        <ele>908.1027832</ele>
        <time>2014-06-15T09:29:41Z</time>
      </trkpt>
      <trkpt lat="43.44981" lon="2.28295">
        <ele>911.947998</ele>
        <time>2014-06-15T09:29:48Z</time>
      </trkpt>
      <trkpt lat="43.44964" lon="2.28318">
        <ele>910.0251465</ele>
        <time>2014-06-15T09:29:55Z</time>
      </trkpt>
      <trkpt lat="43.44955" lon="2.2834">
        <ele>906.1796875</ele>
        <time>2014-06-15T09:30:01Z</time>
      </trkpt>
      <trkpt lat="43.4496" lon="2.28366">
        <ele>912.4284668</ele>
        <time>2014-06-15T09:30:07Z</time>
      </trkpt>
      <trkpt lat="43.44963" lon="2.28382">
        <ele>913.8703613</ele>
        <time>2014-06-15T09:30:12Z</time>
      </trkpt>
      <trkpt lat="43.4496" lon="2.28399">
        <ele>913.3898926</ele>
        <time>2014-06-15T09:30:17Z</time>
      </trkpt>
      <trkpt lat="43.44958" lon="2.28418">
        <ele>910.9865723</ele>
        <time>2014-06-15T09:30:23Z</time>
      </trkpt>
      <trkpt lat="43.4496" lon="2.28432">
        <ele>911.4672852</ele>
        <time>2014-06-15T09:30:28Z</time>
      </trkpt>
      <trkpt lat="43.44954" lon="2.28455">
        <ele>909.5446777</ele>
        <time>2014-06-15T09:30:36Z</time>
      </trkpt>
      <trkpt lat="43.44951" lon="2.28479">
        <ele>909.5446777</ele>
        <time>2014-06-15T09:30:43Z</time>
      </trkpt>
      <trkpt lat="43.44955" lon="2.28503">
        <ele>909.5446777</ele>
        <time>2014-06-15T09:30:50Z</time>
      </trkpt>
      <trkpt lat="43.44962" lon="2.28528">
        <ele>918.1962891</ele>
        <time>2014-06-15T09:30:57Z</time>
      </trkpt>
      <trkpt lat="43.44968" lon="2.28546">
        <ele>923.4836426</ele>
        <time>2014-06-15T09:31:04Z</time>
      </trkpt>
      <trkpt lat="43.4497" lon="2.28548">
        <ele>923.0029297</ele>
        <time>2014-06-15T09:31:09Z</time>
      </trkpt>
      <trkpt lat="43.44971" lon="2.28544">
        <ele>917.2351074</ele>
        <time>2014-06-15T09:31:17Z</time>
      </trkpt>
      <trkpt lat="43.44971" lon="2.28542">
        <ele>911.947998</ele>
        <time>2014-06-15T09:31:21Z</time>
      </trkpt>
      <trkpt lat="43.44973" lon="2.2854">
        <ele>910.0251465</ele>
        <time>2014-06-15T09:31:26Z</time>
      </trkpt>
      <trkpt lat="43.44978" lon="2.2854">
        <ele>912.9091797</ele>
        <time>2014-06-15T09:31:36Z</time>
      </trkpt>
      <trkpt lat="43.44979" lon="2.2854">
        <ele>916.2736816</ele>
        <time>2014-06-15T09:31:42Z</time>
      </trkpt>
      <trkpt lat="43.44984" lon="2.28541">
        <ele>923.9641113</ele>
        <time>2014-06-15T09:32:01Z</time>
      </trkpt>
      <trkpt lat="43.44989" lon="2.28541">
        <ele>934.0581055</ele>
        <time>2014-06-15T09:32:21Z</time>
      </trkpt>
      <trkpt lat="43.44989" lon="2.28549">
        <ele>944.1520996</ele>
        <time>2014-06-15T09:32:56Z</time>
      </trkpt>
      <trkpt lat="43.44981" lon="2.28548">
        <ele>920.5996094</ele>
        <time>2014-06-15T09:33:18Z</time>
      </trkpt>
      <trkpt lat="43.44969" lon="2.28547">
        <ele>911.947998</ele>
        <time>2014-06-15T09:33:29Z</time>
      </trkpt>
      <trkpt lat="43.4497" lon="2.28554">
        <ele>907.6218262</ele>
        <time>2014-06-15T09:33:34Z</time>
      </trkpt>
      <trkpt lat="43.44974" lon="2.28563">
        <ele>907.6218262</ele>
        <time>2014-06-15T09:33:37Z</time>
      </trkpt>
      <trkpt lat="43.44975" lon="2.28567">
        <ele>907.6218262</ele>
        <time>2014-06-15T09:33:38Z</time>
      </trkpt>
      <trkpt lat="43.44982" lon="2.28582">
        <ele>911.947998</ele>
        <time>2014-06-15T09:33:42Z</time>
      </trkpt>
      <trkpt lat="43.44998" lon="2.28607">
        <ele>917.2351074</ele>
        <time>2014-06-15T09:33:48Z</time>
      </trkpt>
      <trkpt lat="43.45005" lon="2.28624">
        <ele>921.0803223</ele>
        <time>2014-06-15T09:33:51Z</time>
      </trkpt>
      <trkpt lat="43.45011" lon="2.2864">
        <ele>921.0803223</ele>
        <time>2014-06-15T09:33:54Z</time>
      </trkpt>
      <trkpt lat="43.45017" lon="2.28648">
        <ele>921.560791</ele>
        <time>2014-06-15T09:33:56Z</time>
      </trkpt>
      <trkpt lat="43.45027" lon="2.28661">
        <ele>923.4836426</ele>
        <time>2014-06-15T09:33:59Z</time>
      </trkpt>
      <trkpt lat="43.45052" lon="2.28701">
        <ele>924.4450684</ele>
        <time>2014-06-15T09:34:08Z</time>
      </trkpt>
      <trkpt lat="43.45069" lon="2.2874">
        <ele>915.7932129</ele>
        <time>2014-06-15T09:34:17Z</time>
      </trkpt>
      <trkpt lat="43.45068" lon="2.28764">
        <ele>910.9865723</ele>
        <time>2014-06-15T09:34:22Z</time>
      </trkpt>
      <trkpt lat="43.45065" lon="2.28787">
        <ele>910.9865723</ele>
        <time>2014-06-15T09:34:28Z</time>
      </trkpt>
      <trkpt lat="43.45064" lon="2.28804">
        <ele>910.9865723</ele>
        <time>2014-06-15T09:34:34Z</time>
      </trkpt>
      <trkpt lat="43.45068" lon="2.28823">
        <ele>913.8703613</ele>
        <time>2014-06-15T09:34:40Z</time>
      </trkpt>
      <trkpt lat="43.45082" lon="2.28841">
        <ele>923.0029297</ele>
        <time>2014-06-15T09:34:47Z</time>
      </trkpt>
      <trkpt lat="43.45088" lon="2.28848">
        <ele>925.40625</ele>
        <time>2014-06-15T09:34:50Z</time>
      </trkpt>
      <trkpt lat="43.45094" lon="2.28862">
        <ele>926.8483887</ele>
        <time>2014-06-15T09:34:56Z</time>
      </trkpt>
      <trkpt lat="43.45101" lon="2.28876">
        <ele>929.7321777</ele>
        <time>2014-06-15T09:35:02Z</time>
      </trkpt>
      <trkpt lat="43.45107" lon="2.28886">
        <ele>932.135498</ele>
        <time>2014-06-15T09:35:08Z</time>
      </trkpt>
      <trkpt lat="43.45115" lon="2.28895">
        <ele>935.0195313</ele>
        <time>2014-06-15T09:35:14Z</time>
      </trkpt>
      <trkpt lat="43.45123" lon="2.28907">
        <ele>938.8647461</ele>
        <time>2014-06-15T09:35:21Z</time>
      </trkpt>
      <trkpt lat="43.45129" lon="2.28914">
        <ele>938.8647461</ele>
        <time>2014-06-15T09:35:26Z</time>
      </trkpt>
      <trkpt lat="43.45137" lon="2.28925">
        <ele>936.9418945</ele>
        <time>2014-06-15T09:35:33Z</time>
      </trkpt>
      <trkpt lat="43.45147" lon="2.28938">
        <ele>936.4614258</ele>
        <time>2014-06-15T09:35:41Z</time>
      </trkpt>
      <trkpt lat="43.4516" lon="2.28956">
        <ele>935.5</ele>
        <time>2014-06-15T09:35:48Z</time>
      </trkpt>
      <trkpt lat="43.4517" lon="2.28986">
        <ele>933.0966797</ele>
        <time>2014-06-15T09:35:54Z</time>
      </trkpt>
      <trkpt lat="43.45179" lon="2.28999">
        <ele>931.6547852</ele>
        <time>2014-06-15T09:35:57Z</time>
      </trkpt>
      <trkpt lat="43.452" lon="2.29005">
        <ele>929.2514648</ele>
        <time>2014-06-15T09:36:01Z</time>
      </trkpt>
      <trkpt lat="43.45229" lon="2.29011">
        <ele>923.9641113</ele>
        <time>2014-06-15T09:36:06Z</time>
      </trkpt>
      <trkpt lat="43.45252" lon="2.29028">
        <ele>920.1188965</ele>
        <time>2014-06-15T09:36:10Z</time>
      </trkpt>
      <trkpt lat="43.45271" lon="2.29064">
        <ele>916.2736816</ele>
        <time>2014-06-15T09:36:15Z</time>
      </trkpt>
      <trkpt lat="43.45287" lon="2.29094">
        <ele>914.8317871</ele>
        <time>2014-06-15T09:36:19Z</time>
      </trkpt>
      <trkpt lat="43.45316" lon="2.2912">
        <ele>915.7932129</ele>
        <time>2014-06-15T09:36:24Z</time>
      </trkpt>
      <trkpt lat="43.45335" lon="2.29132">
        <ele>917.2351074</ele>
        <time>2014-06-15T09:36:27Z</time>
      </trkpt>
      <trkpt lat="43.45369" lon="2.2915">
        <ele>917.2351074</ele>
        <time>2014-06-15T09:36:33Z</time>
      </trkpt>
      <trkpt lat="43.45396" lon="2.29167">
        <ele>915.3125</ele>
        <time>2014-06-15T09:36:39Z</time>
      </trkpt>
      <trkpt lat="43.45409" lon="2.29182">
        <ele>914.3510742</ele>
        <time>2014-06-15T09:36:43Z</time>
      </trkpt>
      <trkpt lat="43.45425" lon="2.29219">
        <ele>913.3898926</ele>
        <time>2014-06-15T09:36:52Z</time>
      </trkpt>
      <trkpt lat="43.45437" lon="2.29247">
        <ele>913.8703613</ele>
        <time>2014-06-15T09:36:58Z</time>
      </trkpt>
      <trkpt lat="43.45451" lon="2.29279">
        <ele>910.9865723</ele>
        <time>2014-06-15T09:37:05Z</time>
      </trkpt>
      <trkpt lat="43.4546" lon="2.29309">
        <ele>902.3344727</ele>
        <time>2014-06-15T09:37:11Z</time>
      </trkpt>
      <trkpt lat="43.4546" lon="2.29316">
        <ele>900.4121094</ele>
        <time>2014-06-15T09:37:12Z</time>
      </trkpt>
      <trkpt lat="43.45454" lon="2.29353">
        <ele>898.0087891</ele>
        <time>2014-06-15T09:37:17Z</time>
      </trkpt>
      <trkpt lat="43.45445" lon="2.2939">
        <ele>890.3181152</ele>
        <time>2014-06-15T09:37:22Z</time>
      </trkpt>
      <trkpt lat="43.45444" lon="2.29412">
        <ele>887.434082</ele>
        <time>2014-06-15T09:37:25Z</time>
      </trkpt>
      <trkpt lat="43.45457" lon="2.29448">
        <ele>888.3955078</ele>
        <time>2014-06-15T09:37:30Z</time>
      </trkpt>
      <trkpt lat="43.4546" lon="2.29454">
        <ele>886.9533691</ele>
        <time>2014-06-15T09:37:31Z</time>
      </trkpt>
      <trkpt lat="43.45478" lon="2.29483">
        <ele>885.0310059</ele>
        <time>2014-06-15T09:37:36Z</time>
      </trkpt>
      <trkpt lat="43.45504" lon="2.29525">
        <ele>892.2409668</ele>
        <time>2014-06-15T09:37:42Z</time>
      </trkpt>
      <trkpt lat="43.45519" lon="2.29574">
        <ele>896.5668945</ele>
        <time>2014-06-15T09:37:48Z</time>
      </trkpt>
      <trkpt lat="43.45525" lon="2.29598">
        <ele>898.9699707</ele>
        <time>2014-06-15T09:37:52Z</time>
      </trkpt>
      <trkpt lat="43.45528" lon="2.29608">
        <ele>899.4506836</ele>
        <time>2014-06-15T09:37:54Z</time>
      </trkpt>
      <trkpt lat="43.45532" lon="2.29623">
        <ele>899.9313965</ele>
        <time>2014-06-15T09:37:57Z</time>
      </trkpt>
      <trkpt lat="43.45537" lon="2.29638">
        <ele>900.8925781</ele>
        <time>2014-06-15T09:38:00Z</time>
      </trkpt>
      <trkpt lat="43.45562" lon="2.29698">
        <ele>906.6604004</ele>
        <time>2014-06-15T09:38:09Z</time>
      </trkpt>
      <trkpt lat="43.45566" lon="2.29706">
        <ele>908.583252</ele>
        <time>2014-06-15T09:38:10Z</time>
      </trkpt>
      <trkpt lat="43.45591" lon="2.2975">
        <ele>910.9865723</ele>
        <time>2014-06-15T09:38:16Z</time>
      </trkpt>
      <trkpt lat="43.45594" lon="2.29757">
        <ele>911.947998</ele>
        <time>2014-06-15T09:38:17Z</time>
      </trkpt>
      <trkpt lat="43.45601" lon="2.29762">
        <ele>910.0251465</ele>
        <time>2014-06-15T09:38:21Z</time>
      </trkpt>
      <trkpt lat="43.45596" lon="2.29757">
        <ele>911.4672852</ele>
        <time>2014-06-15T09:38:27Z</time>
      </trkpt>
      <trkpt lat="43.45595" lon="2.29753">
        <ele>907.1411133</ele>
        <time>2014-06-15T09:38:36Z</time>
      </trkpt>
      <trkpt lat="43.45595" lon="2.29759">
        <ele>918.1962891</ele>
        <time>2014-06-15T09:38:42Z</time>
      </trkpt>
      <trkpt lat="43.45595" lon="2.29761">
        <ele>922.0415039</ele>
        <time>2014-06-15T09:38:55Z</time>
      </trkpt>
      <trkpt lat="43.45596" lon="2.29755">
        <ele>911.947998</ele>
        <time>2014-06-15T09:39:04Z</time>
      </trkpt>
      <trkpt lat="43.45594" lon="2.29754">
        <ele>910.5058594</ele>
        <time>2014-06-15T09:39:19Z</time>
      </trkpt>
      <trkpt lat="43.45595" lon="2.29743">
        <ele>897.0473633</ele>
        <time>2014-06-15T09:39:46Z</time>
      </trkpt>
      <trkpt lat="43.45592" lon="2.29745">
        <ele>899.9313965</ele>
        <time>2014-06-15T09:39:57Z</time>
      </trkpt>
      <trkpt lat="43.45591" lon="2.29755">
        <ele>900.4121094</ele>
        <time>2014-06-15T09:40:02Z</time>
      </trkpt>
      <trkpt lat="43.45597" lon="2.29775">
        <ele>906.1796875</ele>
        <time>2014-06-15T09:40:07Z</time>
      </trkpt>
      <trkpt lat="43.4561" lon="2.29811">
        <ele>898.4892578</ele>
        <time>2014-06-15T09:40:15Z</time>
      </trkpt>
      <trkpt lat="43.4562" lon="2.29844">
        <ele>895.1247559</ele>
        <time>2014-06-15T09:40:22Z</time>
      </trkpt>
      <trkpt lat="43.45629" lon="2.29866">
        <ele>897.0473633</ele>
        <time>2014-06-15T09:40:27Z</time>
      </trkpt>
      <trkpt lat="43.45647" lon="2.29893">
        <ele>901.8540039</ele>
        <time>2014-06-15T09:40:33Z</time>
      </trkpt>
      <trkpt lat="43.45664" lon="2.29915">
        <ele>903.7766113</ele>
        <time>2014-06-15T09:40:37Z</time>
      </trkpt>
      <trkpt lat="43.45683" lon="2.29971">
        <ele>907.6218262</ele>
        <time>2014-06-15T09:40:44Z</time>
      </trkpt>
      <trkpt lat="43.45687" lon="2.29995">
        <ele>910.0251465</ele>
        <time>2014-06-15T09:40:47Z</time>
      </trkpt>
      <trkpt lat="43.45691" lon="2.30017">
        <ele>911.947998</ele>
        <time>2014-06-15T09:40:50Z</time>
      </trkpt>
      <trkpt lat="43.45697" lon="2.30041">
        <ele>911.947998</ele>
        <time>2014-06-15T09:40:54Z</time>
      </trkpt>
      <trkpt lat="43.45697" lon="2.30048">
        <ele>910.9865723</ele>
        <time>2014-06-15T09:40:56Z</time>
      </trkpt>
      <trkpt lat="43.45702" lon="2.30056">
        <ele>910.9865723</ele>
        <time>2014-06-15T09:41:01Z</time>
      </trkpt>
      <trkpt lat="43.45709" lon="2.3006">
        <ele>914.3510742</ele>
        <time>2014-06-15T09:41:04Z</time>
      </trkpt>
      <trkpt lat="43.45709" lon="2.3006">
        <ele>916.7543945</ele>
        <time>2014-06-15T09:41:10Z</time>
      </trkpt>
      <trkpt lat="43.45726" lon="2.30054">
        <ele>910.5058594</ele>
        <time>2014-06-15T09:41:15Z</time>
      </trkpt>
      <trkpt lat="43.45745" lon="2.30051">
        <ele>909.0639648</ele>
        <time>2014-06-15T09:41:20Z</time>
      </trkpt>
      <trkpt lat="43.45763" lon="2.30046">
        <ele>907.1411133</ele>
        <time>2014-06-15T09:41:24Z</time>
      </trkpt>
      <trkpt lat="43.45787" lon="2.30067">
        <ele>903.7766113</ele>
        <time>2014-06-15T09:41:32Z</time>
      </trkpt>
      <trkpt lat="43.45814" lon="2.30093">
        <ele>901.8540039</ele>
        <time>2014-06-15T09:41:39Z</time>
      </trkpt>
      <trkpt lat="43.45819" lon="2.30095">
        <ele>900.8925781</ele>
        <time>2014-06-15T09:41:40Z</time>
      </trkpt>
      <trkpt lat="43.45849" lon="2.30109">
        <ele>898.9699707</ele>
        <time>2014-06-15T09:41:46Z</time>
      </trkpt>
      <trkpt lat="43.45869" lon="2.30115">
        <ele>896.5668945</ele>
        <time>2014-06-15T09:41:50Z</time>
      </trkpt>
      <trkpt lat="43.45893" lon="2.30113">
        <ele>893.2021484</ele>
        <time>2014-06-15T09:41:54Z</time>
      </trkpt>
      <trkpt lat="43.45913" lon="2.30101">
        <ele>892.7216797</ele>
        <time>2014-06-15T09:41:58Z</time>
      </trkpt>
      <trkpt lat="43.45932" lon="2.30085">
        <ele>889.3566895</ele>
        <time>2014-06-15T09:42:01Z</time>
      </trkpt>
      <trkpt lat="43.45965" lon="2.30083">
        <ele>888.8762207</ele>
        <time>2014-06-15T09:42:05Z</time>
      </trkpt>
      <trkpt lat="43.45991" lon="2.30085">
        <ele>885.0310059</ele>
        <time>2014-06-15T09:42:09Z</time>
      </trkpt>
      <trkpt lat="43.46004" lon="2.30084">
        <ele>883.1081543</ele>
        <time>2014-06-15T09:42:11Z</time>
      </trkpt>
      <trkpt lat="43.46022" lon="2.30079">
        <ele>881.185791</ele>
        <time>2014-06-15T09:42:14Z</time>
      </trkpt>
      <trkpt lat="43.46029" lon="2.30077">
        <ele>880.7050781</ele>
        <time>2014-06-15T09:42:15Z</time>
      </trkpt>
      <trkpt lat="43.46055" lon="2.30081">
        <ele>880.7050781</ele>
        <time>2014-06-15T09:42:19Z</time>
      </trkpt>
      <trkpt lat="43.46095" lon="2.301">
        <ele>878.7824707</ele>
        <time>2014-06-15T09:42:25Z</time>
      </trkpt>
      <trkpt lat="43.46132" lon="2.30116">
        <ele>881.6662598</ele>
        <time>2014-06-15T09:42:30Z</time>
      </trkpt>
      <trkpt lat="43.46161" lon="2.30121">
        <ele>882.1469727</ele>
        <time>2014-06-15T09:42:34Z</time>
      </trkpt>
      <trkpt lat="43.46192" lon="2.30118">
        <ele>885.5114746</ele>
        <time>2014-06-15T09:42:39Z</time>
      </trkpt>
      <trkpt lat="43.46204" lon="2.30112">
        <ele>884.550293</ele>
        <time>2014-06-15T09:42:41Z</time>
      </trkpt>
      <trkpt lat="43.4624" lon="2.30084">
        <ele>878.3017578</ele>
        <time>2014-06-15T09:42:48Z</time>
      </trkpt>
      <trkpt lat="43.46277" lon="2.30053">
        <ele>877.3405762</ele>
        <time>2014-06-15T09:42:54Z</time>
      </trkpt>
      <trkpt lat="43.46286" lon="2.30039">
        <ele>873.4951172</ele>
        <time>2014-06-15T09:42:56Z</time>
      </trkpt>
      <trkpt lat="43.46305" lon="2.30007">
        <ele>875.8981934</ele>
        <time>2014-06-15T09:43:01Z</time>
      </trkpt>
      <trkpt lat="43.46322" lon="2.29977">
        <ele>879.2629395</ele>
        <time>2014-06-15T09:43:05Z</time>
      </trkpt>
      <trkpt lat="43.46354" lon="2.29946">
        <ele>886.4729004</ele>
        <time>2014-06-15T09:43:10Z</time>
      </trkpt>
      <trkpt lat="43.46372" lon="2.29923">
        <ele>884.0695801</ele>
        <time>2014-06-15T09:43:13Z</time>
      </trkpt>
      <trkpt lat="43.46386" lon="2.29869">
        <ele>873.4951172</ele>
        <time>2014-06-15T09:43:18Z</time>
      </trkpt>
      <trkpt lat="43.46393" lon="2.29838">
        <ele>868.6884766</ele>
        <time>2014-06-15T09:43:21Z</time>
      </trkpt>
      <trkpt lat="43.46397" lon="2.29809">
        <ele>866.2851563</ele>
        <time>2014-06-15T09:43:23Z</time>
      </trkpt>
      <trkpt lat="43.46399" lon="2.29757">
        <ele>859.5559082</ele>
        <time>2014-06-15T09:43:28Z</time>
      </trkpt>
      <trkpt lat="43.46405" lon="2.29711">
        <ele>856.671875</ele>
        <time>2014-06-15T09:43:33Z</time>
      </trkpt>
      <trkpt lat="43.46407" lon="2.29702">
        <ele>857.6333008</ele>
        <time>2014-06-15T09:43:34Z</time>
      </trkpt>
      <trkpt lat="43.46412" lon="2.29654">
        <ele>860.517334</ele>
        <time>2014-06-15T09:43:40Z</time>
      </trkpt>
      <trkpt lat="43.46412" lon="2.29645">
        <ele>860.0366211</ele>
        <time>2014-06-15T09:43:41Z</time>
      </trkpt>
      <trkpt lat="43.46422" lon="2.29628">
        <ele>859.0751953</ele>
        <time>2014-06-15T09:43:44Z</time>
      </trkpt>
      <trkpt lat="43.46426" lon="2.29609">
        <ele>857.6333008</ele>
        <time>2014-06-15T09:43:47Z</time>
      </trkpt>
      <trkpt lat="43.46447" lon="2.29582">
        <ele>865.8046875</ele>
        <time>2014-06-15T09:43:52Z</time>
      </trkpt>
      <trkpt lat="43.46456" lon="2.29571">
        <ele>868.6884766</ele>
        <time>2014-06-15T09:43:55Z</time>
      </trkpt>
      <trkpt lat="43.46477" lon="2.29539">
        <ele>866.2851563</ele>
        <time>2014-06-15T09:44:01Z</time>
      </trkpt>
      <trkpt lat="43.46488" lon="2.2952">
        <ele>865.8046875</ele>
        <time>2014-06-15T09:44:04Z</time>
      </trkpt>
      <trkpt lat="43.46509" lon="2.29504">
        <ele>870.611084</ele>
        <time>2014-06-15T09:44:09Z</time>
      </trkpt>
      <trkpt lat="43.4652" lon="2.29508">
        <ele>870.1303711</ele>
        <time>2014-06-15T09:44:12Z</time>
      </trkpt>
      <trkpt lat="43.46549" lon="2.29517">
        <ele>873.4951172</ele>
        <time>2014-06-15T09:44:20Z</time>
      </trkpt>
      <trkpt lat="43.46563" lon="2.29514">
        <ele>873.4951172</ele>
        <time>2014-06-15T09:44:24Z</time>
      </trkpt>
      <trkpt lat="43.46586" lon="2.29499">
        <ele>870.1303711</ele>
        <time>2014-06-15T09:44:29Z</time>
      </trkpt>
      <trkpt lat="43.46607" lon="2.29486">
        <ele>866.2851563</ele>
        <time>2014-06-15T09:44:33Z</time>
      </trkpt>
      <trkpt lat="43.46638" lon="2.29472">
        <ele>863.8818359</ele>
        <time>2014-06-15T09:44:38Z</time>
      </trkpt>
      <trkpt lat="43.4667" lon="2.29463">
        <ele>868.6884766</ele>
        <time>2014-06-15T09:44:42Z</time>
      </trkpt>
      <trkpt lat="43.46711" lon="2.2945">
        <ele>868.6884766</ele>
        <time>2014-06-15T09:44:48Z</time>
      </trkpt>
      <trkpt lat="43.46744" lon="2.29436">
        <ele>866.2851563</ele>
        <time>2014-06-15T09:44:52Z</time>
      </trkpt>
      <trkpt lat="43.4678" lon="2.29416">
        <ele>865.8046875</ele>
        <time>2014-06-15T09:44:56Z</time>
      </trkpt>
      <trkpt lat="43.46823" lon="2.29393">
        <ele>866.2851563</ele>
        <time>2014-06-15T09:45:02Z</time>
      </trkpt>
      <trkpt lat="43.4683" lon="2.2939">
        <ele>865.8046875</ele>
        <time>2014-06-15T09:45:03Z</time>
      </trkpt>
      <trkpt lat="43.46841" lon="2.29381">
        <ele>860.0366211</ele>
        <time>2014-06-15T09:45:05Z</time>
      </trkpt>
      <trkpt lat="43.46872" lon="2.29341">
        <ele>843.6940918</ele>
        <time>2014-06-15T09:45:11Z</time>
      </trkpt>
      <trkpt lat="43.469" lon="2.29314">
        <ele>839.3681641</ele>
        <time>2014-06-15T09:45:15Z</time>
      </trkpt>
      <trkpt lat="43.46913" lon="2.29298">
        <ele>835.5229492</ele>
        <time>2014-06-15T09:45:17Z</time>
      </trkpt>
      <trkpt lat="43.46938" lon="2.29241">
        <ele>829.755127</ele>
        <time>2014-06-15T09:45:23Z</time>
      </trkpt>
      <trkpt lat="43.4694" lon="2.2923">
        <ele>825.909668</ele>
        <time>2014-06-15T09:45:24Z</time>
      </trkpt>
      <trkpt lat="43.46975" lon="2.29194">
        <ele>823.0258789</ele>
        <time>2014-06-15T09:45:29Z</time>
      </trkpt>
      <trkpt lat="43.47017" lon="2.29159">
        <ele>822.0644531</ele>
        <time>2014-06-15T09:45:34Z</time>
      </trkpt>
      <trkpt lat="43.47048" lon="2.29136">
        <ele>823.0258789</ele>
        <time>2014-06-15T09:45:38Z</time>
      </trkpt>
      <trkpt lat="43.47079" lon="2.29115">
        <ele>819.661377</ele>
        <time>2014-06-15T09:45:42Z</time>
      </trkpt>
      <trkpt lat="43.47126" lon="2.29091">
        <ele>813.8933105</ele>
        <time>2014-06-15T09:45:48Z</time>
      </trkpt>
      <trkpt lat="43.47167" lon="2.29072">
        <ele>808.605957</ele>
        <time>2014-06-15T09:45:52Z</time>
      </trkpt>
      <trkpt lat="43.47199" lon="2.29055">
        <ele>806.6833496</ele>
        <time>2014-06-15T09:45:56Z</time>
      </trkpt>
      <trkpt lat="43.47242" lon="2.29044">
        <ele>801.3962402</ele>
        <time>2014-06-15T09:46:00Z</time>
      </trkpt>
      <trkpt lat="43.47287" lon="2.29024">
        <ele>795.6281738</ele>
        <time>2014-06-15T09:46:05Z</time>
      </trkpt>
      <trkpt lat="43.47307" lon="2.29019">
        <ele>789.8603516</ele>
        <time>2014-06-15T09:46:08Z</time>
      </trkpt>
      <trkpt lat="43.47313" lon="2.29018">
        <ele>790.8215332</ele>
        <time>2014-06-15T09:46:09Z</time>
      </trkpt>
      <trkpt lat="43.47335" lon="2.29027">
        <ele>788.418457</ele>
        <time>2014-06-15T09:46:13Z</time>
      </trkpt>
      <trkpt lat="43.4734" lon="2.29034">
        <ele>785.5344238</ele>
        <time>2014-06-15T09:46:14Z</time>
      </trkpt>
      <trkpt lat="43.47374" lon="2.29067">
        <ele>776.8825684</ele>
        <time>2014-06-15T09:46:19Z</time>
      </trkpt>
      <trkpt lat="43.47401" lon="2.29081">
        <ele>768.7114258</ele>
        <time>2014-06-15T09:46:24Z</time>
      </trkpt>
      <trkpt lat="43.47431" lon="2.29093">
        <ele>764.8662109</ele>
        <time>2014-06-15T09:46:28Z</time>
      </trkpt>
      <trkpt lat="43.47454" lon="2.29089">
        <ele>763.904541</ele>
        <time>2014-06-15T09:46:32Z</time>
      </trkpt>
      <trkpt lat="43.4746" lon="2.29088">
        <ele>764.385498</ele>
        <time>2014-06-15T09:46:33Z</time>
      </trkpt>
      <trkpt lat="43.4747" lon="2.29086">
        <ele>767.2695313</ele>
        <time>2014-06-15T09:46:37Z</time>
      </trkpt>
      <trkpt lat="43.47457" lon="2.29072">
        <ele>772.0759277</ele>
        <time>2014-06-15T09:46:41Z</time>
      </trkpt>
      <trkpt lat="43.47451" lon="2.29067">
        <ele>773.0373535</ele>
        <time>2014-06-15T09:46:43Z</time>
      </trkpt>
      <trkpt lat="43.47432" lon="2.29052">
        <ele>773.9985352</ele>
        <time>2014-06-15T09:46:49Z</time>
      </trkpt>
      <trkpt lat="43.47414" lon="2.29029">
        <ele>774.9599609</ele>
        <time>2014-06-15T09:46:54Z</time>
      </trkpt>
      <trkpt lat="43.4739" lon="2.29006">
        <ele>772.5566406</ele>
        <time>2014-06-15T09:46:58Z</time>
      </trkpt>
      <trkpt lat="43.47375" lon="2.28988">
        <ele>772.0759277</ele>
        <time>2014-06-15T09:47:01Z</time>
      </trkpt>
      <trkpt lat="43.47369" lon="2.28976">
        <ele>767.75</ele>
        <time>2014-06-15T09:47:05Z</time>
      </trkpt>
      <trkpt lat="43.47358" lon="2.28957">
        <ele>768.2307129</ele>
        <time>2014-06-15T09:47:09Z</time>
      </trkpt>
      <trkpt lat="43.4734" lon="2.28932">
        <ele>761.020752</ele>
        <time>2014-06-15T09:47:14Z</time>
      </trkpt>
      <trkpt lat="43.47318" lon="2.2891">
        <ele>761.5014648</ele>
        <time>2014-06-15T09:47:18Z</time>
      </trkpt>
      <trkpt lat="43.47286" lon="2.28891">
        <ele>761.5014648</ele>
        <time>2014-06-15T09:47:24Z</time>
      </trkpt>
      <trkpt lat="43.47271" lon="2.28884">
        <ele>759.5788574</ele>
        <time>2014-06-15T09:47:27Z</time>
      </trkpt>
      <trkpt lat="43.47243" lon="2.28858">
        <ele>760.0593262</ele>
        <time>2014-06-15T09:47:33Z</time>
      </trkpt>
      <trkpt lat="43.47227" lon="2.28848">
        <ele>759.5788574</ele>
        <time>2014-06-15T09:47:36Z</time>
      </trkpt>
      <trkpt lat="43.47205" lon="2.28827">
        <ele>758.1369629</ele>
        <time>2014-06-15T09:47:40Z</time>
      </trkpt>
      <trkpt lat="43.47187" lon="2.28816">
        <ele>757.65625</ele>
        <time>2014-06-15T09:47:43Z</time>
      </trkpt>
      <trkpt lat="43.47184" lon="2.28798">
        <ele>755.7336426</ele>
        <time>2014-06-15T09:47:46Z</time>
      </trkpt>
      <trkpt lat="43.47186" lon="2.28789">
        <ele>755.7336426</ele>
        <time>2014-06-15T09:47:47Z</time>
      </trkpt>
      <trkpt lat="43.47187" lon="2.28771">
        <ele>756.6948242</ele>
        <time>2014-06-15T09:47:49Z</time>
      </trkpt>
      <trkpt lat="43.47215" lon="2.28753">
        <ele>757.1755371</ele>
        <time>2014-06-15T09:47:54Z</time>
      </trkpt>
      <trkpt lat="43.47219" lon="2.28748">
        <ele>757.65625</ele>
        <time>2014-06-15T09:47:55Z</time>
      </trkpt>
      <trkpt lat="43.47234" lon="2.28731">
        <ele>760.0593262</ele>
        <time>2014-06-15T09:47:59Z</time>
      </trkpt>
      <trkpt lat="43.4725" lon="2.28718">
        <ele>762.4626465</ele>
        <time>2014-06-15T09:48:03Z</time>
      </trkpt>
      <trkpt lat="43.47289" lon="2.28715">
        <ele>773.9985352</ele>
        <time>2014-06-15T09:48:10Z</time>
      </trkpt>
      <trkpt lat="43.47317" lon="2.28715">
        <ele>774.9599609</ele>
        <time>2014-06-15T09:48:15Z</time>
      </trkpt>
      <trkpt lat="43.47339" lon="2.28713">
        <ele>773.0373535</ele>
        <time>2014-06-15T09:48:19Z</time>
      </trkpt>
      <trkpt lat="43.47351" lon="2.28706">
        <ele>767.75</ele>
        <time>2014-06-15T09:48:22Z</time>
      </trkpt>
      <trkpt lat="43.47367" lon="2.28695">
        <ele>766.7888184</ele>
        <time>2014-06-15T09:48:25Z</time>
      </trkpt>
      <trkpt lat="43.47393" lon="2.28662">
        <ele>763.4240723</ele>
        <time>2014-06-15T09:48:30Z</time>
      </trkpt>
      <trkpt lat="43.47409" lon="2.28639">
        <ele>755.7336426</ele>
        <time>2014-06-15T09:48:34Z</time>
      </trkpt>
      <trkpt lat="43.47435" lon="2.28627">
        <ele>750.927002</ele>
        <time>2014-06-15T09:48:38Z</time>
      </trkpt>
      <trkpt lat="43.47442" lon="2.28624">
        <ele>751.4077148</ele>
        <time>2014-06-15T09:48:39Z</time>
      </trkpt>
      <trkpt lat="43.47457" lon="2.28613">
        <ele>749.9658203</ele>
        <time>2014-06-15T09:48:41Z</time>
      </trkpt>
      <trkpt lat="43.47487" lon="2.28568">
        <ele>750.4465332</ele>
        <time>2014-06-15T09:48:46Z</time>
      </trkpt>
      <trkpt lat="43.47512" lon="2.28503">
        <ele>739.8718262</ele>
        <time>2014-06-15T09:48:52Z</time>
      </trkpt>
      <trkpt lat="43.47532" lon="2.28447">
        <ele>730.2585449</ele>
        <time>2014-06-15T09:48:57Z</time>
      </trkpt>
      <trkpt lat="43.47563" lon="2.28413">
        <ele>730.2585449</ele>
        <time>2014-06-15T09:49:01Z</time>
      </trkpt>
      <trkpt lat="43.47573" lon="2.28407">
        <ele>731.2199707</ele>
        <time>2014-06-15T09:49:02Z</time>
      </trkpt>
      <trkpt lat="43.47598" lon="2.28386">
        <ele>727.3747559</ele>
        <time>2014-06-15T09:49:05Z</time>
      </trkpt>
      <trkpt lat="43.47621" lon="2.28351">
        <ele>724.0100098</ele>
        <time>2014-06-15T09:49:09Z</time>
      </trkpt>
      <trkpt lat="43.47623" lon="2.28315">
        <ele>717.2810059</ele>
        <time>2014-06-15T09:49:13Z</time>
      </trkpt>
      <trkpt lat="43.47605" lon="2.28293">
        <ele>713.4355469</ele>
        <time>2014-06-15T09:49:16Z</time>
      </trkpt>
      <trkpt lat="43.47583" lon="2.28293">
        <ele>710.0708008</ele>
        <time>2014-06-15T09:49:19Z</time>
      </trkpt>
      <trkpt lat="43.4757" lon="2.28314">
        <ele>709.590332</ele>
        <time>2014-06-15T09:49:22Z</time>
      </trkpt>
      <trkpt lat="43.47544" lon="2.28337">
        <ele>709.590332</ele>
        <time>2014-06-15T09:49:26Z</time>
      </trkpt>
      <trkpt lat="43.47523" lon="2.28329">
        <ele>708.6289063</ele>
        <time>2014-06-15T09:49:29Z</time>
      </trkpt>
      <trkpt lat="43.47503" lon="2.28303">
        <ele>709.1096191</ele>
        <time>2014-06-15T09:49:33Z</time>
      </trkpt>
      <trkpt lat="43.47503" lon="2.28293">
        <ele>710.0708008</ele>
        <time>2014-06-15T09:49:34Z</time>
      </trkpt>
      <trkpt lat="43.47481" lon="2.28244">
        <ele>708.1484375</ele>
        <time>2014-06-15T09:49:39Z</time>
      </trkpt>
      <trkpt lat="43.47473" lon="2.2824">
        <ele>708.1484375</ele>
        <time>2014-06-15T09:49:40Z</time>
      </trkpt>
      <trkpt lat="43.47468" lon="2.28221">
        <ele>701.8999023</ele>
        <time>2014-06-15T09:49:45Z</time>
      </trkpt>
      <trkpt lat="43.47473" lon="2.28208">
        <ele>698.0544434</ele>
        <time>2014-06-15T09:49:47Z</time>
      </trkpt>
      <trkpt lat="43.4747" lon="2.28179">
        <ele>686.9992676</ele>
        <time>2014-06-15T09:49:52Z</time>
      </trkpt>
      <trkpt lat="43.47461" lon="2.28164">
        <ele>678.3474121</ele>
        <time>2014-06-15T09:49:55Z</time>
      </trkpt>
      <trkpt lat="43.47438" lon="2.28144">
        <ele>668.2536621</ele>
        <time>2014-06-15T09:50:00Z</time>
      </trkpt>
      <trkpt lat="43.47425" lon="2.28127">
        <ele>660.0822754</ele>
        <time>2014-06-15T09:50:03Z</time>
      </trkpt>
      <trkpt lat="43.47405" lon="2.28114">
        <ele>650.4692383</ele>
        <time>2014-06-15T09:50:06Z</time>
      </trkpt>
      <trkpt lat="43.4739" lon="2.28088">
        <ele>644.2207031</ele>
        <time>2014-06-15T09:50:10Z</time>
      </trkpt>
      <trkpt lat="43.47389" lon="2.28065">
        <ele>642.2980957</ele>
        <time>2014-06-15T09:50:12Z</time>
      </trkpt>
      <trkpt lat="43.47394" lon="2.28008">
        <ele>650.949707</ele>
        <time>2014-06-15T09:50:17Z</time>
      </trkpt>
      <trkpt lat="43.47377" lon="2.27926">
        <ele>675.4633789</ele>
        <time>2014-06-15T09:50:23Z</time>
      </trkpt>
      <trkpt lat="43.47375" lon="2.27904">
        <ele>682.192627</ele>
        <time>2014-06-15T09:50:26Z</time>
      </trkpt>
      <trkpt lat="43.47364" lon="2.27874">
        <ele>678.828125</ele>
        <time>2014-06-15T09:50:31Z</time>
      </trkpt>
      <trkpt lat="43.47339" lon="2.27853">
        <ele>663.4470215</ele>
        <time>2014-06-15T09:50:35Z</time>
      </trkpt>
      <trkpt lat="43.47321" lon="2.27825">
        <ele>658.6403809</ele>
        <time>2014-06-15T09:50:40Z</time>
      </trkpt>
      <trkpt lat="43.47325" lon="2.27799">
        <ele>664.888916</ele>
        <time>2014-06-15T09:50:45Z</time>
      </trkpt>
      <trkpt lat="43.47335" lon="2.27805">
        <ele>662.4855957</ele>
        <time>2014-06-15T09:50:48Z</time>
      </trkpt>
      <trkpt lat="43.47341" lon="2.27808">
        <ele>662.005127</ele>
        <time>2014-06-15T09:50:49Z</time>
      </trkpt>
      <trkpt lat="43.47362" lon="2.27811">
        <ele>663.9274902</ele>
        <time>2014-06-15T09:50:52Z</time>
      </trkpt>
      <trkpt lat="43.47395" lon="2.27805">
        <ele>662.4855957</ele>
        <time>2014-06-15T09:50:57Z</time>
      </trkpt>
      <trkpt lat="43.47402" lon="2.27817">
        <ele>662.005127</ele>
        <time>2014-06-15T09:50:59Z</time>
      </trkpt>
      <trkpt lat="43.47417" lon="2.27832">
        <ele>667.2922363</ele>
        <time>2014-06-15T09:51:02Z</time>
      </trkpt>
      <trkpt lat="43.47437" lon="2.27838">
        <ele>675.9440918</ele>
        <time>2014-06-15T09:51:06Z</time>
      </trkpt>
      <trkpt lat="43.4746" lon="2.27839">
        <ele>674.9829102</ele>
        <time>2014-06-15T09:51:11Z</time>
      </trkpt>
      <trkpt lat="43.47486" lon="2.27843">
        <ele>676.9055176</ele>
        <time>2014-06-15T09:51:15Z</time>
      </trkpt>
      <trkpt lat="43.47524" lon="2.27846">
        <ele>678.828125</ele>
        <time>2014-06-15T09:51:21Z</time>
      </trkpt>
      <trkpt lat="43.47555" lon="2.2785">
        <ele>686.5187988</ele>
        <time>2014-06-15T09:51:26Z</time>
      </trkpt>
      <trkpt lat="43.47571" lon="2.27851">
        <ele>687.4799805</ele>
        <time>2014-06-15T09:51:29Z</time>
      </trkpt>
      <trkpt lat="43.47593" lon="2.27851">
        <ele>688.4414063</ele>
        <time>2014-06-15T09:51:33Z</time>
      </trkpt>
      <trkpt lat="43.47622" lon="2.27838">
        <ele>689.8833008</ele>
        <time>2014-06-15T09:51:38Z</time>
      </trkpt>
      <trkpt lat="43.47657" lon="2.27822">
        <ele>687.4799805</ele>
        <time>2014-06-15T09:51:43Z</time>
      </trkpt>
      <trkpt lat="43.47696" lon="2.2781">
        <ele>680.7507324</ele>
        <time>2014-06-15T09:51:48Z</time>
      </trkpt>
      <trkpt lat="43.47739" lon="2.27804">
        <ele>675.4633789</ele>
        <time>2014-06-15T09:51:53Z</time>
      </trkpt>
      <trkpt lat="43.47794" lon="2.27821">
        <ele>683.6345215</ele>
        <time>2014-06-15T09:51:59Z</time>
      </trkpt>
      <trkpt lat="43.47837" lon="2.27817">
        <ele>675.4633789</ele>
        <time>2014-06-15T09:52:04Z</time>
      </trkpt>
      <trkpt lat="43.47861" lon="2.27794">
        <ele>663.9274902</ele>
        <time>2014-06-15T09:52:08Z</time>
      </trkpt>
      <trkpt lat="43.47871" lon="2.27772">
        <ele>659.1210938</ele>
        <time>2014-06-15T09:52:11Z</time>
      </trkpt>
      <trkpt lat="43.47876" lon="2.27755">
        <ele>659.1210938</ele>
        <time>2014-06-15T09:52:13Z</time>
      </trkpt>
      <trkpt lat="43.47889" lon="2.2772">
        <ele>663.4470215</ele>
        <time>2014-06-15T09:52:17Z</time>
      </trkpt>
      <trkpt lat="43.47901" lon="2.27694">
        <ele>664.888916</ele>
        <time>2014-06-15T09:52:19Z</time>
      </trkpt>
      <trkpt lat="43.4791" lon="2.27673">
        <ele>662.9663086</ele>
        <time>2014-06-15T09:52:21Z</time>
      </trkpt>
      <trkpt lat="43.47923" lon="2.2763">
        <ele>660.5629883</ele>
        <time>2014-06-15T09:52:25Z</time>
      </trkpt>
      <trkpt lat="43.47916" lon="2.27583">
        <ele>655.2758789</ele>
        <time>2014-06-15T09:52:31Z</time>
      </trkpt>
      <trkpt lat="43.47911" lon="2.27577">
        <ele>654.795166</ele>
        <time>2014-06-15T09:52:32Z</time>
      </trkpt>
      <trkpt lat="43.47897" lon="2.27561">
        <ele>651.9111328</ele>
        <time>2014-06-15T09:52:35Z</time>
      </trkpt>
      <trkpt lat="43.47884" lon="2.27544">
        <ele>651.9111328</ele>
        <time>2014-06-15T09:52:38Z</time>
      </trkpt>
      <trkpt lat="43.47882" lon="2.27532">
        <ele>656.7177734</ele>
        <time>2014-06-15T09:52:41Z</time>
      </trkpt>
      <trkpt lat="43.47908" lon="2.27542">
        <ele>663.4470215</ele>
        <time>2014-06-15T09:52:45Z</time>
      </trkpt>
      <trkpt lat="43.47914" lon="2.27544">
        <ele>663.9274902</ele>
        <time>2014-06-15T09:52:46Z</time>
      </trkpt>
      <trkpt lat="43.47952" lon="2.27557">
        <ele>666.3308105</ele>
        <time>2014-06-15T09:52:53Z</time>
      </trkpt>
      <trkpt lat="43.47962" lon="2.27563">
        <ele>662.9663086</ele>
        <time>2014-06-15T09:52:55Z</time>
      </trkpt>
      <trkpt lat="43.47973" lon="2.27576">
        <ele>657.1984863</ele>
        <time>2014-06-15T09:52:58Z</time>
      </trkpt>
      <trkpt lat="43.47996" lon="2.27615">
        <ele>645.6625977</ele>
        <time>2014-06-15T09:53:04Z</time>
      </trkpt>
      <trkpt lat="43.47997" lon="2.27661">
        <ele>644.7011719</ele>
        <time>2014-06-15T09:53:09Z</time>
      </trkpt>
      <trkpt lat="43.48002" lon="2.27703">
        <ele>640.855957</ele>
        <time>2014-06-15T09:53:14Z</time>
      </trkpt>
      <trkpt lat="43.48019" lon="2.27728">
        <ele>640.3754883</ele>
        <time>2014-06-15T09:53:18Z</time>
      </trkpt>
      <trkpt lat="43.48032" lon="2.2773">
        <ele>641.3366699</ele>
        <time>2014-06-15T09:53:20Z</time>
      </trkpt>
      <trkpt lat="43.48075" lon="2.27734">
        <ele>639.4140625</ele>
        <time>2014-06-15T09:53:26Z</time>
      </trkpt>
      <trkpt lat="43.48094" lon="2.27737">
        <ele>642.2980957</ele>
        <time>2014-06-15T09:53:28Z</time>
      </trkpt>
      <trkpt lat="43.48121" lon="2.27726">
        <ele>644.7011719</ele>
        <time>2014-06-15T09:53:32Z</time>
      </trkpt>
      <trkpt lat="43.48126" lon="2.27719">
        <ele>644.7011719</ele>
        <time>2014-06-15T09:53:33Z</time>
      </trkpt>
      <trkpt lat="43.48138" lon="2.277">
        <ele>643.2592773</ele>
        <time>2014-06-15T09:53:35Z</time>
      </trkpt>
      <trkpt lat="43.48155" lon="2.27658">
        <ele>644.2207031</ele>
        <time>2014-06-15T09:53:39Z</time>
      </trkpt>
      <trkpt lat="43.48187" lon="2.27636">
        <ele>646.1433105</ele>
        <time>2014-06-15T09:53:43Z</time>
      </trkpt>
      <trkpt lat="43.48204" lon="2.27643">
        <ele>648.065918</ele>
        <time>2014-06-15T09:53:45Z</time>
      </trkpt>
      <trkpt lat="43.48212" lon="2.27646">
        <ele>649.5078125</ele>
        <time>2014-06-15T09:53:46Z</time>
      </trkpt>
      <trkpt lat="43.48243" lon="2.27665">
        <ele>644.2207031</ele>
        <time>2014-06-15T09:53:51Z</time>
      </trkpt>
      <trkpt lat="43.48253" lon="2.27669">
        <ele>639.8947754</ele>
        <time>2014-06-15T09:53:53Z</time>
      </trkpt>
      <trkpt lat="43.4829" lon="2.27658">
        <ele>636.0495605</ele>
        <time>2014-06-15T09:53:58Z</time>
      </trkpt>
      <trkpt lat="43.48301" lon="2.27651">
        <ele>635.5686035</ele>
        <time>2014-06-15T09:54:00Z</time>
      </trkpt>
      <trkpt lat="43.48337" lon="2.27632">
        <ele>631.2429199</ele>
        <time>2014-06-15T09:54:07Z</time>
      </trkpt>
      <trkpt lat="43.48369" lon="2.27622">
        <ele>638.4528809</ele>
        <time>2014-06-15T09:54:13Z</time>
      </trkpt>
      <trkpt lat="43.48382" lon="2.27617">
        <ele>643.7399902</ele>
        <time>2014-06-15T09:54:15Z</time>
      </trkpt>
      <trkpt lat="43.48413" lon="2.27612">
        <ele>646.1433105</ele>
        <time>2014-06-15T09:54:21Z</time>
      </trkpt>
      <trkpt lat="43.48448" lon="2.27604">
        <ele>646.1433105</ele>
        <time>2014-06-15T09:54:27Z</time>
      </trkpt>
      <trkpt lat="43.48469" lon="2.27592">
        <ele>643.7399902</ele>
        <time>2014-06-15T09:54:30Z</time>
      </trkpt>
      <trkpt lat="43.48506" lon="2.27593">
        <ele>644.2207031</ele>
        <time>2014-06-15T09:54:35Z</time>
      </trkpt>
      <trkpt lat="43.4852" lon="2.27613">
        <ele>640.3754883</ele>
        <time>2014-06-15T09:54:38Z</time>
      </trkpt>
      <trkpt lat="43.48516" lon="2.27637">
        <ele>625.9555664</ele>
        <time>2014-06-15T09:54:41Z</time>
      </trkpt>
      <trkpt lat="43.48514" lon="2.27657">
        <ele>620.668457</ele>
        <time>2014-06-15T09:54:43Z</time>
      </trkpt>
      <trkpt lat="43.48517" lon="2.27689">
        <ele>615.8618164</ele>
        <time>2014-06-15T09:54:46Z</time>
      </trkpt>
      <trkpt lat="43.48525" lon="2.27713">
        <ele>612.9777832</ele>
        <time>2014-06-15T09:54:49Z</time>
      </trkpt>
      <trkpt lat="43.48541" lon="2.27729">
        <ele>607.6906738</ele>
        <time>2014-06-15T09:54:53Z</time>
      </trkpt>
      <trkpt lat="43.4856" lon="2.2772">
        <ele>608.1713867</ele>
        <time>2014-06-15T09:54:56Z</time>
      </trkpt>
      <trkpt lat="43.48592" lon="2.27706">
        <ele>608.6518555</ele>
        <time>2014-06-15T09:55:00Z</time>
      </trkpt>
      <trkpt lat="43.48601" lon="2.27704">
        <ele>607.6906738</ele>
        <time>2014-06-15T09:55:01Z</time>
      </trkpt>
      <trkpt lat="43.48637" lon="2.27702">
        <ele>602.8837891</ele>
        <time>2014-06-15T09:55:05Z</time>
      </trkpt>
      <trkpt lat="43.48687" lon="2.27681">
        <ele>593.270752</ele>
        <time>2014-06-15T09:55:11Z</time>
      </trkpt>
      <trkpt lat="43.48698" lon="2.27678">
        <ele>591.8288574</ele>
        <time>2014-06-15T09:55:12Z</time>
      </trkpt>
      <trkpt lat="43.48744" lon="2.27686">
        <ele>581.7348633</ele>
        <time>2014-06-15T09:55:17Z</time>
      </trkpt>
      <trkpt lat="43.4876" lon="2.27693">
        <ele>576.4477539</ele>
        <time>2014-06-15T09:55:19Z</time>
      </trkpt>
      <trkpt lat="43.48808" lon="2.27694">
        <ele>571.1604004</ele>
        <time>2014-06-15T09:55:24Z</time>
      </trkpt>
      <trkpt lat="43.48861" lon="2.27687">
        <ele>576.4477539</ele>
        <time>2014-06-15T09:55:29Z</time>
      </trkpt>
      <trkpt lat="43.48881" lon="2.2768">
        <ele>579.331543</ele>
        <time>2014-06-15T09:55:31Z</time>
      </trkpt>
      <trkpt lat="43.48928" lon="2.27684">
        <ele>590.3869629</ele>
        <time>2014-06-15T09:55:36Z</time>
      </trkpt>
      <trkpt lat="43.48942" lon="2.27695">
        <ele>590.3869629</ele>
        <time>2014-06-15T09:55:38Z</time>
      </trkpt>
      <trkpt lat="43.4897" lon="2.27745">
        <ele>580.2929688</ele>
        <time>2014-06-15T09:55:43Z</time>
      </trkpt>
      <trkpt lat="43.49007" lon="2.27781">
        <ele>572.1218262</ele>
        <time>2014-06-15T09:55:48Z</time>
      </trkpt>
      <trkpt lat="43.49013" lon="2.27786">
        <ele>570.1989746</ele>
        <time>2014-06-15T09:55:49Z</time>
      </trkpt>
      <trkpt lat="43.49024" lon="2.27789">
        <ele>567.3151855</ele>
        <time>2014-06-15T09:55:51Z</time>
      </trkpt>
      <trkpt lat="43.49052" lon="2.27783">
        <ele>567.3151855</ele>
        <time>2014-06-15T09:55:55Z</time>
      </trkpt>
      <trkpt lat="43.49069" lon="2.27784">
        <ele>567.3151855</ele>
        <time>2014-06-15T09:55:57Z</time>
      </trkpt>
      <trkpt lat="43.49115" lon="2.27797">
        <ele>567.3151855</ele>
        <time>2014-06-15T09:56:02Z</time>
      </trkpt>
      <trkpt lat="43.49166" lon="2.27789">
        <ele>564.4311523</ele>
        <time>2014-06-15T09:56:07Z</time>
      </trkpt>
      <trkpt lat="43.49197" lon="2.27784">
        <ele>565.3925781</ele>
        <time>2014-06-15T09:56:10Z</time>
      </trkpt>
      <trkpt lat="43.49248" lon="2.27759">
        <ele>569.237793</ele>
        <time>2014-06-15T09:56:15Z</time>
      </trkpt>
      <trkpt lat="43.49271" lon="2.27743">
        <ele>563.9504395</ele>
        <time>2014-06-15T09:56:18Z</time>
      </trkpt>
      <trkpt lat="43.49297" lon="2.27702">
        <ele>544.2436523</ele>
        <time>2014-06-15T09:56:23Z</time>
      </trkpt>
      <trkpt lat="43.49299" lon="2.27645">
        <ele>533.1883545</ele>
        <time>2014-06-15T09:56:28Z</time>
      </trkpt>
      <trkpt lat="43.49296" lon="2.27629">
        <ele>531.7463379</ele>
        <time>2014-06-15T09:56:29Z</time>
      </trkpt>
      <trkpt lat="43.49282" lon="2.27572">
        <ele>528.3818359</ele>
        <time>2014-06-15T09:56:33Z</time>
      </trkpt>
      <trkpt lat="43.49284" lon="2.27509">
        <ele>522.1331787</ele>
        <time>2014-06-15T09:56:38Z</time>
      </trkpt>
      <trkpt lat="43.49289" lon="2.27488">
        <ele>519.2492676</ele>
        <time>2014-06-15T09:56:40Z</time>
      </trkpt>
      <trkpt lat="43.49301" lon="2.2743">
        <ele>514.442627</ele>
        <time>2014-06-15T09:56:45Z</time>
      </trkpt>
      <trkpt lat="43.49302" lon="2.27421">
        <ele>514.442627</ele>
        <time>2014-06-15T09:56:46Z</time>
      </trkpt>
      <trkpt lat="43.49301" lon="2.27403">
        <ele>513.9620361</ele>
        <time>2014-06-15T09:56:48Z</time>
      </trkpt>
      <trkpt lat="43.49308" lon="2.27346">
        <ele>511.0780029</ele>
        <time>2014-06-15T09:56:53Z</time>
      </trkpt>
      <trkpt lat="43.49313" lon="2.27283">
        <ele>510.1166992</ele>
        <time>2014-06-15T09:56:58Z</time>
      </trkpt>
      <trkpt lat="43.49315" lon="2.27243">
        <ele>507.2327881</ele>
        <time>2014-06-15T09:57:02Z</time>
      </trkpt>
      <trkpt lat="43.49315" lon="2.27234">
        <ele>506.2714844</ele>
        <time>2014-06-15T09:57:03Z</time>
      </trkpt>
      <trkpt lat="43.49308" lon="2.27199">
        <ele>503.3874512</ele>
        <time>2014-06-15T09:57:07Z</time>
      </trkpt>
      <trkpt lat="43.49286" lon="2.27172">
        <ele>499.5422363</ele>
        <time>2014-06-15T09:57:11Z</time>
      </trkpt>
      <trkpt lat="43.49274" lon="2.27165">
        <ele>499.0615234</ele>
        <time>2014-06-15T09:57:13Z</time>
      </trkpt>
      <trkpt lat="43.49258" lon="2.27156">
        <ele>498.1003418</ele>
        <time>2014-06-15T09:57:16Z</time>
      </trkpt>
      <trkpt lat="43.4924" lon="2.27144">
        <ele>499.5422363</ele>
        <time>2014-06-15T09:57:21Z</time>
      </trkpt>
      <trkpt lat="43.49237" lon="2.27141">
        <ele>501.9455566</ele>
        <time>2014-06-15T09:57:22Z</time>
      </trkpt>
      <trkpt lat="43.49231" lon="2.27136">
        <ele>507.713501</ele>
        <time>2014-06-15T09:57:31Z</time>
      </trkpt>
      <trkpt lat="43.49236" lon="2.27133">
        <ele>506.7520752</ele>
        <time>2014-06-15T09:57:42Z</time>
      </trkpt>
      <trkpt lat="43.49234" lon="2.27132">
        <ele>506.7520752</ele>
        <time>2014-06-15T09:57:47Z</time>
      </trkpt>
    </trkseg>
  </trk>
</gpx>